[[{"header":{"parameterUnit":"m.s-1","parameterCategory":1,"la1":30.6,"la2":29.2853,"lo1":-89.7004,"lo2":-87.6739,"dy":0.0162,"dx":0.0183,"nx":112,"ny":82,"refTime":"2026-04-03T12:00:00:Z","depth":0,"parameterNumber":2,"parameterNumberName":"U-component_of_WINDS"},"data":[0.0,0.0,0.0,0.0,0.0,0.0,0.0,0.0,0.0,0.0,0.0,0.0,0.0,0.0,0.0,0.0,0.0,0.0,0.0,0.0,0.0,0.0,0.0,0.0,0.0,0.0,0.0,0.0,0.0,0.0,0.0,0.0,0.0,0.0,0.0,0.0,0.0,0.0,0.0,0.0,0.0,0.0,0.0,0.0,0.0,0.0,0.0,0.0,0.0,0.0,0.0,0.0,0.0,0.0,0.0,0.0,0.0,0.0,0.0,0.0,0.0,0.0,0.0,0.0,0.0,0.0,0.0,0.0,0.0,0.0,0.0,0.0,0.0,0.0,0.0,0.0,0.0,0.0,0.0,0.0,0.0,0.0,0.0,0.0,0.0,0.0,0.0,0.0,0.0,0.0,-1.3945,-1.5059,-1.6875,-1.7871,-1.75,-1.6953,-1.6133,-1.4961,0.0,0.0,0.0,0.0,0.0,0.0,0.0,0.0,0.0,0.0,0.0,0.0,0.0,0.0,0.0,0.0,0.0,0.0,0.0,0.0,0.0,0.0,0.0,0.0,0.0,0.0,0.0,0.0,0.0,0.0,0.0,0.0,0.0,0.0,0.0,0.0,0.0,0.0,0.0,0.0,0.0,0.0,0.0,0.0,0.0,0.0,0.0,0.0,0.0,0.0,0.0,0.0,0.0,0.0,0.0,0.0,0.0,0.0,0.0,0.0,0.0,0.0,0.0,0.0,0.0,0.0,0.0,0.0,0.0,0.0,0.0,0.0,0.0,0.0,0.0,0.0,0.0,0.0,0.0,0.0,0.0,0.0,0.0,0.0,0.0,0.0,0.0,0.0,0.0,0.0,0.0,0.0,0.0,0.0,0.0,0.0,0.0,0.0,0.0,0.0,0.0,0.0,0.0,0.0,-1.4394,-1.6738,-1.7598,-1.7988,-1.791,-1.6836,-1.5948,-1.5352,0.0,0.0,0.0,0.0,0.0,0.0,0.0,0.0,0.0,0.0,0.0,0.0,0.0,0.0,0.0,0.0,0.0,0.0,0.0,0.0,0.0,0.0,0.0,0.0,0.0,0.0,0.0,0.0,0.0,0.0,0.0,0.0,0.0,0.0,0.0,0.0,0.0,0.0,0.0,0.0,0.0,0.0,0.0,0.0,0.0,0.0,0.0,0.0,0.0,0.0,0.0,0.0,0.0,0.0,0.0,0.0,0.0,0.0,0.0,0.0,0.0,0.0,0.0,0.0,0.0,0.0,0.0,0.0,0.0,0.0,0.0,0.0,0.0,0.0,0.0,0.0,0.0,0.0,0.0,0.0,0.0,0.0,0.0,0.0,0.0,0.0,0.0,0.0,0.0,0.0,0.0,0.0,0.0,0.0,0.0,0.0,0.0,0.0,0.0,0.0,0.0,0.0,0.0,-1.4512,-1.5273,-1.7187,-1.7754,-1.8008,-1.8008,-1.7031,-1.6133,-1.5449,-1.3828,0.0,0.0,0.0,0.0,0.0,0.0,0.0,0.0,0.0,0.0,0.0,0.0,0.0,0.0,0.0,0.0,0.0,0.0,0.0,0.0,0.0,0.0,0.0,0.0,0.0,0.0,0.0,0.0,0.0,0.0,0.0,0.0,0.0,0.0,0.0,0.0,0.0,0.0,0.0,0.0,0.0,0.0,0.0,0.0,0.0,0.0,0.0,0.0,0.0,0.0,0.0,0.0,0.0,0.0,0.0,0.0,0.0,0.0,0.0,0.0,0.0,0.0,0.0,0.0,0.0,0.0,0.0,0.0,0.0,0.0,0.0,0.0,0.0,0.0,0.0,0.0,0.0,0.0,0.0,0.0,0.0,0.0,0.0,0.0,0.0,0.0,0.0,0.0,0.0,0.0,0.0,0.0,0.0,0.0,0.0,0.0,0.0,0.0,0.0,0.0,0.0,0.0,-1.6081,-1.6355,-1.7435,-1.7812,-1.8008,-1.8008,-1.7129,-1.625,-1.5469,-1.373,0.0,0.0,0.0,0.0,0.0,0.0,0.0,0.0,0.0,0.0,0.0,0.0,0.0,0.0,0.0,0.0,0.0,0.0,0.0,0.0,0.0,0.0,0.0,0.0,0.0,0.0,0.0,0.0,0.0,0.0,0.0,0.0,0.0,0.0,0.0,0.0,0.0,0.0,0.0,0.0,0.0,0.0,0.0,0.0,0.0,0.0,0.0,0.0,0.0,0.0,0.0,0.0,0.0,0.0,0.0,0.0,0.0,0.0,0.0,0.0,0.0,0.0,0.0,0.0,0.0,0.0,0.0,0.0,0.0,0.0,0.0,0.0,0.0,0.0,0.0,0.0,0.0,0.0,0.0,0.0,0.0,0.0,0.0,0.0,0.0,0.0,0.0,0.0,0.0,0.0,0.0,0.0,0.0,0.0,0.0,0.0,0.0,0.0,0.0,0.0,0.0,0.0,-1.6846,-1.7727,-1.7939,-1.7988,-1.8008,-1.8008,-1.6868,-1.5948,-1.5449,-1.3412,0.0,0.0,0.0,0.0,0.0,0.0,0.0,0.0,0.0,0.0,0.0,0.0,0.0,0.0,0.0,0.0,0.0,0.0,0.0,0.0,0.0,0.0,0.0,0.0,0.0,0.0,0.0,0.0,0.0,0.0,0.0,0.0,0.0,0.0,0.0,0.0,0.0,0.0,0.0,0.0,0.0,0.0,0.0,0.0,0.0,0.0,0.0,0.0,0.0,0.0,0.0,0.0,0.0,0.0,0.0,0.0,0.0,0.0,0.0,0.0,0.0,0.0,0.0,0.0,0.0,0.0,0.0,0.0,0.0,0.0,0.0,0.0,0.0,0.0,0.0,0.0,0.0,0.0,0.0,0.0,0.0,0.0,0.0,0.0,0.0,0.0,0.0,0.0,0.0,0.0,0.0,0.0,0.0,0.0,0.0,0.0,0.0,0.0,0.0,0.0,0.0,0.0,-1.7759,-1.8155,0.0,-1.8327,-1.8008,-1.8008,-1.707,-1.6172,-1.5449,0.0,0.0,0.0,0.0,0.0,0.0,0.0,0.0,0.0,0.0,0.0,0.0,0.0,0.0,0.0,0.0,0.0,0.0,0.0,0.0,0.0,0.0,0.0,0.0,0.0,0.0,0.0,0.0,0.0,0.0,0.0,0.0,0.0,0.0,0.0,0.0,0.0,0.0,0.0,0.0,0.0,0.0,0.0,0.0,0.0,0.0,0.0,0.0,0.0,0.0,0.0,0.0,0.0,0.0,0.0,0.0,0.0,0.0,0.0,0.0,0.0,0.0,0.0,0.0,0.0,0.0,0.0,0.0,0.0,0.0,0.0,0.0,0.0,0.0,0.0,0.0,0.0,0.0,0.0,0.0,0.0,0.0,0.0,0.0,0.0,0.0,0.0,0.0,0.0,0.0,0.0,0.0,0.0,0.0,0.0,0.0,0.0,0.0,0.0,0.0,0.0,0.0,-1.8398,-1.8688,-1.8881,0.0,-1.8616,-1.8144,-1.8027,-1.709,-1.6152,-1.5273,0.0,0.0,0.0,0.0,0.0,0.0,0.0,0.0,0.0,0.0,0.0,0.0,0.0,0.0,0.0,0.0,0.0,0.0,0.0,0.0,0.0,0.0,0.0,0.0,0.0,0.0,0.0,0.0,0.0,0.0,0.0,0.0,0.0,0.0,0.0,0.0,0.0,0.0,0.0,0.0,0.0,0.0,0.0,0.0,0.0,0.0,0.0,0.0,0.0,0.0,0.0,0.0,0.0,0.0,0.0,0.0,0.0,0.0,0.0,0.0,0.0,0.0,0.0,0.0,0.0,0.0,0.0,0.0,0.0,0.0,0.0,0.0,0.0,0.0,0.0,0.0,0.0,0.0,0.0,0.0,0.0,0.0,0.0,0.0,0.0,0.0,0.0,0.0,0.0,0.0,0.0,0.0,0.0,0.0,0.0,0.0,0.0,0.0,0.0,0.0,0.0,0.0,-1.8522,-1.9688,-2.0139,-1.9408,-1.8877,-1.8442,-1.8047,-1.6848,-1.5733,0.0,0.0,0.0,0.0,0.0,0.0,0.0,0.0,0.0,0.0,0.0,0.0,0.0,0.0,0.0,0.0,0.0,0.0,0.0,0.0,0.0,0.0,0.0,0.0,0.0,0.0,0.0,0.0,0.0,0.0,0.0,0.0,0.0,0.0,0.0,0.0,0.0,0.0,0.0,0.0,0.0,0.0,0.0,0.0,0.0,0.0,0.0,0.0,0.0,0.0,0.0,0.0,0.0,0.0,0.0,0.0,0.0,0.0,0.0,0.0,0.0,0.0,0.0,0.0,0.0,0.0,0.0,0.0,0.0,0.0,0.0,0.0,0.0,0.0,0.0,0.0,0.0,0.0,0.0,0.0,0.0,0.0,0.0,0.0,0.0,0.0,0.0,0.0,0.0,0.0,0.0,0.0,0.0,0.0,0.0,0.0,0.0,0.0,0.0,0.0,0.0,0.0,0.0,-1.9897,-2.1206,-2.1799,-2.1273,-2.0257,-1.932,-1.8492,-1.7266,-1.6152,-1.5273,0.0,0.0,0.0,0.0,0.0,0.0,0.0,0.0,0.0,0.0,0.0,0.0,0.0,0.0,0.0,0.0,0.0,0.0,0.0,0.0,0.0,0.0,0.0,0.0,0.0,0.0,0.0,0.0,0.0,0.0,0.0,0.0,0.0,0.0,0.0,0.0,0.0,0.0,0.0,0.0,0.0,0.0,0.0,0.0,0.0,0.0,0.0,0.0,0.0,0.0,0.0,0.0,0.0,0.0,0.0,0.0,0.0,0.0,0.0,0.0,0.0,0.0,0.0,0.0,0.0,0.0,0.0,0.0,0.0,0.0,0.0,0.0,0.0,0.0,0.0,0.0,0.0,0.0,0.0,0.0,0.0,0.0,0.0,0.0,0.0,0.0,0.0,0.0,0.0,0.0,0.0,0.0,0.0,0.0,0.0,0.0,0.0,0.0,0.0,0.0,0.0,0.0,-2.049,-2.2001,-2.2704,-2.207,-2.1047,-1.9879,-1.8688,-1.7428,-1.6258,-1.5234,0.0,0.0,0.0,0.0,0.0,0.0,0.0,0.0,0.0,0.0,0.0,0.0,0.0,0.0,0.0,0.0,0.0,0.0,0.0,0.0,0.0,0.0,0.0,0.0,0.0,0.0,0.0,0.0,0.0,0.0,0.0,0.0,0.0,0.0,0.0,0.0,0.0,0.0,0.0,0.0,0.0,0.0,0.0,0.0,0.0,0.0,0.0,0.0,0.0,0.0,0.0,0.0,0.0,0.0,0.0,0.0,0.0,0.0,0.0,0.0,0.0,0.0,0.0,0.0,0.0,0.0,0.0,0.0,0.0,0.0,0.0,0.0,0.0,0.0,0.0,0.0,0.0,0.0,0.0,0.0,0.0,0.0,0.0,0.0,0.0,0.0,0.0,0.0,0.0,0.0,0.0,0.0,0.0,0.0,0.0,0.0,0.0,0.0,0.0,0.0,0.0,0.0,-2.0541,-2.2347,-2.3146,-2.2365,-2.1498,-2.0392,-1.8942,-1.7592,-1.6289,-1.498,0.0,0.0,0.0,0.0,0.0,0.0,0.0,0.0,0.0,0.0,0.0,0.0,0.0,0.0,0.0,0.0,0.0,0.0,0.0,0.0,0.0,0.0,0.0,0.0,0.0,0.0,0.0,0.0,0.0,0.0,0.0,0.0,0.0,0.0,0.0,0.0,0.0,0.0,0.0,0.0,0.0,0.0,0.0,0.0,0.0,0.0,0.0,0.0,0.0,0.0,0.0,0.0,0.0,0.0,0.0,0.0,0.0,0.0,0.0,0.0,-2.1524,0.0,0.0,0.0,0.0,0.0,0.0,0.0,0.0,0.0,0.0,0.0,0.0,0.0,0.0,0.0,0.0,0.0,0.0,0.0,0.0,0.0,0.0,0.0,0.0,0.0,0.0,0.0,0.0,0.0,0.0,0.0,0.0,0.0,0.0,0.0,0.0,0.0,0.0,0.0,0.0,0.0,-2.1069,-2.3169,-2.445,-2.4354,-2.3231,-2.1887,-2.0427,-1.8708,-1.7187,-1.5909,-1.3852,0.0,0.0,0.0,0.0,0.0,0.0,0.0,0.0,0.0,0.0,0.0,0.0,0.0,0.0,0.0,0.0,0.0,0.0,0.0,0.0,0.0,0.0,0.0,0.0,0.0,0.0,0.0,0.0,0.0,0.0,0.0,0.0,0.0,0.0,0.0,0.0,0.0,0.0,0.0,0.0,0.0,0.0,0.0,0.0,0.0,0.0,0.0,0.0,0.0,0.0,0.0,0.0,0.0,0.0,0.0,0.0,0.0,0.0,0.0,0.0,-2.3719,0.0,0.0,0.0,0.0,0.0,0.0,0.0,0.0,0.0,0.0,0.0,0.0,0.0,0.0,0.0,0.0,0.0,0.0,0.0,0.0,0.0,0.0,0.0,0.0,0.0,0.0,0.0,0.0,0.0,0.0,0.0,0.0,0.0,0.0,0.0,0.0,0.0,0.0,0.0,0.0,-2.1242,-2.3427,-2.4872,-2.4968,-2.3743,-2.2413,-2.121,-1.9188,-1.7637,-1.6789,-1.4888,0.0,0.0,0.0,0.0,0.0,0.0,0.0,0.0,0.0,0.0,0.0,0.0,0.0,0.0,0.0,0.0,0.0,0.0,0.0,0.0,0.0,0.0,0.0,0.0,0.0,0.0,0.0,0.0,0.0,0.0,0.0,0.0,0.0,0.0,0.0,0.0,0.0,0.0,0.0,0.0,0.0,0.0,0.0,0.0,0.0,0.0,0.0,0.0,0.0,0.0,0.0,0.0,0.0,-2.8094,-2.8821,-2.9045,-3.0316,-3.1224,-3.1688,-2.9998,-2.8563,-2.7378,-2.6012,0.0,0.0,0.0,0.0,0.0,0.0,0.0,0.0,0.0,0.0,0.0,0.0,0.0,0.0,0.0,0.0,0.0,0.0,0.0,0.0,0.0,0.0,0.0,0.0,-2.4381,-2.4424,-2.1039,0.0,0.0,0.0,0.0,0.0,0.0,0.0,0.0,0.0,0.0,0.0,-2.1543,-2.3627,-2.5037,-2.5239,-2.3906,-2.2648,-2.1731,-1.9601,-1.8105,-1.7519,-1.6105,-1.4696,0.0,0.0,0.0,0.0,0.0,0.0,0.0,0.0,0.0,0.0,0.0,0.0,0.0,0.0,0.0,0.0,0.0,0.0,0.0,0.0,0.0,0.0,0.0,0.0,0.0,0.0,0.0,0.0,0.0,0.0,0.0,0.0,-2.0465,-2.0991,0.0,0.0,0.0,0.0,0.0,0.0,0.0,0.0,0.0,0.0,0.0,0.0,0.0,-2.6248,-2.6841,-2.9302,-3.0829,-3.1453,-3.3502,-3.4821,-3.5377,-3.562,-3.5981,-3.6531,-3.7149,0.0,-3.1206,-2.9194,0.0,0.0,0.0,0.0,0.0,0.0,0.0,0.0,0.0,0.0,0.0,0.0,0.0,0.0,0.0,0.0,0.0,0.0,0.0,0.0,0.0,0.0,-2.7985,-2.7469,-2.7519,-2.7268,0.0,-2.3221,-2.0672,-1.8992,-1.7918,0.0,0.0,0.0,0.0,0.0,0.0,0.0,-2.2619,-2.4431,-2.5703,-2.6252,-2.4565,-2.322,-2.2724,-2.0834,-1.916,-1.8008,-1.7363,-1.6445,-1.5137,-1.3613,0.0,0.0,0.0,0.0,0.0,0.0,0.0,0.0,0.0,0.0,0.0,0.0,0.0,0.0,0.0,0.0,0.0,0.0,0.0,0.0,0.0,0.0,0.0,0.0,0.0,0.0,0.0,0.0,0.0,-2.1039,-2.2531,-2.2002,-2.2674,-2.2429,0.0,0.0,0.0,0.0,0.0,0.0,0.0,0.0,0.0,-2.7985,-2.8549,-2.9821,-3.1941,-3.2539,-3.3427,-3.4656,-3.5621,-3.6289,-3.6564,-3.7826,-3.8513,-3.8808,-3.9886,-3.9186,-3.7063,-3.3589,-3.0791,-2.8552,0.0,0.0,0.0,0.0,-2.6251,-2.6123,-2.7303,-2.7344,-2.6841,-2.6716,0.0,0.0,0.0,0.0,0.0,0.0,0.0,0.0,0.0,0.0,-2.9277,-2.8699,-2.9051,-2.9202,-2.8097,-2.6465,-2.4442,0.0,-2.1481,-2.0419,-1.6663,0.0,0.0,0.0,0.0,-2.1794,-2.3401,-2.4782,-2.5812,-2.6424,-2.4684,-2.3436,-2.327,-2.118,-1.957,-1.8769,-1.8105,-1.7266,-1.6161,-1.4961,-1.3657,0.0,0.0,0.0,0.0,0.0,0.0,0.0,0.0,0.0,0.0,0.0,0.0,0.0,0.0,0.0,0.0,0.0,0.0,0.0,0.0,0.0,0.0,0.0,0.0,0.0,0.0,0.0,0.0,-2.2994,-2.4477,-2.3487,-2.4864,-2.4834,0.0,0.0,0.0,0.0,0.0,0.0,-2.748,-2.8334,-2.9732,-3.1807,-3.2051,-3.3446,-3.6228,-3.5748,-3.6114,-3.738,-3.7702,-3.7792,-3.7809,-3.9354,-4.0192,-4.0516,-4.1155,-4.1543,-4.1368,-3.7442,-3.4297,-3.1853,-3.0286,-2.908,-2.8341,-2.9475,-2.9527,-2.9263,-3.0867,-3.1009,-3.0306,-2.9779,-2.8825,-2.7595,-2.5812,0.0,0.0,0.0,0.0,-2.7447,-2.8156,-2.9377,-3.0306,-2.9841,-3.0367,-3.0708,-2.9565,-2.9026,-2.7846,0.0,-2.46,-2.3723,-1.9624,0.0,0.0,0.0,0.0,-2.2979,-2.427,-2.4909,-2.5512,-2.6208,-2.4634,-2.3526,-2.3526,-2.1611,-2.0145,-1.9509,-1.875,-1.7949,-1.7058,-1.618,-1.4994,-1.3418,0.0,0.0,0.0,0.0,0.0,0.0,0.0,0.0,0.0,0.0,0.0,0.0,0.0,0.0,0.0,0.0,0.0,0.0,0.0,0.0,0.0,0.0,0.0,0.0,0.0,0.0,0.0,0.0,0.0,-2.6298,-2.7253,0.0,0.0,0.0,0.0,-2.6942,-2.8072,-2.9139,-3.0357,-3.1913,-3.3598,-3.5294,-3.5891,-3.6807,-3.8048,-3.9139,-3.9704,-3.9743,-4.0873,-4.1351,-4.1233,-4.0835,-4.1247,-4.2209,-4.1801,-4.1876,-4.2154,-3.9779,-3.7727,-3.5963,-3.4312,-3.237,-3.0572,-3.1653,-3.1703,-3.1477,-3.3144,-3.3018,-3.2265,-3.3269,-3.1813,-2.9553,-2.8838,-2.7921,0.0,0.0,-2.8762,-2.9868,-3.0909,-3.1637,-3.2089,-3.2064,-3.2089,-3.1838,-3.0758,-3.0507,-2.9804,0.0,-2.6264,-2.4995,-2.3133,0.0,-2.2939,-2.2834,-2.2965,-2.3681,-2.5312,-2.4788,-2.4611,-2.5546,-2.4347,-2.3526,-2.3526,-2.252,-2.1319,-1.994,-1.9473,-1.8848,-1.7988,-1.7096,-1.62,-1.5274,-1.4055,0.0,0.0,0.0,0.0,0.0,0.0,0.0,0.0,0.0,0.0,0.0,0.0,0.0,0.0,0.0,0.0,0.0,0.0,0.0,0.0,0.0,0.0,0.0,0.0,0.0,0.0,0.0,0.0,-2.7996,-2.9026,0.0,-2.7835,-2.8072,-2.8599,-2.9377,-3.0783,-3.2244,-3.3747,-3.5089,-3.669,-3.8351,-3.9038,-4.0126,-4.1668,-4.1327,-4.1107,-4.1073,-4.2322,-4.2474,-4.1635,-4.2193,-4.3099,-4.4192,-4.3211,-4.3345,-4.4086,-4.2123,-3.982,-3.7386,-3.6094,-3.4666,-3.3251,-3.3696,-3.3696,-3.3621,-3.4223,-3.4173,-3.3771,-3.347,-3.2692,-3.1738,-3.0809,-3.0231,-3.003,-3.0583,-3.1035,-3.1436,-3.1813,-3.234,-3.2591,-3.1863,-3.1687,-3.1486,-3.0758,-3.0331,-2.9854,-2.9051,-2.8273,-2.7097,-2.5046,-2.5328,-2.531,-2.39,-2.427,-2.4798,-2.5044,-2.479,-2.4601,-2.4664,-2.4258,-2.3563,-2.2622,-2.2226,-2.1275,-1.9625,-1.9375,-1.8906,-1.8047,-1.7461,-1.6738,-1.587,-1.5117,-1.375,0.0,0.0,0.0,0.0,0.0,0.0,0.0,0.0,0.0,0.0,0.0,0.0,0.0,0.0,0.0,0.0,0.0,0.0,0.0,0.0,0.0,0.0,0.0,0.0,0.0,0.0,-2.9277,-2.9439,-3.0809,-3.1286,-3.0116,-3.0733,-3.1691,-3.2854,-3.411,-3.5626,-3.7322,-3.8378,-3.9612,-4.1165,-4.1674,-4.2623,-4.415,-4.3602,-4.3069,-4.2604,-4.3681,-4.3319,-4.1712,-4.225,-4.298,-4.3644,-4.262,-4.289,-4.3934,-4.2696,-4.0793,-3.8542,-3.7483,-3.6185,-3.4981,-3.5203,-3.5152,-3.4956,-3.4956,-3.4956,-3.4806,-3.3922,-3.3621,-3.347,-3.2516,-3.224,-3.2265,-3.2466,-3.2516,-3.2516,-3.2516,-3.2792,-3.2842,-3.1888,-3.1662,-3.1461,-3.0758,-3.0331,-3.0005,-2.9829,-2.9478,-2.8674,-2.7017,-2.7344,-2.7209,-2.5409,-2.5382,-2.5417,-2.485,-2.4344,-2.4049,-2.4102,-2.3853,-2.3297,-2.2328,-2.1975,-2.1147,-1.9605,-1.9219,-1.875,-1.8047,-1.7598,-1.7005,-1.6105,-1.5352,-1.406,-1.2229,0.0,0.0,0.0,0.0,0.0,0.0,0.0,0.0,0.0,0.0,0.0,0.0,0.0,0.0,0.0,0.0,0.0,0.0,0.0,0.0,0.0,0.0,0.0,-2.6524,-2.9416,-3.126,-3.0809,-3.2667,-3.3545,-3.2466,-3.337,-3.5002,-3.7352,-3.8023,-3.9141,-4.0963,-4.1574,-4.243,-4.3632,-4.3705,-4.4251,-4.5364,-4.6022,-4.5693,-4.4451,-4.5101,-4.4069,-4.164,-4.1059,-4.0773,-4.0649,-4.007,-4.0515,-4.1571,-4.1498,-4.0835,-3.9702,-3.8563,-3.7071,-3.5608,-3.6182,-3.6031,-3.5533,-3.5533,-3.5533,-3.5433,-3.4881,-3.4705,-3.4605,-3.4098,-3.3922,-3.3796,-3.3269,-3.3093,-3.3093,-3.3093,-3.3111,-3.2943,-3.2365,-3.2215,-3.1938,-3.0884,-3.0633,-3.0457,-2.993,-2.9804,-2.9603,-2.9013,-2.8913,-2.8548,-2.7502,-2.6381,0.0,-2.4851,-2.3481,-2.2901,-2.3867,-2.3238,-2.2733,-2.2652,-2.1891,-2.0962,-1.994,-1.9046,-1.8403,-1.8027,-1.7598,-1.7005,-1.6124,-1.4824,-1.3542,-1.2345,0.0,0.0,0.0,0.0,0.0,0.0,0.0,0.0,0.0,0.0,0.0,0.0,0.0,0.0,0.0,0.0,0.0,0.0,0.0,0.0,0.0,-2.6992,-2.9151,-2.89,-3.0658,-3.2541,-3.3978,-3.468,-3.5232,-3.578,-3.6107,-3.6922,-3.8523,-3.917,-4.0467,-4.2794,-4.3481,-4.4384,-4.5513,-4.6043,-4.644,-4.677,-4.695,-4.6372,-4.5129,-4.5302,-4.4535,-4.293,-4.1874,-4.1892,-4.2637,-4.1559,-4.1818,-4.2857,-4.1551,-4.0819,-4.0377,-3.9143,-3.7873,-3.6709,-3.6505,-3.6329,-3.6132,-3.6132,-3.6132,-3.6056,-3.5458,-3.5282,-3.5182,-3.463,-3.45,-3.4374,-3.3822,-3.3671,-3.3571,-3.3194,-3.3111,-3.3086,-3.2867,-3.2516,-3.2139,-3.1838,-3.116,-3.0583,-3.0407,-3.0055,-2.9754,-2.9578,-2.9553,-2.9181,-2.8052,-2.695,0.0,-2.4935,-2.37,-2.2938,-2.2921,-2.335,-2.3082,-2.175,-2.1747,-2.1168,-1.9566,-1.8652,-1.8125,-1.8008,-1.7598,-1.7129,-1.6562,-1.5537,-1.4379,0.0,0.0,0.0,0.0,0.0,0.0,0.0,0.0,0.0,0.0,0.0,0.0,0.0,0.0,0.0,0.0,0.0,0.0,0.0,0.0,0.0,0.0,-2.9528,-3.1587,-3.2416,-3.3345,-3.4424,-3.573,-3.6282,-3.6835,-3.7462,-3.7538,-3.8412,-4.046,-4.0904,-4.227,-4.4982,-4.5537,-4.6034,-4.6698,-4.71,-4.7309,-4.7309,-4.677,-4.6121,-4.5389,-4.4886,-4.3929,-4.2689,-4.1936,-4.169,-4.1887,-4.1119,-4.1219,-4.1811,-4.0754,-4.0352,0.0,0.0,0.0,0.0,0.0,-3.6606,-3.6405,-3.6405,-3.6405,-3.6355,-3.5981,-3.5881,-3.578,-3.5182,-3.5031,-3.4906,-3.4399,-3.4073,-3.3822,-3.3495,-3.3244,-3.3111,-3.3111,-3.2817,-3.2516,-3.2265,-3.1712,-3.116,-3.0708,-3.0357,0.0,-2.9829,-2.9804,-2.9404,-2.8267,-2.7562,-2.6584,-2.4999,-2.4211,-2.3527,-2.2836,-2.3108,-2.2914,-2.1858,-2.1549,0.0,0.0,0.0,-1.8105,-1.7754,-1.7344,0.0,0.0,0.0,0.0,0.0,0.0,0.0,0.0,-1.3747,-1.3858,0.0,0.0,0.0,0.0,0.0,0.0,0.0,0.0,0.0,0.0,0.0,0.0,0.0,0.0,0.0,0.0,-3.1813,-3.3545,-3.6078,-3.6581,-3.6681,-3.6681,-3.7513,-3.814,-3.8191,-3.8339,-3.9596,-4.2554,-4.2935,-4.4243,-4.7149,0.0,0.0,0.0,0.0,-4.7222,-4.7062,-4.5958,-4.5343,-4.5161,-4.3882,-4.2689,-4.1591,-4.1468,-4.0794,-3.9697,-3.9697,-3.9697,-3.9697,-3.9697,-3.9697,-3.9597,-3.8517,-3.8065,-3.7939,-3.7462,-3.696,-3.6581,-3.6531,0.0,0.0,-3.643,-3.6405,-3.6329,-3.578,-3.5583,-3.5483,-3.4931,-3.4449,-3.4048,-3.3922,-3.3545,-3.3144,-3.3093,-3.3111,-3.2943,-3.2416,-3.2265,-3.1938,-3.0984,-3.0708,-3.0457,-2.998,-2.9829,-2.9443,-2.8426,-2.8164,-2.7377,-2.5399,-2.4957,-2.4425,-2.3387,0.0,0.0,-2.2519,-2.1406,-2.0703,-2.0605,-1.9394,-1.8359,-1.7559,-1.7207,-1.696,-1.6921,-1.7324,-1.75,-1.7461,-1.7871,-1.8086,-1.8013,-1.5927,-1.5654,0.0,0.0,0.0,0.0,0.0,0.0,0.0,0.0,0.0,0.0,0.0,0.0,0.0,0.0,0.0,-3.106,-3.3671,-3.5801,-3.6307,-3.7538,-3.8441,-3.8441,-3.8617,-3.8868,-3.932,-4.0308,-4.1595,-4.3216,-4.4319,-4.5618,-4.7193,-4.7309,-4.7309,-4.7309,-4.7309,-4.6814,-4.5779,-4.5553,-4.4886,-4.3834,0.0,0.0,-4.1541,-4.0567,-3.9929,-3.9697,-3.9697,-3.9697,-3.9697,-3.9697,-3.9697,-3.9622,-3.8969,-3.8417,-3.799,-3.7889,-3.7789,-3.7638,-3.7186,-3.7036,-3.696,-3.6556,-3.6405,-3.638,-3.6279,-3.6207,0.0,-3.5483,-3.5257,-3.4981,-3.4123,-3.3822,-3.3621,-3.3194,-3.3111,-3.3086,-3.2943,-3.2541,-3.2164,-3.1938,-3.121,-3.0583,-3.0482,-3.008,-2.9702,-2.9482,-2.8688,-2.7964,-2.7522,-2.59,-2.4702,-2.451,-2.3567,-2.2847,-2.2539,-2.1973,-2.1368,-2.0644,-1.9687,-1.8926,-1.8383,-1.8652,-1.8633,-1.8247,-1.8325,-1.8223,-1.7891,-1.8286,-1.8481,-1.8461,-1.7678,-1.7498,0.0,0.0,0.0,0.0,0.0,0.0,0.0,0.0,0.0,0.0,0.0,-2.7293,-2.8674,0.0,-3.229,-3.369,-3.5324,-3.6707,-3.7513,-3.8341,-3.8919,-3.8919,-3.912,-3.9396,-3.9672,-4.0844,-4.2133,-4.3409,-4.4674,-4.5958,-4.7222,-4.7309,-4.7309,-4.7309,-4.7309,-4.6682,-4.5389,-4.4794,-4.3834,-4.2544,-4.1269,-4.0642,-4.0642,-3.9981,-3.9697,-3.9697,-3.9697,-3.9697,-3.9697,-3.9697,-3.9697,-3.9672,-3.9396,-3.8944,-3.8442,-3.8442,-3.8266,-3.7965,-3.7688,-3.7412,-3.7136,-3.6908,-3.6631,-3.6405,-3.6405,-3.6405,-3.6355,-3.6031,-3.5708,-3.5382,-3.4831,-3.4299,-3.3822,-3.3545,-3.3312,-3.3111,-3.3111,-3.2842,-3.2566,-3.2265,-3.1788,-3.1235,-3.0708,-3.0382,-3.0105,-2.9829,-2.9326,-2.8727,-2.8164,-2.7134,-2.6232,-2.5714,-2.4638,-2.3872,-2.3649,-2.276,-2.1836,-2.0957,-2.0508,-2.0059,-1.9609,-1.9805,-1.9824,-1.9609,-1.9787,-1.9787,-1.9592,-2.0059,-2.0254,-2.0254,-2.0039,-1.9707,0.0,0.0,0.0,0.0,0.0,0.0,0.0,0.0,-2.5586,-2.7278,-2.8825,-3.0306,-3.1637,-3.2893,-3.4343,-3.6128,-3.6681,-3.736,-3.8718,-3.902,-3.912,-3.9398,-3.9804,-3.9981,-3.9749,-4.1319,-4.2641,-4.3456,-4.4932,-4.6211,-4.7266,-4.7309,-4.7309,-4.7309,-4.7309,-4.6682,-4.5389,-4.4396,-4.3122,-4.1591,-4.0541,-3.9929,-3.9697,-3.9697,-3.9697,-3.9697,-3.9697,-3.9697,-3.9697,-3.9697,-3.9697,-3.9697,-3.9697,-3.9421,-3.907,-3.907,-3.8743,-3.8316,-3.8216,-3.7889,-3.7487,-3.7262,-3.6933,-3.6556,-3.643,-3.6405,-3.6405,-3.6405,-3.6031,-3.5633,-3.5533,-3.4831,-3.4173,-3.3947,-3.3571,-3.3219,-3.3093,-3.3111,-3.2943,-3.2466,-3.229,-3.1938,-3.1085,-3.0758,-3.0432,-2.988,-2.9804,-2.9482,-2.8545,-2.8267,-2.7763,-2.6871,-2.5588,-2.4702,-2.451,-2.3248,-2.2207,-2.1483,-2.1366,-2.1191,-2.0879,-2.086,-2.086,-2.086,-2.1172,-2.1327,-2.1327,-2.1719,-2.1894,-2.1894,-2.1973,-2.1582,-2.4381,-2.3376,-2.3446,-2.4883,-2.4883,-2.5586,0.0,0.0,-2.9603,-3.1235,-3.2516,-3.3395,-3.3596,-3.4926,-3.6128,-3.6355,-3.7662,-3.8718,-3.8894,-3.9295,-4.0033,-4.1165,-4.1366,-4.0945,-3.98,-4.2882,-4.4535,-4.3551,-4.5734,-4.7149,-4.7309,-4.7309,-4.7309,-4.7309,-4.7309,-4.6682,-4.5389,-4.5252,-4.3975,-4.1591,-4.1468,-4.0794,-3.9697,-3.9697,-3.9697,-3.9697,-3.9697,-3.9697,-3.9697,-3.9697,-3.9697,-3.9697,-3.9697,-3.9647,-3.9597,-3.9597,-3.9572,-3.9446,-3.8944,-3.8793,-3.8517,-3.7513,-3.7136,-3.701,-3.6556,-3.6405,-3.6405,-3.6405,-3.6355,-3.6157,-3.5633,-3.5408,-3.5082,-3.4123,-3.3847,-3.3671,-3.3194,-3.3111,-3.3068,-3.2993,-3.2566,-3.2164,-3.2064,-3.1235,-3.0432,-2.988,-2.9804,-2.974,-2.9624,-2.8727,-2.8044,-2.7924,-2.6066,-2.4382,-2.3387,-2.2797,-2.248,-2.2383,-2.2012,-2.1797,-2.1738,-2.1738,-2.1738,-2.1738,-2.1797,-2.1816,-2.1816,-2.1855,-2.1894,-2.1894,-2.2266,-2.2187,-2.7695,-2.6907,-2.6806,-2.8172,-2.8574,-2.9302,-3.1813,-3.2014,-3.2089,-3.3395,-3.4254,-3.4806,-3.4806,-3.5931,-3.7222,0.0,-3.934,-4.0389,-4.144,-4.1435,-4.1528,-4.2031,-4.1829,-4.1692,-4.1906,-4.3361,-4.4396,-4.4581,-4.6299,-4.7309,-4.7309,-4.7309,-4.7309,-4.7309,-4.7309,-4.6682,-4.5389,-4.4627,-4.3409,-4.1591,-4.0844,-4.0211,-3.9697,-3.9697,-3.9697,-3.9697,-3.9697,-3.9697,-3.9697,-3.9697,-3.9697,-3.9697,-3.9697,-3.9697,-3.9697,-3.9697,-3.9697,-3.9672,-3.9421,-3.9145,-3.8844,-3.8316,-3.7713,-3.7136,-3.691,-3.6656,-3.6405,-3.6405,-3.6405,-3.6355,-3.6081,-3.578,-3.5382,-3.4931,-3.4374,-3.3847,-3.3596,-3.3294,-3.3111,-3.3111,-3.2893,-3.2616,-3.2265,-3.1838,-3.126,-3.0407,-3.0005,-2.9585,-2.8885,-2.8988,-2.8609,-2.7319,-2.5755,-2.4339,-2.3212,-2.2945,-2.2828,-2.2828,-2.2672,-2.2617,-2.2617,-2.2617,-2.2617,-2.2617,-2.2617,-2.2617,-2.2617,-2.2617,-2.2617,-2.2617,-2.275,-2.2773,-2.9732,-2.982,-3.0151,-3.1397,-3.214,-3.2816,-3.3785,-3.3882,-3.3972,-3.4731,-3.5332,-3.578,-3.578,-3.6533,-3.782,-3.9601,-4.0399,-4.1416,-4.3278,-4.2649,-4.2117,-4.2251,-4.1221,-4.1194,-4.3092,-4.3622,-4.4273,-4.5343,-4.6594,-4.7309,-4.7309,-4.7309,-4.7309,-4.7309,-4.7309,-4.6887,-4.5913,-4.5024,-4.3929,-4.2641,-4.1369,-4.0541,-4.0211,-3.9826,-3.9697,-3.9697,-3.9697,-3.9697,-3.9697,-3.9697,-3.9697,-3.9697,-3.9697,-3.9697,-3.9697,-3.9697,-3.9697,-3.9697,-3.9697,-3.9421,-3.9069,-3.8969,-3.8366,-3.7588,-3.7287,-3.6958,-3.6606,-3.6455,-3.6405,-3.6405,-3.6405,-3.6081,-3.5683,-3.5533,-3.4881,-3.4274,-3.3972,-3.3596,-3.3269,-3.3119,-3.3111,-3.2943,-3.2516,-3.2315,-3.1964,-3.116,-3.0457,-2.9539,-2.8267,-2.8569,-2.8171,-2.6213,-2.5294,-2.4339,-2.3212,-2.3101,-2.3101,-2.3101,-2.3101,-2.3101,-2.3101,-2.3101,-2.3101,-2.3101,-2.3101,-2.3101,-2.3101,-2.3101,-2.3101,-2.3101,-2.3101,-2.3101,-2.9556,-3.0937,-3.2573,-3.4185,-3.5033,-3.5643,-3.625,-3.5884,-3.5433,-3.5458,-3.5956,-3.638,-3.638,-3.6857,-3.782,-3.9601,-4.0399,-4.1416,-4.3278,-4.1935,-4.1084,-4.1763,-3.9186,-3.8751,0.0,-4.3834,-4.48,-4.536,-4.6594,-4.7309,-4.7309,-4.7309,-4.7309,-4.7309,-4.7309,-4.7266,-4.7266,-4.7222,-4.655,-4.5252,-4.3975,-4.2738,-4.1518,-4.0262,-3.9697,-3.9697,-3.9697,-3.9697,-3.9697,-3.9697,-3.9697,-3.9697,-3.9697,-3.9697,-3.9697,-3.9697,-3.9697,-3.9697,-3.9697,-3.9697,-3.9572,-3.9095,-3.8894,-3.8617,-3.7513,-3.7186,-3.7036,-3.6556,-3.6405,-3.6405,-3.6405,-3.6405,-3.6207,-3.5633,-3.5483,-3.5157,-3.4123,-3.3897,-3.3721,-3.3194,-3.3111,-3.3111,-3.3086,-3.2591,-3.2215,-3.2164,-3.126,-2.996,-2.8315,-2.7197,-2.613,-2.4957,-2.483,-2.4339,-2.3212,-2.3101,-2.3101,-2.3101,-2.3101,-2.3101,-2.3101,-2.3101,-2.3101,-2.3101,-2.3101,-2.3101,-2.3101,-2.3101,-2.3101,-2.3101,-2.3101,-2.3101,-3.1554,-3.3225,-3.4926,-3.6579,-3.7428,-3.7783,-3.7617,-3.7998,-3.7873,-3.5927,-3.6299,-3.6664,-3.5466,-3.573,-3.7062,-4.0142,-4.1114,-4.2528,-4.5589,-4.5094,-4.4196,-4.3553,-4.1892,0.0,0.0,0.0,0.0,-4.5813,-4.6364,-4.683,-4.7279,-4.7309,-4.7309,-4.7309,-4.7309,-4.7309,-4.7309,-4.6462,-4.5824,-4.5343,-4.3266,-4.1541,-4.0313,-3.9878,-3.9697,-3.9697,-3.9697,-3.9697,-3.9697,-3.9697,-3.9697,-3.9697,-3.9697,-3.9697,-3.9697,-3.9697,-3.9697,-3.9697,-3.9697,-3.9697,-3.9672,-3.9471,-3.917,-3.8844,-3.8466,-3.7789,-3.7136,-3.696,-3.6681,-3.6405,-3.6405,-3.6405,-3.6355,-3.6132,-3.5805,-3.5408,-3.5031,-3.4424,-3.3847,-3.3671,-3.3319,-3.3111,-3.3111,-3.2918,-3.2641,-3.2265,-3.0042,-2.8333,-2.8115,-2.5839,-2.4382,-2.4745,-2.4125,-2.3517,-2.3144,-2.3101,-2.3101,-2.3101,-2.3101,-2.3101,-2.3101,-2.3101,-2.3101,-2.3101,-2.3101,-2.3101,-2.3101,-2.3101,-2.3101,-2.3101,-2.3101,-2.3101,-3.3506,-3.5394,-3.7317,-3.9202,-3.9798,-3.9858,-3.947,-3.9125,-3.8424,-3.6515,-3.6129,-3.5716,-3.4609,-3.455,-3.5884,-3.9754,-4.0824,-4.2543,-4.641,-4.601,-4.4925,-4.3874,-4.2505,-4.1849,0.0,0.0,0.0,-4.6032,-4.6279,-4.6621,-4.7279,-4.7309,-4.7309,-4.7309,-4.7309,-4.7309,-4.7309,-4.6506,-4.5824,-4.5389,-4.374,-4.2035,-4.0364,-4.0364,-4.0134,-3.9697,-3.9697,-3.9697,-3.9697,-3.9697,-3.9697,-3.9697,-3.9697,-3.9697,-3.9697,-3.9697,-3.9697,-3.9697,-3.9697,-3.9697,-3.9697,-3.9697,-3.9446,-3.912,-3.8969,-3.8416,-3.7739,-3.7538,-3.7086,-3.6707,-3.6707,-3.6556,-3.6405,-3.6405,-3.6081,-3.578,-3.5533,-3.4931,-3.4424,-3.4223,-3.3746,-3.337,-3.337,-3.3219,-3.2893,-3.229,-3.0103,-2.8299,-2.7894,-2.5401,-2.3844,-2.4168,-2.356,-2.3101,-2.3101,-2.3101,-2.3101,-2.3101,-2.3101,-2.3101,-2.3101,-2.3101,-2.3101,-2.3101,-2.3101,-2.3101,-2.3101,-2.3101,-2.3101,-2.3101,-2.3101,-2.3101,-3.5478,-3.751,-3.9779,-4.1918,-4.2067,-4.167,-4.1517,-3.9403,-3.7387,-3.7105,-3.5362,-3.3859,0.0,0.0,-3.4332,-3.8405,-3.9688,-4.1653,-4.5726,-4.4862,-4.3546,0.0,0.0,0.0,0.0,0.0,0.0,-4.6087,0.0,-4.6561,-4.7279,-4.7309,-4.7309,-4.7309,-4.7309,-4.7309,-4.7309,-4.7309,-4.6638,-4.5389,-4.5343,-4.4022,-4.169,-4.1541,-4.0895,-3.98,-3.9749,-3.9697,-3.9697,-3.9697,-3.9697,-3.9697,-3.9697,-3.9697,-3.9697,-3.9697,-3.9697,-3.9697,-3.9697,-3.9697,-3.9697,-3.9697,-3.9697,-3.9597,-3.912,-3.8944,-3.8768,-3.8216,-3.7663,-3.7211,-3.7186,-3.6832,-3.643,-3.6405,-3.6405,-3.6254,-3.5658,-3.5508,-3.5332,-3.4831,-3.4299,-3.3897,-3.3897,-3.3445,-3.2893,-3.234,-3.1345,-2.9867,-2.7635,-2.5871,-2.4402,-2.3251,-2.3101,-2.3101,-2.3101,-2.3101,-2.3101,-2.3101,-2.3101,-2.3101,-2.3101,-2.3101,-2.3101,-2.3101,-2.3101,-2.3101,-2.3101,-2.3101,-2.3101,-2.3101,-2.3101,-2.3101,-3.8313,-4.0188,-4.1811,-4.2802,-4.2942,-4.228,-4.0125,-3.9774,-3.87,-3.4373,-3.3762,-3.3227,0.0,0.0,0.0,-3.6749,-3.8964,0.0,-4.5726,-4.6334,0.0,-4.478,0.0,-4.4326,-4.3493,-4.4009,0.0,0.0,-4.5843,-4.6082,-4.7249,-4.7309,-4.7309,-4.7309,-4.7309,-4.7309,-4.7309,-4.7309,-4.6638,-4.5389,-4.4442,-4.3646,-4.293,-4.1019,-4.0567,-4.1069,-4.0134,-3.9697,-3.9697,-3.9697,-3.9697,-3.9697,-3.9697,-3.9697,-3.9697,-3.9697,-3.9697,-3.9697,-3.9697,-3.9697,-3.9697,-3.9697,-3.9697,-3.9672,-3.9521,-3.9195,-3.8894,-3.8693,-3.8241,-3.7688,-3.7287,-3.7086,-3.6933,-3.6505,-3.6405,-3.638,-3.6182,-3.583,-3.5458,-3.5307,-3.455,-3.3897,-3.3897,-3.3445,-3.3061,-3.2867,-3.2279,-3.0822,-2.8087,-2.6368,-2.4921,-2.3747,-2.3296,-2.3101,-2.3101,-2.3101,-2.3101,-2.3101,-2.3101,-2.3101,-2.3101,-2.3101,-2.3101,-2.3101,-2.3101,-2.3101,-2.3101,-2.3101,-2.3101,-2.3101,-2.3101,-2.3101,-3.9836,-4.1558,-4.288,-4.32,-4.312,-4.2219,-3.9601,-3.8774,-3.7282,-3.279,-3.1656,-3.0739,-2.8584,-2.9744,-3.2095,0.0,0.0,0.0,-4.5335,-4.6202,-4.6262,0.0,-4.6082,0.0,-4.4855,-4.5364,-4.5903,0.0,-4.5963,-4.6202,-4.7249,-4.7309,-4.7309,-4.7309,-4.7309,-4.7309,-4.7309,-4.7309,-4.6638,-4.5389,-4.5252,-4.4303,-4.2641,-4.1739,-4.1169,-4.0743,0.0,-3.9697,-3.9697,-3.9697,-3.9697,-3.9697,-3.9697,-3.9697,-3.9697,-3.9697,-3.9697,-3.9697,-3.9697,-3.9697,-3.9697,-3.9697,-3.9697,-3.9697,-3.9697,-3.9471,-3.922,-3.922,-3.8818,-3.8316,-3.8015,-3.7563,-3.7111,-3.6832,-3.6581,-3.6405,-3.6405,-3.6107,-3.583,-3.5533,-3.5006,-3.4474,-3.3972,-3.3646,-3.3345,-3.3162,-3.2792,-3.1804,-2.9628,-2.7721,-2.5886,-2.3988,-2.3574,-2.3296,-2.312,-2.3101,-2.3101,-2.3101,-2.3101,-2.3101,-2.3101,-2.3101,-2.3101,-2.3101,-2.3101,-2.3101,-2.3101,-2.3101,-2.3101,-2.3101,-2.3101,-2.3101,-4.0746,-4.2216,-4.329,-4.329,-4.2742,-4.1566,-3.9276,-3.69,-3.4365,-3.1419,-2.9217,-2.757,-2.6967,-2.866,-3.1135,-3.4067,0.0,-4.085,-4.4555,-4.5156,-4.5496,-4.6339,-4.6399,-4.6202,-4.5633,-4.6112,-4.6399,-4.6399,-4.6399,-4.6711,-4.7279,-4.7309,-4.7309,-4.7309,-4.7309,-4.7309,-4.7309,-4.7309,-4.6726,-4.5644,-4.6432,-4.5252,-4.235,-4.2786,-4.1985,-4.016,-3.9826,-3.9697,-3.9697,-3.9697,-3.9697,-3.9697,-3.9697,-3.9697,-3.9697,-3.9697,-3.9697,-3.9697,-3.9697,-3.9697,-3.9697,-3.9697,-3.9697,-3.9697,-3.9697,-3.9697,-3.9697,-3.9697,-3.9346,-3.902,-3.8944,-3.814,-3.7362,-3.7211,-3.681,-3.6505,-3.643,-3.6405,-3.6279,-3.5708,-3.5533,-3.5182,-3.4274,-3.3997,-3.3746,-3.3269,-3.3162,-3.2655,-3.1356,-2.9341,-2.7041,-2.4481,-2.3996,-2.3711,-2.3296,-2.3257,-2.3257,-2.3257,-2.3218,-2.3179,-2.3179,-2.312,-2.3101,-2.3101,-2.3101,-2.3101,-2.3101,-2.3101,-2.3101,-2.3101,-2.3101,-2.3101,-4.2395,-4.3081,-4.329,-4.329,-4.2197,-4.0365,-3.7625,-3.4887,0.0,0.0,-2.6662,-2.5737,-2.4757,-2.6737,-2.9454,-3.2284,-3.5278,-3.8791,-4.3228,-4.4371,-4.5303,0.0,-4.713,-4.71,-4.698,-4.707,0.0,0.0,-4.713,-4.7189,-4.7309,-4.7309,-4.7309,-4.7309,-4.7309,-4.7309,-4.7309,-4.7309,-4.7222,-4.6975,-4.507,-4.4932,-4.6166,-4.2181,-4.1269,-4.2738,-4.0592,0.0,-3.9697,-3.9697,-3.9697,-3.9697,-3.9697,-3.9697,-3.9697,-3.9697,-3.9697,-3.9697,-3.9697,-3.9697,-3.9697,-3.9697,-3.9697,-3.9697,-3.9697,-3.9697,-3.9697,-3.9697,-3.9622,-3.9446,-3.9045,-3.8718,-3.8391,-3.7412,-3.7111,-3.6958,-3.6505,-3.6405,-3.638,-3.6279,-3.5855,-3.5433,-3.5232,-3.45,-3.3872,-3.3771,-3.337,-3.2655,-3.1356,-2.9708,-2.8076,-2.6518,-2.5111,-2.4277,-2.4199,-2.4153,-2.4153,-2.4153,-2.3867,-2.3672,-2.3672,-2.332,-2.3101,-2.3101,-2.3101,-2.3101,-2.3101,-2.3101,-2.3101,-2.3101,-2.3101,-2.3101,-4.1849,-4.286,-4.329,-4.329,-4.1548,-3.9042,-3.5977,0.0,0.0,0.0,-2.428,-2.3728,-2.3226,-2.5365,0.0,-3.0627,-3.3155,-3.6524,-4.1488,-4.256,-4.3754,-4.6463,-4.71,-4.7309,0.0,-4.7309,-4.7309,-4.7309,-4.7309,-4.7309,-4.7309,-4.7309,-4.7309,-4.7309,-4.7309,-4.7309,-4.7309,-4.7309,-4.6975,-4.6299,-4.5734,-4.5389,-4.5252,-4.2786,-4.1985,-4.2398,-4.0516,-3.9697,-3.9697,-3.9697,-3.9697,-3.9697,-3.9697,-3.9697,-3.9697,-3.9697,-3.9697,-3.9697,-3.9697,-3.9697,-3.9697,-3.9697,-3.9697,-3.9697,-3.9697,-3.9697,-3.9697,-3.9697,-3.9697,-3.9647,-3.9371,-3.9094,-3.8793,-3.8191,-3.7613,-3.7036,-3.6531,-3.6405,-3.6405,-3.6405,-3.6157,-3.5881,-3.5533,-3.5056,-3.465,-3.4374,-3.3847,-3.3077,-3.183,-3.0191,-2.8562,-2.7045,-2.5611,-2.4668,-2.4434,-2.4414,-2.4414,-2.4414,-2.4238,-2.4121,-2.4121,-2.3906,-2.3809,-2.3809,-2.3594,-2.3477,-2.3477,-2.3198,-2.3218,-2.3477,-2.3477,-2.3594,-4.085,-4.235,-4.326,-4.311,-4.0871,-3.7844,-3.4643,-3.0937,0.0,-2.3654,-2.2393,-2.1995,-2.2121,-2.4072,-2.6506,0.0,-3.0956,-3.4112,-3.9562,-4.0694,-4.2245,0.0,-4.689,0.0,-4.7309,-4.7309,0.0,-4.7309,-4.7309,-4.7309,-4.7309,-4.7309,-4.7309,-4.7309,-4.7309,-4.7309,-4.7309,-4.7309,-4.677,-4.5824,-4.655,-4.5958,-4.4303,-4.374,-4.293,-4.1936,-4.0642,-3.9929,-3.9697,-3.9697,-3.9697,-3.9697,-3.9697,-3.9878,-4.0083,-3.98,-3.9878,-4.0083,-3.98,-3.9697,-3.9697,-3.9697,-3.9697,-3.9697,-3.9697,-3.9697,-3.9697,-3.9697,-3.9697,-3.9697,-3.9697,-3.9371,-3.9019,-3.8944,-3.8015,-3.7061,-3.6681,-3.648,-3.6405,-3.6405,-3.6405,-3.6279,-3.578,-3.5326,-3.4916,-3.4516,-3.3744,-3.2856,-3.1803,-3.0169,-2.859,-2.7167,-2.5953,-2.5078,-2.4727,-2.4707,-2.4707,-2.4707,-2.4609,-2.4551,-2.4551,-2.4473,-2.4414,-2.4414,-2.4102,-2.3926,-2.3926,-2.3574,-2.3594,-2.3926,-2.3926,-2.4102,-4.0531,-4.2067,-4.314,-4.265,-3.9981,-3.6772,-3.3836,0.0,-2.5239,-2.2849,-2.1543,-2.0993,-2.1468,-2.2585,0.0,0.0,-2.8529,-3.1446,-3.7742,-3.9592,-4.1796,-4.5798,0.0,0.0,-4.7309,-4.7309,-4.7309,-4.7309,-4.7309,-4.7309,-4.7309,-4.7309,-4.7309,-4.7309,-4.7309,-4.7309,-4.7309,-4.7309,-4.7266,-4.7106,-4.6077,-4.6077,-4.6887,-4.4535,-4.3456,-4.3266,-4.1985,-4.0794,0.0,-3.9697,-3.9697,-3.9697,-3.9697,-4.0415,-4.1269,-4.0134,-4.0415,-4.1269,-4.0083,-3.9697,-3.9697,-3.9697,-3.9697,-3.9697,-3.9697,-3.9697,-3.9697,-3.9697,-3.9697,-3.9697,-3.9697,-3.9647,-3.9496,-3.9045,-3.8015,-3.7161,-3.7111,-3.6757,-3.6405,-3.6405,-3.6405,-3.638,-3.6355,-3.4866,-3.3648,-3.3601,-3.2131,-3.0771,-3.0274,-2.9098,-2.8115,-2.7579,-2.6416,-2.5615,-2.5577,-2.5577,-2.5577,-2.5577,-2.5234,-2.5047,-2.5047,-2.4629,-2.4414,-2.4414,-2.4375,-2.4355,-2.4355,-2.4316,-2.4316,-2.4355,-2.4355,-2.4375,-3.9423,-4.1453,-4.314,-4.256,-3.9623,-3.6175,-3.3283,-2.8725,-2.4506,-2.2272,-2.0916,-2.0339,-2.0918,-2.137,-2.2752,-2.6058,-2.6608,-2.8641,-3.4232,-3.6626,-3.9129,-4.2731,-4.4894,0.0,0.0,0.0,-4.7309,-4.7309,-4.7309,-4.7309,-4.7309,-4.7309,-4.7309,-4.7309,-4.7309,-4.7309,-4.7309,-4.7309,-4.7309,-4.7309,-4.677,-4.6814,-4.7266,-4.5434,-4.421,-4.3456,-4.2181,-4.0895,0.0,-4.0567,-4.0415,-3.9826,-4.1419,-4.1369,-4.0516,-4.0743,-4.0693,-4.0364,-3.9878,-3.9697,-3.9697,-3.9697,-3.9697,-3.9697,-3.9697,-3.9697,-3.9697,-3.9697,-3.9697,-3.9697,-3.9697,-3.9697,-3.9546,-3.9045,-3.8567,-3.8064,-3.7337,-3.701,-3.6807,-3.648,-3.6405,-3.6405,-3.6405,-3.5088,-3.4053,-3.4053,-3.242,-3.0843,-2.9931,-2.9084,-2.811,-2.6968,-2.6172,-2.5693,-2.5693,-2.5693,-2.5693,-2.5693,-2.5566,-2.5469,-2.5469,-2.5312,-2.5167,-2.5167,-2.4941,-2.4805,-2.4805,-2.4551,-2.4551,-2.4805,-2.4805,-2.4961,-3.7993,-4.0204,-4.212,-4.1468,-3.8417,-3.4892,-3.2159,-2.7908,-2.3979,-2.192,-2.0589,-1.9936,-2.0365,-2.0591,-2.1642,-2.4502,-2.5248,-2.7126,-3.1924,-3.4633,-3.731,0.0,0.0,-4.4821,0.0,-4.6401,-4.6887,-4.7266,-4.7309,-4.7309,-4.7309,-4.7309,-4.7309,-4.7309,-4.7309,-4.7309,-4.7309,-4.7309,-4.7309,-4.7309,-4.7309,-4.7309,-4.7266,-4.6344,-4.5252,-4.3975,-4.2738,-4.1468,0.0,-4.0844,-4.0743,-4.0465,-4.223,-4.2301,-4.1468,-4.1985,-4.1838,-4.1269,-4.0516,-4.0262,-4.0211,-3.9826,-3.9697,-3.9697,-3.9697,-3.9697,-3.9697,-3.9697,-3.9697,-3.9697,-3.9697,-3.9697,-3.9597,-3.922,-3.9045,-3.8693,-3.7864,-3.7412,-3.7061,-3.6732,-3.6531,-3.6405,-3.6405,-3.5283,-3.4385,-3.4385,-3.2906,-3.1224,-2.9859,-2.9363,-2.8437,-2.6772,-2.6636,-2.6437,-2.5762,-2.5693,-2.5693,-2.5693,-2.5693,-2.5693,-2.5693,-2.5693,-2.5693,-2.5693,-2.543,-2.5273,-2.5273,-2.4961,-2.5149,-2.5804,-2.5444,-2.543,-3.6286,-3.8099,-3.9679,-3.8976,-3.5992,-3.2596,-3.0264,-2.6771,-2.3527,-2.1845,-2.0589,-1.9811,-1.9811,-2.0314,-2.1069,-2.2146,-2.4438,-2.7507,-3.1533,-3.4355,-3.707,0.0,0.0,-4.2446,-4.2422,-4.425,-4.5913,-4.7222,-4.7309,0.0,-4.7309,-4.7309,-4.7309,-4.7309,-4.7309,-4.7309,-4.7309,-4.7309,-4.7309,-4.7309,-4.7309,-4.7309,-4.7309,-4.7309,-4.6594,-4.5298,-4.4022,-4.2738,0.0,-4.0211,-4.0465,-4.1591,-4.1591,-4.3122,-4.5207,-4.3929,-4.4256,-4.4978,-4.2447,-4.1591,-4.1369,-4.0134,-3.9697,-3.9697,-3.9697,-3.9697,-3.9697,-3.9697,-3.9697,-3.9697,-3.9697,-3.9697,-3.9697,-3.9697,-3.927,-3.8919,-3.8894,-3.7965,-3.7186,-3.7186,-3.6782,-3.6405,-3.6405,-3.5283,-3.4385,-3.4385,-3.3204,-3.1649,-2.9901,-2.9686,-2.9012,-2.7204,-2.8166,-2.8095,-2.5898,-2.5693,-2.5693,-2.5693,-2.5693,-2.5693,-2.5693,-2.5693,-2.5693,-2.5693,-2.5693,-2.5674,-2.5674,-2.5674,-2.6332,-2.7531,-2.6284,-2.5693,-3.2992,-3.4979,-3.6636,-3.5269,-3.3468,-3.1339,-2.8592,-2.5915,-2.3427,-2.137,-2.0339,-1.9811,-1.9811,-1.9962,-2.1006,-2.3823,-2.4958,-2.6827,0.0,0.0,0.0,-3.803,-4.1901,-4.4791,0.0,0.0,-4.6887,-4.7266,-4.7309,-4.7309,-4.7309,-4.6462,-4.6003,-4.6003,-4.6003,-4.5598,-4.4674,-4.5598,-4.6003,-4.6003,-4.6887,-4.7309,-4.7309,-4.7309,-4.6594,-4.5343,-4.4069,-4.3266,-4.2882,-4.2447,-4.2544,-4.3074,-4.484,-4.4932,-4.4163,-4.4627,-4.4489,-4.3882,-4.2181,-4.1591,-4.1419,-4.0134,-3.9697,-3.9697,-3.9697,-3.9697,-3.9697,-3.9697,-3.9697,-3.9697,-3.9697,-3.9697,-3.9697,-3.9697,-3.9572,-3.932,-3.8994,-3.8642,-3.8115,-3.7337,-3.7036,-3.6857,-3.648,-3.5283,-3.4385,-3.4385,-3.3204,-3.1781,-3.0324,-3.0895,-3.0774,-2.9033,-2.9224,-2.8569,-2.6349,-2.7016,-2.7041,-2.581,-2.5693,-2.5693,-2.5693,-2.5693,-2.5693,-2.5693,-2.5693,-2.5693,-2.5693,-2.6572,-2.7626,-2.8819,-2.7579,-2.6982,-3.0379,-3.2272,-3.3541,-3.2635,-3.1137,-2.9353,-2.7105,-2.491,-2.2849,-2.1069,-2.0239,-1.9811,-1.9811,-2.0168,-2.1221,-2.3433,-2.4792,-2.655,0.0,0.0,0.0,-3.8521,0.0,0.0,0.0,-4.6591,-4.677,-4.7266,-4.7309,-4.7309,-4.7309,-4.6121,-4.5161,-4.4674,-4.4674,-4.4303,-4.3504,-4.4794,-4.5389,-4.5389,-4.6682,-4.7309,-4.7309,-4.7309,-4.6887,-4.6077,-4.4794,-4.421,0.0,-4.3693,-4.3787,-4.4349,-4.5958,-4.5913,-4.5024,-4.5824,-4.5298,-4.4022,-4.2738,-4.1985,-4.1419,-4.0134,-3.9697,-3.9697,-3.9697,-3.9697,-3.9697,-3.9697,-3.9697,-3.9697,-3.9697,-3.9697,-3.9697,-3.9697,-3.9697,-3.9597,-3.9245,-3.9019,-3.8718,-3.7965,-3.7638,-3.7312,-3.6807,-3.6036,-3.5405,-3.5211,-3.441,-3.333,-3.205,-3.2605,-3.2269,-3.0134,-3.0397,-2.9644,-2.7117,-2.7482,-2.7409,-2.628,-2.6074,-2.5977,-2.5977,-2.5771,-2.5693,-2.5693,-2.5693,-2.5693,-2.5693,-2.7437,-2.8402,-2.8727,-2.8866,-2.8448,0.0,-2.9618,-3.013,-3.0543,-2.8805,-2.6691,-2.5561,-2.3728,0.0,-2.0867,-2.0189,-1.9836,-1.9911,-2.0836,-2.1641,-2.1706,-2.426,0.0,0.0,-3.1758,0.0,0.0,-4.214,0.0,-4.5239,-4.5478,-4.6032,-4.7222,-4.7309,-4.7309,-4.7309,-4.6003,-4.472,-4.3551,-4.3313,-4.3218,-4.3218,-4.4489,-4.5161,-4.5252,-4.655,-4.7222,-4.7309,-4.7309,-4.7309,0.0,-4.5958,-4.5434,-4.5434,-4.4163,-4.4396,-4.5553,-4.5553,-4.6255,-4.7309,-4.7309,-4.6506,-4.5207,-4.3929,-4.2689,-4.1419,-4.0134,-3.9697,-3.9697,-3.9697,-3.9697,-3.9697,-3.9697,-3.9697,-3.9697,-3.9697,-3.9697,-3.9697,-3.9697,-3.9697,-3.9697,-3.9697,-3.9295,-3.8969,-3.8919,-3.8442,-3.7889,-3.7337,-3.7211,-3.701,-3.6531,-3.643,-3.5906,-3.4581,-3.4483,-3.3525,-3.0876,-3.1622,-3.1142,-2.8289,-2.7511,-2.7153,-2.7012,-2.6641,-2.6426,-2.6426,-2.6035,-2.5771,-2.5732,-2.5713,-2.5742,-2.582,-2.8215,-2.8866,-2.7908,-3.0215,-3.0011,-2.3531,0.0,-2.5345,-2.458,-2.4267,-2.3797,0.0,-2.2046,-2.1368,-2.0238,-1.9886,-2.0062,-2.0941,-2.1457,-2.2244,-2.3775,-2.548,-2.7439,-2.991,-3.402,0.0,-4.3775,-4.373,-4.4169,-4.6586,-4.684,-4.6975,-4.7266,-4.7309,-4.7309,-4.7309,-4.5161,-4.3834,-4.3504,-4.1591,-4.0592,-4.0592,-4.1838,-4.2978,-4.3975,-4.5252,-4.6344,-4.7309,-4.7309,-4.7309,-4.7222,-4.5958,-4.5958,-4.6726,-4.5479,-4.5689,-4.6844,-4.6844,-4.7019,-4.7309,-4.7309,-4.6506,-4.5207,-4.3929,-4.2689,-4.1419,-4.0134,-3.9697,-3.9697,-3.9697,-3.9697,-3.9697,-3.9697,-3.9697,-3.9697,-3.9697,-3.9697,-3.9697,-3.9697,-3.9697,-3.9697,-3.9697,-3.9597,-3.9371,-3.8994,-3.8818,-3.8492,-3.7914,-3.7462,-3.7136,-3.701,-3.6681,-3.5906,-3.4581,-3.5331,-3.5259,-3.3624,-3.2733,-3.1984,-3.1266,-2.9893,-2.8452,-2.7082,-2.6914,-2.6875,-2.6875,-2.6777,-2.6562,-2.625,-2.5849,-2.6207,-2.7173,-2.868,-2.9715,-3.0373,-3.1425,-3.0997,-2.0991,-2.2548,-2.3904,-2.3552,-2.3471,-2.3271,-2.2447,-2.1644,-2.0893,-1.9987,-1.9811,-2.0062,-2.0968,-2.1664,-2.2719,-2.4745,-2.6342,0.0,0.0,0.0,-4.0666,-4.4798,-4.5259,-4.5779,0.0,-4.7309,-4.7309,-4.7309,-4.7309,-4.7309,-4.7309,-4.4886,-4.3504,-4.3504,-4.1019,-3.9697,-3.9697,-4.0995,-4.1936,-4.2641,-4.4489,-4.5779,-4.6432,-4.7019,-4.7309,-4.7266,-4.6594,-4.6638,-4.7266,-4.655,-4.6682,-4.7309,-4.7309,-4.7309,-4.7309,-4.7309,-4.6121,-4.4442,-4.374,-4.2252,-4.0592,-3.9929,-3.9697,-3.9697,-3.9697,-3.9697,-3.9697,-3.9697,-3.9697,-3.9697,-3.9697,-3.9697,-3.9697,-3.9697,-3.9697,-3.9697,-3.9697,-3.9697,-3.9597,-3.9295,-3.9245,-3.9069,-3.8492,-3.8165,-3.7864,-3.7613,-3.7086,-3.6495,-3.5795,-3.6127,-3.5858,-3.4532,-3.3155,-3.2028,-3.1418,-2.9942,-2.8649,-2.7669,-2.7422,-2.7305,-2.7305,-2.7129,-2.6914,-2.668,-2.6445,-2.6656,-2.7325,-2.9193,-3.0418,-3.1113,-3.2589,-3.2272,-2.0112,-2.2046,-2.406,-2.428,-2.4047,-2.3608,-2.3119,0.0,0.0,0.0,0.0,0.0,-2.1069,-2.221,0.0,0.0,0.0,0.0,-3.6808,-3.9576,-4.2106,-4.509,-4.636,0.0,-4.7266,-4.7309,-4.7309,-4.7309,-4.7309,-4.7309,-4.7309,-4.4886,-4.3504,-4.3504,-4.1019,-3.9697,-3.9697,-4.0794,-4.1518,-4.1936,-4.4069,-4.5298,-4.5734,-4.6814,-4.7309,-4.7309,0.0,0.0,-4.7309,-4.7309,-4.7309,-4.7309,-4.7309,-4.7309,-4.7309,-4.7309,-4.5689,-4.3456,-4.3074,-4.1518,-3.9697,-3.9697,-3.9697,-3.9697,-3.9697,-3.9697,-3.9697,-3.9697,-3.9697,-3.9697,-3.9697,-3.9697,-3.9697,-3.9697,-3.9697,-3.9697,-3.9697,-3.9697,-3.9697,-3.9697,-3.9697,-3.9546,-3.9069,-3.8919,-3.8718,-3.8216,-3.7663,-3.7312,-3.7312,-3.6835,-3.6077,-3.4944,-3.33,-3.1825,-3.0721,-2.9197,-2.8301,-2.8301,-2.7949,-2.7806,-2.7806,-2.7344,-2.7109,-2.7109,-2.7051,-2.7114,-2.7298,-2.9731,-3.1041,-3.1281,-3.3701,-3.354,-2.1543,-2.2949,-2.3705,-2.2528,-2.2429,-2.2597,-2.2659,-2.2018,-2.1343,0.0,0.0,0.0,0.0,-2.4821,-2.6102,0.0,0.0,-3.445,0.0,0.0,-4.2498,-4.5734,0.0,-4.6121,-4.7222,-4.7309,-4.7309,-4.7309,-4.7309,-4.7309,-4.7309,-4.4886,-4.3504,-4.3504,-4.1019,-3.9697,-3.9697,-3.9878,-4.1069,-4.3218,-4.3598,-4.4932,-4.7019,-4.7222,-4.7309,-4.7309,0.0,-4.7309,-4.7309,-4.7309,-4.7309,-4.7309,-4.7309,-4.7309,-4.7309,-4.7309,-4.5689,-4.317,-4.1019,-4.0032,-3.9697,-3.9697,-3.9697,-3.9697,-3.9697,-3.9697,-3.9697,-3.9697,-3.9697,-3.9697,-3.9697,-3.9697,-3.9697,-3.9697,-3.9697,-3.9697,-3.9697,-3.9697,-3.9697,-3.9697,-3.9697,-3.9672,-3.9572,-3.917,-3.8894,-3.8793,-3.8241,-3.7889,-3.7889,-3.7387,-3.7012,-3.6794,-3.4106,-3.223,-3.2028,-2.9702,-2.8301,-2.8301,-2.8223,-2.8203,-2.8203,-2.7793,-2.7559,-2.7559,-2.7207,-2.7551,-2.8715,-3.0171,-3.1472,-3.2629,-3.4533,-3.459,-2.074,-2.1995,-2.3077,-2.3137,-2.3618,-2.4222,-2.479,-2.3621,-2.2548,0.0,0.0,0.0,0.0,0.0,-2.7531,-3.0743,0.0,-3.8302,-4.0919,-4.2254,-4.3791,0.0,0.0,-4.6638,-4.7266,-4.7309,-4.7309,-4.7309,-4.7309,-4.7309,-4.7309,-4.4886,-4.3504,-4.3504,-4.1019,-3.9697,-3.9697,-3.9697,-4.0642,-4.2496,-4.317,-4.4442,-4.6299,-4.6975,-4.7309,-4.7309,0.0,-4.7309,-4.7309,-4.7309,-4.7309,-4.7309,-4.7309,-4.7309,-4.7106,-4.5734,-4.4489,-4.3122,-4.0592,-3.9697,-3.9697,-3.9697,-3.9697,-3.9697,-3.9697,-3.9697,-3.9697,-3.9697,-3.9697,-3.9697,-3.9697,-3.9697,-3.9697,-3.9697,-3.9697,-3.9697,-3.9697,-3.9697,-3.9697,-3.9697,-3.9697,-3.9697,-3.9697,-3.9471,-3.932,-3.932,-3.8843,-3.8467,-3.8467,-3.799,-3.7319,-3.6552,-3.4272,-3.2427,-3.1655,-2.955,-2.8301,-2.8301,-2.8301,-2.8301,-2.8301,-2.8105,-2.8008,-2.8008,-2.7812,-2.8353,-2.9698,-3.1036,-3.2368,-3.3768,-3.5268,-3.525,-2.0489,-2.1658,-2.3087,-2.44,-2.4983,-2.5565,-2.6928,-2.5389,-2.4023,-2.5302,-2.4775,0.0,0.0,-2.7002,0.0,-3.4612,-3.8089,-4.0672,-4.2393,-4.3718,-4.4975,-4.613,-4.689,-4.7309,-4.7309,-4.7309,-4.7309,-4.7309,-4.7309,-4.7309,-4.7309,-4.4886,-4.3504,-4.3504,-4.1019,-3.9697,-3.9697,-3.9697,-4.0516,-4.2084,-4.3026,-4.4303,-4.5869,-4.6887,-4.7309,-4.7309,-4.7309,-4.7106,-4.6887,-4.7149,-4.7106,-4.6887,-4.7149,-4.7309,-4.6975,-4.4442,-4.3504,-4.3122,-4.0592,-3.9697,-3.9697,-3.9697,-3.9697,-3.9697,-3.9697,-3.9697,-3.9697,-3.9697,-3.9697,-3.9697,-3.9697,-3.9697,-3.9697,-3.9697,-3.9697,-3.9697,-3.9697,-3.9697,-3.9697,-3.9697,-3.9697,-3.9697,-3.9697,-3.9697,-3.9697,-3.9697,-3.9064,-3.8688,-3.9044,-3.8291,-3.7241,-3.6149,-3.4395,-3.2581,-3.0669,-2.9259,-2.8398,-2.8301,-2.8301,-2.8301,-2.8301,-2.8301,-2.8301,-2.8301,-2.8301,-2.9112,-3.0773,-3.1774,-3.3204,-3.4872,-3.5906,-3.5858,-2.2443,-2.3508,-2.4461,-2.5659,-2.5014,-2.4855,-2.7665,-2.6788,-2.5887,-2.7519,-2.7394,-2.7168,0.0,-2.9628,-3.2607,-3.738,-3.8685,-4.0066,-4.2872,0.0,-4.5484,-4.619,-4.689,-4.7309,-4.7309,-4.7309,-4.7309,-4.7309,-4.7309,-4.7309,-4.7309,-4.4886,-4.3504,-4.3504,-4.1019,-3.9697,-3.9697,-3.9697,-4.0945,-4.3361,-4.3456,-4.4794,-4.7149,-4.7266,-4.7309,-4.7309,-4.7309,-4.6638,-4.5644,-4.6814,-4.6594,-4.5644,-4.6844,-4.7309,-4.6975,-4.4442,-4.3504,-4.3122,-4.0592,-3.9697,-3.9697,-3.9697,-3.9697,-3.9697,-3.9697,-3.9697,-3.9697,-3.9697,-3.9697,-3.9697,-3.9697,-3.9697,-3.9697,-3.9697,-3.9697,-3.9697,-3.9697,-3.9697,-3.9697,-3.9697,-3.9697,-3.9697,-3.9697,-3.9697,-3.9697,-3.9697,-3.8481,-3.8065,-3.9467,-3.7993,-3.6725,-3.6645,-3.49,-3.2478,-2.9327,-2.8941,-2.8711,-2.832,-2.8301,-2.8301,-2.8301,-2.8301,-2.8301,-2.8301,-2.8301,-2.9565,-3.218,-3.223,-3.365,-3.6263,-3.6358,-3.6358,-2.1418,-2.2578,-2.3752,-2.4577,-2.5166,-2.6147,-2.8516,-2.8055,-2.772,-2.9729,-2.9453,-2.9189,-3.0312,0.0,-3.5029,-3.8165,-4.0052,-4.177,-4.3658,-4.4377,-4.5095,-4.616,-4.6488,-4.686,-4.7279,-4.6594,-4.6432,-4.7266,-4.6594,-4.6121,-4.6121,-4.4442,-4.3122,-4.235,-4.0592,-3.9697,-3.9697,-3.9697,-4.0995,-4.3504,-4.3504,-4.484,-4.7309,-4.7309,-4.7309,-4.7266,-4.6462,-4.6299,-4.655,-4.6255,-4.6299,-4.6638,-4.7106,-4.7309,-4.7062,-4.5343,-4.4163,-4.3266,-4.1518,-4.0364,-3.9697,-3.9697,-3.9697,-3.9697,-3.9697,-3.9697,-3.9697,-3.9697,-3.9697,-3.9697,-3.9697,-3.9697,-3.9697,-3.9697,-3.9697,-3.9697,-3.9697,-3.9697,-3.9697,-3.9697,-3.9697,-3.9697,-3.9697,-3.9697,-3.9697,-3.9697,-3.9233,-3.8739,-3.8348,-3.8463,-3.7508,-3.4779,-3.2717,-3.134,-3.0744,-2.959,-2.9587,-3.122,-2.9412,-2.8301,-2.8301,-2.8301,-2.8301,-2.8301,-2.9112,-3.0463,-3.228,-3.3204,-3.4557,-3.6405,-3.6405,-3.6405,-2.0993,-2.2068,-2.3323,-2.3865,-2.5431,-2.7336,-2.9119,-2.9196,-2.9528,-3.1738,-3.1461,-3.1179,-3.2332,0.0,0.0,0.0,-4.0666,-4.2584,-4.3787,-4.4197,-4.4646,-4.5574,-4.5548,-4.5631,-4.6075,-4.4991,-4.4604,-4.5508,-4.4739,-4.426,-4.426,-4.3064,-4.1977,-4.1086,-4.0006,-3.9421,-3.9421,-3.9597,-4.0995,-4.3504,-4.3504,-4.484,-4.7309,-4.7309,-4.7309,-4.7266,-4.6388,-4.6032,-4.6121,-4.6032,-4.6506,-4.7309,-4.7309,-4.7309,-4.7149,-4.5869,-4.4581,-4.3313,-4.2035,-4.0794,-3.9697,-3.9697,-3.9697,-3.9697,-3.9697,-3.9697,-3.9697,-3.9697,-3.9697,-3.9697,-3.9697,-3.9697,-3.9697,-3.9697,-3.9697,-3.9697,-3.9697,-3.9697,-3.9697,-3.9697,-3.9697,-3.9697,-3.9697,-3.9697,-3.9697,-3.9697,-3.931,-3.8792,-3.8243,-3.8687,-3.7636,-3.4181,-3.2184,-3.116,-3.125,-3.0504,-3.0743,-3.2389,-3.041,-2.9093,-2.8953,-2.8548,-2.8301,-2.8301,-2.9197,-3.0514,-3.228,-3.3254,-3.4654,-3.6405,-3.6405,-3.6405,-2.1619,-2.2433,-2.35,-2.3912,-2.5852,-2.8022,-2.9467,-3.0231,-3.126,-3.3445,-3.347,-3.3233,-3.3613,-3.4756,0.0,-3.8453,-4.0389,-4.2029,-4.313,-4.3858,-4.4276,-4.4276,-4.3868,-4.3603,-4.356,-4.2491,-4.1789,-4.1789,-4.1789,-4.1789,-4.1789,-4.0595,-3.987,-3.987,-3.9213,-3.8919,-3.8919,-3.9421,-4.0969,-4.3504,-4.3504,-4.484,-4.7309,-4.7309,-4.7309,-4.7309,-4.7309,-4.5824,-4.3693,-4.6255,-4.7309,-4.7309,-4.7309,-4.7309,-4.7149,-4.5869,-4.4581,-4.3313,-4.2084,-4.0794,-3.9697,-3.9697,-3.9697,-3.9697,-3.9697,-3.9697,-3.9697,-3.9697,-3.9697,-3.9697,-3.9697,-3.9697,-3.9697,-3.9697,-3.9697,-3.9697,-3.9697,-3.9697,-3.9697,-3.9697,-3.9697,-3.9697,-3.9697,-3.9697,-3.9697,-3.9697,-3.8477,-3.8031,-3.9517,-3.84,-3.6918,-3.5453,-3.3957,-3.2344,-3.0406,-3.1569,-3.1986,-3.1084,-3.1021,-3.0811,-3.0328,-2.9006,-2.8281,-2.8301,-2.8281,-2.9618,-3.228,-3.2331,-3.3749,-3.6405,-3.6405,-3.6405,-2.1194,-2.2344,-2.4035,-2.4922,-2.7142,-2.9453,-3.0662,-3.1336,-3.2265,-3.4098,-3.4048,-3.3774,-3.4214,-3.5614,0.0,-3.857,-4.0705,-4.2168,-4.2094,-4.2968,-4.3183,-4.1981,-4.2467,-4.2739,-4.2345,-4.1196,-4.0827,-4.1744,-4.0966,-4.0482,-4.0482,-4.0106,-3.9516,-3.8602,-3.8364,-3.8266,-3.8266,-3.8818,-4.0447,-4.2915,-4.333,-4.484,-4.7309,-4.7309,-4.7309,-4.7266,-4.6344,-4.5553,-4.4886,-4.5644,-4.6506,-4.7309,-4.7309,-4.7309,-4.7266,-4.6887,-4.5343,-4.3456,-4.3074,-4.1492,-3.9697,-3.9697,-3.9697,-3.9697,-3.9697,-3.9697,-3.9697,-3.9697,-3.9697,-3.9697,-3.9697,-3.9697,-3.9697,-3.9697,-3.9697,-3.9697,-3.9697,-3.9697,-3.9697,-3.9697,-3.9697,-3.9697,-3.9697,-3.9697,-3.9697,-3.9697,-3.9362,-3.9206,-3.9645,-3.6595,-3.4626,-3.5233,-3.3957,-3.2845,-3.2267,-3.235,-3.2678,-3.3375,-3.2265,-3.12,-3.0349,-2.9911,-2.925,-2.8301,-2.9197,-3.0566,-3.228,-3.3304,-3.4678,-3.6405,-3.6405,-3.6405,-2.2024,-2.3125,-2.4682,-2.6214,-2.8197,-3.0306,-3.2265,-3.2968,0.0,0.0,-3.4926,-3.4628,-3.4863,-3.6183,0.0,-3.8116,-4.0012,-4.1307,-4.0943,-4.1532,-4.1564,-4.0558,-4.0674,-4.0681,-4.0368,-3.923,-3.8836,-3.96,-3.8929,-3.8532,-3.8532,-3.8532,-3.8152,-3.741,-3.7563,-3.7688,-3.7688,-3.8241,-3.9556,-4.1583,-4.1889,-4.35,-4.6254,-4.6943,-4.7309,-4.7222,-4.5958,-4.5689,-4.6121,-4.5598,-4.6166,-4.7309,-4.7309,-4.7309,-4.7309,-4.7309,-4.5689,-4.3504,-4.3504,-4.1838,-3.9697,-3.9697,-3.9697,-3.9697,-3.9697,-3.9697,-3.9697,-3.9697,-3.9697,-3.9697,-3.9697,-3.9697,-3.9697,-3.9697,-3.9697,-3.9697,-3.9697,-3.9697,-3.9697,-3.9697,-3.9697,-3.9697,-3.9697,-3.9697,-3.9697,-3.9697,-3.9697,-3.9465,-3.8896,-3.5999,-3.4292,-3.5233,-3.3957,-3.2851,-3.2264,-3.2488,-3.2886,-3.3519,-3.3074,-3.2223,-3.0895,-3.0874,-3.0257,-2.8863,-2.9635,-3.0662,-3.2036,-3.3447,-3.4831,-3.621,-3.6744,-3.7059,-2.3427,-2.4356,-2.5402,-2.7695,-2.9176,-3.0884,-3.3947,-3.465,-3.4977,-3.6179,0.0,-3.5558,-3.5508,-3.6535,-3.736,-3.7307,-3.8759,-3.9869,-3.9754,-3.9826,-3.9826,-3.9607,-3.8693,-3.8062,-3.7971,-3.701,-3.6405,-3.6405,-3.6405,-3.6405,-3.6405,-3.6405,-3.6405,-3.6405,-3.6883,-3.7111,-3.7111,-3.7663,-3.8574,-3.9838,-3.9891,-4.145,-4.4381,-4.6211,-4.7163,-4.7222,-4.5958,-4.6121,-4.7222,-4.5913,-4.6166,-4.7309,-4.7309,-4.7309,-4.7309,-4.7309,-4.5689,-4.3504,-4.3504,-4.1838,-3.9697,-3.9697,-3.9697,-3.9697,-3.9697,-3.9697,-3.9697,-3.9697,-3.9697,-3.9697,-3.9697,-3.9697,-3.9697,-3.9697,-3.9697,-3.9697,-3.9697,-3.9697,-3.9697,-3.9697,-3.9697,-3.9697,-3.9697,-3.9697,-3.9645,-3.9517,-3.9517,-3.9025,-3.769,-3.6108,-3.5123,-3.5288,-3.3957,-3.2473,-3.0995,-3.2264,-3.2832,-3.2135,-3.3453,-3.3551,-3.1839,-3.1897,-3.1223,-2.9626,-2.9626,-3.0254,-3.1584,-3.3068,-3.4439,-3.5652,-3.7119,-3.7792,-2.2573,-2.4029,-2.6063,-2.875,-3.0909,-3.2667,-3.3822,-3.4073,-3.45,-3.6103,-3.6329,-3.6056,-3.5583,-3.6845,-3.7764,-3.736,-3.8759,-3.9579,-3.8604,-3.9316,-3.9227,-3.7381,-3.7723,-3.7769,-3.6849,-3.6546,-3.6405,-3.6405,-3.6405,-3.6405,-3.6405,-3.6405,-3.6405,-3.6405,-3.6531,-3.6581,-3.6581,-3.7086,-3.7986,-3.9303,-3.9706,-4.0769,-4.2463,-4.4307,-4.5962,-4.7222,-4.5958,-4.6121,-4.7222,-4.5913,-4.6166,-4.7309,-4.7309,-4.7309,-4.7309,-4.7309,-4.5689,-4.3504,-4.3504,-4.1838,-3.9697,-3.9697,-3.9697,-3.9697,-3.9697,-3.9697,-3.9697,-3.9697,-3.9697,-3.9697,-3.9697,-3.9697,-3.9697,-3.9697,-3.9697,-3.9697,-3.9697,-3.9697,-3.9697,-3.9697,-3.9697,-3.9697,-3.9697,-3.9697,-3.931,-3.8137,-3.7954,-3.7849,-3.753,-3.5211,-3.4013,-3.5178,-3.3957,-3.2473,-3.0995,-3.2264,-3.2545,-3.1244,-3.2556,-3.3205,-3.2784,-3.3161,-3.2179,-2.9626,-2.9626,-3.0254,-3.1584,-3.3068,-3.3915,-3.4125,-3.56,-3.6288,-2.3075,-2.4933,0.0,-3.0181,0.0,-3.3219,-3.3771,-3.3897,-3.4223,-3.5353,-3.5579,-3.5579,-3.5508,-3.6238,-3.6876,-3.6896,-3.7632,-3.7997,-3.7381,-3.7815,-3.7769,-3.6546,-3.6943,-3.7057,-3.6452,-3.6405,-3.6405,-3.6405,-3.6405,-3.6405,-3.6405,-3.6405,-3.6405,-3.6405,-3.6405,-3.6405,-3.6405,-3.6707,-3.714,-3.7821,-3.8105,-3.9023,-4.0631,-4.334,-4.5596,-4.7266,-4.6594,-4.6682,-4.7266,-4.6594,-4.6682,-4.7309,-4.7309,-4.7309,-4.7309,-4.7309,-4.5689,-4.3504,-4.3504,-4.1838,-3.9697,-3.9697,-3.9697,-3.9697,-3.9697,-3.9697,-3.9697,-3.9697,-3.9697,-3.9697,-3.9697,-3.9697,-3.9697,-3.9697,-3.9697,-3.9697,-3.9697,-3.9697,-3.9697,-3.9697,-3.9697,-3.9697,-3.9697,-3.9129,-3.8137,-3.6649,-3.6433,-3.6217,-3.5485,-3.4069,-3.3417,-3.4181,-3.2928,-3.171,-3.0937,-3.1594,-3.171,-3.0937,-3.2264,-3.2794,-3.2092,-3.3648,-3.3824,-3.2364,-3.2308,-3.2308,-3.2287,-3.3824,-3.4149,-3.3366,-3.4879,-3.5911,-2.3427,-2.5812,-2.8172,-3.1286,-3.2491,0.0,-3.3621,-3.3746,-3.3897,-3.4349,-3.46,-3.4831,-3.5282,-3.5357,-3.5508,-3.6053,-3.6157,-3.6254,-3.6254,-3.6355,-3.6405,-3.6405,-3.6405,-3.6405,-3.6405,-3.6405,-3.6405,-3.6405,-3.6405,-3.6405,-3.6405,-3.6405,-3.6405,-3.6405,-3.6405,-3.6405,-3.6405,-3.6405,-3.6405,-3.6405,-3.6405,-3.7433,-3.9486,-4.2542,-4.4996,-4.684,-4.7043,-4.7189,-4.7309,-4.7309,-4.7309,-4.7309,-4.7309,-4.7309,-4.7309,-4.7309,-4.5689,-4.3504,-4.3504,-4.1838,-3.9697,-3.9697,-3.9697,-3.9697,-3.9697,-3.9697,-3.9697,-3.9697,-3.9697,-3.9697,-3.9697,-3.9697,-3.9697,-3.9697,-3.9697,-3.9697,-3.9697,-3.9697,-3.9697,-3.9697,-3.9697,-3.9697,-3.9697,-3.8477,-3.7079,-3.5836,-3.5233,-3.4681,-3.3957,-3.3395,-3.3191,-3.3473,-3.215,-3.117,-3.0937,-3.0898,-3.0898,-3.0898,-3.2035,-3.2322,-3.1325,-3.3866,-3.5398,-3.5672,-3.5398,-3.4681,-3.3473,-3.4681,-3.4681,-3.3529,-3.4736,-3.6108,-2.1543,0.0,-2.8574,0.0,-3.1913,-3.2491,0.0,0.0,-3.3219,0.0,-3.4048,-3.4705,-3.4781,-3.4826,-3.4806,-3.4926,-3.5307,-3.5608,-3.5608,-3.6056,-3.6405,-3.6405,-3.6405,-3.6405,-3.6405,-3.6405,-3.6405,-3.6405,-3.6405,-3.6405,-3.6405,-3.6405,-3.6405,-3.6405,-3.6405,-3.6405,-3.6405,-3.6405,-3.6405,-3.6405,-3.6405,-3.7898,-4.0591,-4.1085,-4.2612,-4.501,-4.5984,-4.677,-4.7309,-4.7309,-4.7309,-4.7309,-4.7309,-4.7309,-4.7309,-4.7309,-4.5689,-4.3504,-4.3504,-4.1838,-3.9697,-3.9697,-3.9697,-3.9697,-3.9697,-3.9697,-3.9697,-3.9697,-3.9697,-3.9697,-3.9697,-3.9697,-3.9697,-3.9697,-3.9697,-3.9697,-3.9697,-3.9697,-3.9697,-3.9697,-3.9697,-3.9697,-3.9697,-3.8477,-3.74,-3.724,-3.5046,-3.4236,-3.6595,-3.4659,-3.3586,-3.4847,-3.3698,-3.2322,-3.0995,-3.0898,-3.0898,-3.0898,-3.1054,-3.1652,-3.2758,-3.4403,-3.589,-3.7186,-3.5945,-3.5178,-3.5013,-3.5178,-3.5178,-3.5013,-3.5233,-3.6108,-2.2899,-2.5912,-2.8624,0.0,-3.1562,-3.1913,-3.2466,-3.2591,-3.2692,-3.3061,-3.347,-3.3897,-3.4198,-3.4248,-3.4349,-3.4675,-3.4881,-3.5031,-3.5031,-3.5554,-3.5906,-3.5906,-3.6182,-3.6405,-3.6405,-3.6405,-3.6405,-3.6405,-3.6405,-3.6405,-3.6405,-3.6405,-3.6405,-3.6405,-3.6405,-3.6405,-3.6405,-3.6405,-3.6405,-3.6405,-3.6405,-3.7418,-3.9312,-4.0007,-4.1992,-4.5017,-4.593,-4.6501,-4.68,-4.716,-4.7309,-4.7309,-4.7309,-4.7309,-4.7309,-4.7309,-4.5689,-4.3504,-4.3504,-4.1838,-3.9697,-3.9697,-3.9697,-3.9697,-3.9697,-3.9697,-3.9697,-3.9697,-3.9697,-3.9697,-3.9697,-3.9697,-3.9697,-3.9697,-3.9697,-3.9697,-3.9697,-3.9697,-3.9697,-3.9697,-3.9697,-3.9697,-3.9697,-3.8477,-3.753,-3.753,-3.5727,-3.4792,-3.6108,-3.5123,-3.4236,-3.4069,-3.3473,-3.2473,-3.0995,-3.0898,-3.0898,-3.0898,-3.0898,-3.117,-3.1825,-3.409,-3.5617,-3.6271,-3.7263,-3.737,-3.6541,-3.6541,-3.6108,-3.5288,-3.5288,-3.6108,0.0,0.0,-2.7444,-2.993,-3.0783,-3.116,0.0,0.0,-3.2164,0.0,-3.2867,-3.3018,-3.3596,-3.3696,-3.3822,-3.4248,-3.4424,-3.4525,-3.4525,-3.4931,-3.5282,-3.5282,-3.5805,-3.6157,-3.6157,-3.6329,-3.6405,-3.6405,-3.6405,-3.6405,-3.6405,-3.6405,-3.6405,-3.6405,-3.6405,-3.6405,-3.6405,-3.6405,-3.6405,-3.6405,-3.6405,-3.701,-3.8153,-3.936,-4.1511,-4.4424,-4.5568,-4.613,-4.6339,-4.704,-4.7309,-4.7309,-4.7309,-4.7309,-4.7266,-4.6931,-4.5389,-4.3456,-4.3122,-4.1541,-3.9697,-3.9697,-3.9697,-3.9697,-3.9697,-3.9697,-3.9697,-3.9697,-3.9697,-3.9697,-3.9697,-3.9697,-3.9697,-3.9697,-3.9697,-3.9697,-3.9697,-3.9697,-3.9697,-3.9697,-3.9697,-3.9697,-3.9697,-3.8477,-3.7636,-3.8031,-3.6487,-3.5563,-3.6325,-3.6108,-3.5288,-3.3789,-3.3677,-3.2928,-3.1054,-3.0898,-3.0898,-3.0898,-3.0898,-3.0898,-3.0898,-3.336,-3.4902,-3.5288,-3.782,-3.8792,-3.8084,-3.769,-3.7133,-3.6402,-3.6054,-3.6649,0.0,-2.2523,0.0,-2.7469,-2.9076,-3.0156,0.0,0.0,-3.1587,-3.2139,-3.2265,-3.2441,-3.3018,-3.3162,-3.3162,-3.3169,-3.3596,-3.3947,-3.3947,-3.4424,-3.4731,-3.4731,-3.5207,-3.5533,-3.5533,-3.6056,-3.6405,-3.6405,-3.6405,-3.6405,-3.6405,-3.6405,-3.6405,-3.6405,-3.6405,-3.6405,-3.6405,-3.6405,-3.6405,-3.6405,-3.6405,-3.701,-3.8153,-3.936,-4.0603,-4.1926,-4.4353,-4.5723,-4.6339,-4.704,-4.7309,-4.7309,-4.7309,-4.7309,-4.7149,-4.5913,-4.4627,-4.3313,-4.2133,-4.0844,-3.9697,-3.9697,-3.9697,-3.9697,-3.9697,-3.9697,-3.9697,-3.9697,-3.9697,-3.9697,-3.9697,-3.9697,-3.9697,-3.9697,-3.9697,-3.9697,-3.9697,-3.9697,-3.9697,-3.9697,-3.9697,-3.9697,-3.9697,-3.8477,-3.7954,-3.9362,-3.7156,-3.6325,-3.9077,-3.8243,-3.6811,-3.5343,-3.5178,-3.4035,-3.1112,-3.0898,-3.0898,-3.0898,-3.0898,-3.0898,-3.0898,-3.2358,-3.3845,-3.5288,-3.6811,-3.8243,-3.9569,-3.819,-3.819,-3.9413,-3.8031,-3.819,0.0,0.0,0.0,-2.5402,-2.7092,-2.8473,-2.9553,-3.0357,-3.1035,-3.1587,-3.1687,-3.1863,-3.2416,-3.2817,-3.3111,-3.3111,-3.3244,-3.337,-3.337,-3.3847,-3.4198,-3.4198,-3.4675,-3.4981,-3.4981,-3.5504,-3.583,-3.583,-3.6157,-3.6405,-3.6405,-3.6405,-3.6405,-3.6405,-3.6405,-3.6405,-3.6405,-3.6405,-3.6405,-3.6405,-3.6405,-3.701,-3.8107,-3.8559,-3.977,-4.1686,-4.2973,-4.4352,-4.5723,-4.6381,-4.6458,-4.6077,-4.6077,-4.5598,-4.484,-4.4349,-4.3361,-4.223,-4.1739,-4.0794,-3.9697,-3.9697,-3.9697,-3.9697,-3.9697,-3.9697,-3.9697,-3.9697,-3.9697,-3.9697,-3.9697,-3.9697,-3.9697,-3.9697,-3.9697,-3.9697,-3.9697,-3.9697,-3.9697,-3.9697,-3.9697,-3.9697,-3.9697,-3.9258,-3.8792,-3.8348,-3.819,-3.8137,-3.8243,-3.8635,-3.7979,-3.5563,-3.5288,-3.409,-3.117,-3.0898,-3.0898,-3.0898,-3.0898,-3.0898,-3.0898,-3.2322,-3.336,-3.3845,-3.6271,-3.8243,-3.9697,-3.9181,-3.9181,-3.9697,-3.9129,-3.9181,-1.8807,0.0,0.0,0.0,-2.5234,-2.6465,-2.8725,-2.9352,-2.9804,-3.0909,-3.1135,-3.1311,-3.1838,-3.239,-3.2842,-3.3086,-3.3111,-3.3111,-3.3111,-3.3395,-3.3621,-3.3621,-3.4123,-3.4449,-3.4449,-3.4906,-3.5232,-3.5232,-3.578,0.0,-3.6081,-3.6304,-3.6405,-3.6405,-3.6405,-3.6405,-3.6405,-3.6405,-3.6405,-3.6405,-3.6405,-3.6803,-3.754,-3.7926,-3.8934,-4.049,-4.1341,-4.2838,-4.4689,-4.5398,-4.5287,-4.4794,-4.4794,-4.4256,-4.3456,-4.3026,-4.2301,-4.1541,-4.1119,-4.0415,-3.9697,-3.9697,-3.9697,-3.9697,-3.9697,-3.9697,-3.9697,-3.9697,-3.9697,-3.9747,-3.9923,-4.0099,-4.0249,-4.0249,-4.0249,-4.0249,-4.0249,-3.9948,-3.9697,-3.9697,-3.9697,-3.9697,-3.9697,-3.9848,-3.9636,-3.8668,-3.9498,-3.991,-3.8883,-3.9622,-3.9067,-3.6115,-3.5781,-3.4566,-3.1604,-3.1328,-3.1328,-3.1328,-3.1328,-3.125,-3.1113,-3.2027,-3.296,-3.3789,-3.5781,-3.7743,-3.9697,-3.9697,-3.9697,-3.9697,-3.9697,-3.9697,0.0,0.0,0.0,0.0,0.0,0.0,-2.8574,0.0,-2.7821,-3.0055,-3.0507,-3.0683,-3.126,-3.1813,-3.2365,-3.2943,-3.3086,-3.3111,-3.3111,-3.3111,-3.3111,-3.3111,-3.3545,-3.3872,-3.3872,-3.4374,-3.47,-3.47,-3.5157,-3.5483,-3.5504,-3.6078,-3.6427,-3.6452,-3.6405,-3.6405,-3.6405,-3.6405,-3.6405,-3.6405,-3.6405,-3.6405,-3.6452,-3.754,-3.8062,-3.8153,-3.9316,-4.1147,-4.3342,-4.4018,-4.3969,-4.3456,-4.3456,-4.3409,-4.3266,-4.1985,-4.1541,-4.1369,-4.0134,-3.9697,-3.9697,-3.9697,-3.9697,-3.9697,-3.9697,-3.9697,-3.9697,-3.9722,-3.9722,-3.9848,-4.04,-4.0874,-4.1275,-4.1275,-4.1275,-4.1275,-4.1275,-4.0501,-3.9747,-3.9747,-3.9747,-3.9747,-3.9747,-4.0199,-4.0498,-4.0498,-4.0924,-4.1275,-4.1222,-4.1222,-4.0062,-3.703,-3.6687,-3.5438,-3.2452,-3.2229,-3.2229,-3.2229,-3.2229,-3.2033,-3.1602,-3.1523,-3.2735,-3.5256,-3.5311,-3.6727,-3.9645,-3.9697,-3.9697,-3.9697,-3.9697,-3.9697,-1.7524,0.0,0.0,0.0,0.0,0.0,0.0,0.0,-2.5536,-2.7745,-2.8197,-2.875,-3.0507,-3.0959,-3.1235,-3.1763,-3.2541,-3.3111,-3.3111,-3.3111,-3.3111,-3.3111,-3.3219,-3.3294,-3.3294,-3.3796,-3.4123,0.0,-3.465,-3.5243,-3.6041,-3.6631,-3.7124,-3.7606,-3.6849,-3.6405,-3.6405,-3.6405,-3.6405,-3.6405,-3.6405,-3.6405,-3.6405,-3.6709,-3.7335,-3.8107,-3.8469,-3.9454,-4.0881,-4.2011,-4.2332,-4.2133,-4.2133,-4.1541,-4.0693,-4.0364,-4.0211,-4.016,-3.9826,-3.9697,-3.9697,-3.9697,-3.9697,-3.9697,-3.9697,-3.9697,-3.9772,-4.0174,-4.03,-4.0425,-4.0924,-4.1175,-4.1275,-4.1275,-4.1275,-4.1275,-4.1275,-4.105,-4.0824,-4.0824,-4.0824,-4.0824,-4.0824,-4.0949,-4.0703,-3.9679,-4.0211,-4.0479,-3.9795,-3.9316,-3.843,-3.6871,-3.5707,-3.4285,-3.233,-3.2229,-3.2229,-3.2229,-3.2229,-3.2634,-3.3626,-3.2615,-3.3205,-3.5826,-3.5748,-3.653,-3.8137,-3.9181,-3.9697,-3.9697,-3.9697,-3.9697,-1.8329,0.0,0.0,0.0,0.0,0.0,-2.3427,-2.3828,-2.4406,0.0,-2.7821,-2.8373,-2.964,-3.0306,-3.0708,-3.1009,-3.1788,-3.2441,-3.2692,-3.2918,-3.3111,-3.3111,-3.3111,-3.3111,-3.3111,-3.3776,-3.4255,-3.4255,-3.5133,-3.5896,-3.6279,-3.6577,-3.6847,-3.6994,-3.6379,-3.6132,-3.6405,-3.6405,-3.6405,-3.6405,-3.6405,-3.6405,-3.6405,-3.6405,-3.6756,-3.7402,-3.788,-3.8469,-3.9136,-4.0368,-4.0872,-4.0794,-4.0794,-4.0364,-3.9697,-3.9697,-3.9697,-3.9697,-3.9697,-3.9697,-3.9697,-3.9697,-3.9697,-3.9697,-3.9697,-3.9697,-3.9798,-4.035,-4.0852,-4.1279,-4.158,-4.1856,-4.2032,-4.2032,-4.2032,-4.2032,-4.2032,-4.2032,-4.1882,-4.1376,-4.1275,-4.1275,-4.1275,-4.153,-4.1384,-4.0514,-4.1067,-4.1359,-4.0807,-4.0397,-3.9387,-3.7501,-3.6553,-3.5089,-3.2861,-3.2695,-3.2695,-3.2695,-3.2695,-3.3008,-3.3759,-3.3578,-3.4369,-3.6341,-3.6734,-3.7107,-3.753,-3.8973,-3.9697,-3.9697,-3.9697,-3.9697,-1.9785,-2.0112,0.0,0.0,-2.0713,0.0,-2.4639,-2.4205,-2.3772,0.0,-2.7835,-2.8311,-2.8487,-2.9478,-3.0231,-3.0156,-3.0758,-3.1436,-3.2039,-3.2566,-3.2918,-3.2968,-3.2993,-3.3061,-3.3111,-3.3953,-3.4511,-3.4511,-3.5953,-3.6659,-3.626,-3.62,-3.6007,-3.5612,-3.555,-3.578,-3.6304,-3.638,-3.6405,-3.6405,-3.6405,-3.6405,-3.6405,-3.6405,-3.6405,-3.6452,-3.7448,-3.7908,-3.8088,-3.9184,-3.9638,-3.9697,-3.9697,-3.9697,-3.9697,-3.9697,-3.9697,-3.9697,-3.9697,-3.9697,-3.9697,-3.9697,-3.9697,-3.9697,-3.9697,-3.9697,-3.9823,-4.0425,-4.1404,-4.2313,-4.2313,-4.2665,-4.2986,-4.2986,-4.2986,-4.2986,-4.2986,-4.2986,-4.2685,-4.1706,-4.1476,-4.1476,-4.1476,-4.1932,-4.2313,-4.2313,-4.2665,-4.2911,-4.2961,-4.2799,-4.1485,-3.8521,-3.8045,-3.6721,-3.367,-3.3418,-3.3418,-3.3418,-3.3418,-3.3368,-3.3409,-3.4634,-3.5919,-3.7292,-3.8084,-3.824,-3.7601,-3.8998,-3.9645,-3.9465,-3.9645,-3.9697,-2.1841,-2.182,-2.182,-2.1194,0.0,0.0,-2.0087,-2.084,-2.1995,0.0,-2.3577,-2.4625,-2.6013,-2.7168,-2.7795,-2.7379,-2.8875,-3.0432,-3.1411,-3.1637,-3.1888,-3.2315,-3.239,-3.2566,-3.3043,-3.3283,-3.3386,-3.3386,-3.4491,-3.5322,-3.5696,-3.5706,-3.5841,-3.6289,-3.578,-3.5558,-3.5658,-3.6132,-3.6405,-3.6405,-3.6405,-3.6405,-3.6405,-3.6405,-3.6405,-3.6405,-3.6615,-3.72,-3.8015,-3.8236,-3.8868,-3.9697,-3.9697,-3.9697,-3.9697,-3.9697,-3.9697,-3.9697,-3.9697,-3.9697,-3.9697,-3.9697,-3.9697,-3.9697,-3.9697,-3.9697,-3.9898,-4.0902,-4.1957,-4.2811,-4.2811,-4.2886,-4.2986,-4.2986,-4.2986,-4.2986,-4.2986,-4.2986,-4.2911,-4.271,-4.266,-4.266,-4.266,-4.276,-4.2811,-4.2811,-4.259,-4.2539,-4.2911,-4.1475,-3.9831,-3.8357,-3.7002,-3.552,-3.3544,-3.3418,-3.3418,-3.3418,-3.3418,-3.4529,-3.7014,-3.6207,-3.7407,-4.1078,-4.0442,-3.9447,-3.8149,-3.917,-3.9077,-3.7954,-3.9129,-3.9697,-2.3376,-2.315,-2.3075,-2.2799,0.0,0.0,0.0,-2.1091,-2.1496,-2.2874,-2.3376,-2.3979,-2.5335,-2.6063,-2.644,-2.6499,-2.7871,-2.9151,-2.9679,-3.0708,-3.1486,-3.1763,-3.1813,-3.1913,-3.2215,-3.2986,-3.3783,-3.4583,-3.5156,-3.5372,-3.5156,-3.5141,-3.511,-3.5192,-3.5142,-3.5232,-3.5508,-3.6081,-3.6405,-3.6405,-3.6405,-3.6405,-3.6405,-3.6405,-3.6405,-3.6452,-3.701,-3.7534,-3.8064,-3.8677,-3.9192,-3.9697,-3.9697,-3.9697,-3.9697,-3.9697,-3.9697,-3.9697,-3.9697,-3.9697,-3.9697,-3.9697,-3.9697,-3.9697,-3.9697,-4.0074,-4.0676,-4.1505,-4.2333,-4.2986,-4.2986,-4.2986,-4.2986,-4.2986,-4.2986,-4.2986,-4.2986,-4.2986,-4.2986,-4.2986,-4.2986,-4.2986,-4.2986,-4.2986,-4.2986,-4.2986,-4.2791,-4.2715,-4.2936,-4.2072,-4.0592,-3.8439,-3.7506,-3.599,-3.3607,-3.3418,-3.3418,-3.3418,-3.3418,-3.4507,-3.6902,-3.7002,-3.8625,-4.2103,-4.1605,-4.0104,-3.7511,-3.9511,-3.9438,-3.753,-3.8509,-3.9368,0.0,0.0,0.0,0.0,0.0,-2.2824,0.0,0.0,0.0,0.0,0.0,0.0,0.0,0.0,0.0,0.0,0.0,0.0,0.0,-2.9126,0.0,-3.0884,-3.111,-3.1235,-3.1235,-3.2338,-3.3714,-3.529,-3.5234,-3.4929,-3.4402,-3.4387,-3.4202,-3.3765,-3.4274,-3.4781,-3.5332,-3.5931,-3.6304,-3.6405,-3.6405,-3.6405,-3.6405,-3.6615,-3.6615,-3.6452,-3.7632,-3.8049,-3.8114,-3.9039,-3.9539,-3.9697,-3.9697,-3.9697,-3.9697,-3.9697,-3.9697,-3.9697,-3.9697,-3.9697,-3.9697,-3.9697,-3.9697,-3.9722,-3.9823,-4.0551,-4.1401,-4.2062,-4.2615,-4.2986,-4.2986,-4.2986,-4.2986,-4.2986,-4.2986,-4.2986,-4.2986,-4.2986,-4.2986,-4.2986,-4.2986,-4.2986,-4.2986,-4.2986,-4.2986,-4.2986,-4.2986,-4.2986,-4.2986,-4.2737,-4.1419,-3.8521,-3.7925,-3.6539,-3.367,-3.3418,-3.3418,-3.3418,-3.3418,-3.4258,-3.6173,-3.7783,-3.9686,-4.1842,-4.1496,-3.9842,-3.6879,-3.926,-3.9352,-3.7385,-3.8431,-3.9536,0.0,0.0,0.0,0.0,-2.6088,0.0,0.0,0.0,-2.2343,-2.0715,0.0,0.0,0.0,0.0,0.0,0.0,0.0,0.0,-2.4531,-2.5971,-2.7605,-2.8988,-3.0105,-3.0708,-3.0708,-3.0424,-3.0896,-3.2539,-3.1752,-3.1838,-3.3207,-3.3283,-3.3265,-3.3212,-3.3696,-3.4248,-3.4781,-3.5307,-3.5881,-3.6405,-3.6405,-3.6405,-3.6452,-3.7448,-3.7381,-3.6452,-3.7632,-3.8049,-3.8015,-3.8138,-3.8818,-3.9697,-3.9697,-3.9697,-3.9697,-3.9697,-3.9697,-3.9697,-3.9697,-3.9697,-3.9697,-3.9697,-3.9697,-3.9798,-4.0275,-4.0852,-4.1401,-4.2062,-4.2615,-4.2986,-4.2986,-4.2986,-4.2986,-4.2986,-4.2986,-4.2986,-4.2986,-4.2986,-4.2986,-4.2986,-4.2986,-4.2986,-4.2986,-4.2986,-4.2986,-4.2986,-4.2986,-4.2986,-4.2986,-4.1728,-4.0187,-3.8402,-3.6941,-3.5335,-3.3544,-3.3418,-3.3418,-3.3418,-3.3418,-3.4736,-3.7805,-3.9464,-4.0453,-4.0808,-3.8932,-3.7811,-3.7475,-3.7313,-3.7076,-3.6872,-3.9667,-4.1068,0.0,0.0,0.0,0.0,0.0,0.0,-2.2468,0.0,-2.1995,0.0,0.0,0.0,0.0,0.0,0.0,0.0,-2.2995,0.0,0.0,0.0,-2.6013,0.0,0.0,0.0,-2.9515,-2.9428,-2.998,-3.1612,-3.0733,-3.0859,-3.2491,-3.2566,-3.2742,-3.3111,-3.3621,-3.4173,-3.468,-3.5232,-3.5805,-3.6405,-3.6405,-3.6405,-3.6405,-3.6896,-3.6849,-3.6452,-3.6896,-3.7438,-3.8039,-3.8771,-3.9316,-3.98,-4.0516,-4.0364,-3.9697,-3.9697,-3.9697,-3.9697,-3.9697,-3.9697,-3.9697,-3.9697,-3.9898,-4.0275,-4.0774,-4.1379,-4.1932,-4.2539,-4.2866,-4.2986,-4.2986,-4.2986,-4.2986,-4.2986,-4.2986,-4.2986,-4.2986,-4.2986,-4.2986,-4.2986,-4.2986,-4.2986,-4.2986,-4.2986,-4.2986,-4.2986,-4.2986,-4.2986,-4.2986,-4.1615,-3.9989,-3.8402,-3.676,-3.515,-3.3544,-3.3418,-3.3418,-3.3418,-3.517,-3.6781,-3.8164,-4.065,-4.1533,-4.0592,-4.0607,-3.9742,-3.7969,-3.9588,-3.9869,-3.8989,-4.0058,-4.1016,-2.8649,0.0,0.0,0.0,0.0,0.0,0.0,0.0,0.0,0.0,0.0,0.0,0.0,0.0,0.0,0.0,0.0,-2.2945,0.0,-2.3145,0.0,0.0,0.0,0.0,0.0,-2.8261,-2.8825,-3.0809,-2.9804,-2.9955,-3.1888,-3.2139,-3.2416,-3.2817,-3.3395,-3.4022,-3.468,-3.5082,-3.568,-3.6405,-3.6405,-3.6405,-3.6405,-3.7083,-3.7036,-3.6452,-3.7236,-3.7921,-3.8579,-3.934,-3.984,-4.0262,-4.0844,-4.0516,-3.9697,-3.9697,-3.9697,-3.9697,-3.9697,-3.9798,-3.9923,-3.9923,-4.03,-4.0852,-4.1404,-4.1831,-4.2313,-4.2866,-4.2986,-4.2986,-4.2986,-4.2986,-4.2986,-4.2986,-4.2986,-4.2986,-4.2986,-4.2986,-4.2986,-4.2986,-4.2986,-4.2986,-4.2986,-4.2986,-4.2986,-4.2986,-4.2986,-4.2986,-4.2986,-4.1615,-4.0187,-3.8994,-3.7002,-3.5335,-3.4133,-3.365,-3.3418,-3.3418,-3.6417,-3.8223,-3.8223,-4.0419,-4.1362,-4.0592,-4.1305,-4.0765,-3.8876,-4.1191,-4.1955,-4.1248,-4.0975,-4.1391,0.0,0.0,0.0,-2.7329,0.0,0.0,0.0,0.0,-2.3929,0.0,0.0,0.0,0.0,0.0,0.0,0.0,0.0,0.0,0.0,0.0,0.0,0.0,0.0,0.0,0.0,-2.6666,-2.6866,0.0,-2.8298,-2.8549,-3.126,-3.1913,-3.2215,-3.224,-3.2792,-3.3621,-3.468,-3.4751,-3.5303,-3.6405,-3.6405,-3.6405,-3.6499,-3.8765,-3.8541,-3.6572,-3.9374,-4.0259,-3.9781,-3.9165,-3.9977,-4.1419,-4.0211,-3.9749,-3.9697,-3.9697,-3.9697,-3.9697,-3.9697,-4.0049,-4.0501,-4.0501,-4.0852,-4.1404,-4.1957,-4.2187,-4.2313,-4.2866,-4.2986,-4.2986,-4.2986,-4.2986,-4.2986,-4.2986,-4.2986,-4.2986,-4.2986,-4.2986,-4.2986,-4.2986,-4.2986,-4.2986,-4.2986,-4.2986,-4.2986,-4.2986,-4.2986,-4.2986,-4.2986,-4.1615,-4.0592,-4.0534,-3.7723,-3.5806,-3.5745,-3.432,-3.3418,-3.3418,-3.6417,-3.8223,-3.8223,-3.8283,-3.9053,-4.0592,-3.9111,-3.9053,-4.0534,-4.065,-4.1419,-4.2905,-4.2905,-4.2936,0.0,0.0,-3.234,-2.9441,0.0,0.0,0.0,0.0,0.0,0.0,0.0,0.0,0.0,0.0,0.0,0.0,0.0,0.0,0.0,0.0,0.0,0.0,0.0,0.0,0.0,0.0,0.0,-2.8047,-2.7595,-2.8627,-3.1643,-3.1701,-3.2143,-3.3157,-3.3149,-3.3596,-3.468,-3.468,-3.5278,-3.6405,-3.6405,-3.6405,-3.6452,-3.7997,-3.8289,-3.7658,-3.9825,-4.0876,-4.1094,-4.1342,-4.1501,-4.1541,-4.1119,-4.0465,-3.9697,-3.9697,-3.9697,-3.9747,-4.0124,-4.035,-4.0576,-4.0899,-4.143,-4.1907,-4.2162,-4.2464,-4.2791,-4.2936,-4.2986,-4.2986,-4.2986,-4.2986,-4.2986,-4.2986,-4.2986,-4.2986,-4.2986,-4.2986,-4.2986,-4.2986,-4.2986,-4.2986,-4.2986,-4.2986,-4.2986,-4.2986,-4.2986,-4.2986,-4.2986,-4.1615,-4.0592,-4.0592,-3.7723,-3.5806,-3.5806,-3.432,-3.3418,-3.3418,-3.5396,-3.6578,-3.6578,-3.8676,-3.9522,-3.8994,-4.0592,-4.1133,-4.0592,-4.1672,-4.2432,-4.2986,-4.2986,-4.2986,-3.2616,-3.3194,0.0,-3.0959,-3.008,0.0,-2.6113,0.0,-2.6841,0.0,0.0,0.0,0.0,0.0,0.0,0.0,0.0,0.0,0.0,-1.9635,0.0,0.0,0.0,0.0,0.0,0.0,-2.5644,-2.7168,-2.6741,-2.7728,0.0,-3.1218,-3.1863,-3.2872,-3.3047,-3.3596,-3.468,-3.468,-3.5278,-3.6405,-3.6405,-3.6405,-3.6452,-3.8043,-3.8621,-3.8588,-4.0752,-4.2104,-4.2705,-4.2442,-4.2316,-4.2181,-4.1269,-4.0415,-3.9697,-3.9697,-3.9823,-4.0074,-4.0626,-4.0927,-4.1153,-4.1505,-4.2007,-4.2514,-4.2514,-4.2766,-4.2986,-4.2986,-4.2986,-4.2986,-4.2986,-4.2986,-4.2986,-4.2986,-4.2986,-4.2986,-4.2986,-4.2986,-4.2986,-4.2986,-4.2986,-4.2986,-4.2986,-4.2986,-4.2986,-4.2986,-4.2986,-4.2986,-4.2986,-4.2069,-4.1419,-4.1419,-3.8557,-3.6173,-3.5026,-3.5046,-3.4632,-3.3481,-3.599,-3.7243,-3.6699,-3.9206,-4.0361,-3.9931,-4.1955,-4.2488,-4.1476,-4.2488,-4.2737,-4.215,-4.2737,-4.2681]},{"header":{"parameterUnit":"m.s-1","parameterCategory":1,"la1":30.6,"la2":29.2853,"lo1":-89.7004,"lo2":-87.6739,"dy":0.0162,"dx":0.0183,"nx":112,"ny":82,"refTime":"2026-04-03T12:00:00:Z","depth":0,"parameterNumber":3,"parameterNumberName":"V-component_of_WINDS"},"data":[0.0,0.0,0.0,0.0,0.0,0.0,0.0,0.0,0.0,0.0,0.0,0.0,0.0,0.0,0.0,0.0,0.0,0.0,0.0,0.0,0.0,0.0,0.0,0.0,0.0,0.0,0.0,0.0,0.0,0.0,0.0,0.0,0.0,0.0,0.0,0.0,0.0,0.0,0.0,0.0,0.0,0.0,0.0,0.0,0.0,0.0,0.0,0.0,0.0,0.0,0.0,0.0,0.0,0.0,0.0,0.0,0.0,0.0,0.0,0.0,0.0,0.0,0.0,0.0,0.0,0.0,0.0,0.0,0.0,0.0,0.0,0.0,0.0,0.0,0.0,0.0,0.0,0.0,0.0,0.0,0.0,0.0,0.0,0.0,0.0,0.0,0.0,0.0,0.0,0.0,2.4154,2.6082,2.9228,3.0954,3.0311,2.9364,2.7943,2.5913,0.0,0.0,0.0,0.0,0.0,0.0,0.0,0.0,0.0,0.0,0.0,0.0,0.0,0.0,0.0,0.0,0.0,0.0,0.0,0.0,0.0,0.0,0.0,0.0,0.0,0.0,0.0,0.0,0.0,0.0,0.0,0.0,0.0,0.0,0.0,0.0,0.0,0.0,0.0,0.0,0.0,0.0,0.0,0.0,0.0,0.0,0.0,0.0,0.0,0.0,0.0,0.0,0.0,0.0,0.0,0.0,0.0,0.0,0.0,0.0,0.0,0.0,0.0,0.0,0.0,0.0,0.0,0.0,0.0,0.0,0.0,0.0,0.0,0.0,0.0,0.0,0.0,0.0,0.0,0.0,0.0,0.0,0.0,0.0,0.0,0.0,0.0,0.0,0.0,0.0,0.0,0.0,0.0,0.0,0.0,0.0,0.0,0.0,0.0,0.0,0.0,0.0,0.0,0.0,2.4932,2.8991,3.048,3.1157,3.1021,2.9161,2.7553,2.659,0.0,0.0,0.0,0.0,0.0,0.0,0.0,0.0,0.0,0.0,0.0,0.0,0.0,0.0,0.0,0.0,0.0,0.0,0.0,0.0,0.0,0.0,0.0,0.0,0.0,0.0,0.0,0.0,0.0,0.0,0.0,0.0,0.0,0.0,0.0,0.0,0.0,0.0,0.0,0.0,0.0,0.0,0.0,0.0,0.0,0.0,0.0,0.0,0.0,0.0,0.0,0.0,0.0,0.0,0.0,0.0,0.0,0.0,0.0,0.0,0.0,0.0,0.0,0.0,0.0,0.0,0.0,0.0,0.0,0.0,0.0,0.0,0.0,0.0,0.0,0.0,0.0,0.0,0.0,0.0,0.0,0.0,0.0,0.0,0.0,0.0,0.0,0.0,0.0,0.0,0.0,0.0,0.0,0.0,0.0,0.0,0.0,0.0,0.0,0.0,0.0,0.0,0.0,2.4637,2.6454,2.977,3.0751,3.119,3.119,2.9499,2.7943,2.6759,2.3951,0.0,0.0,0.0,0.0,0.0,0.0,0.0,0.0,0.0,0.0,0.0,0.0,0.0,0.0,0.0,0.0,0.0,0.0,0.0,0.0,0.0,0.0,0.0,0.0,0.0,0.0,0.0,0.0,0.0,0.0,0.0,0.0,0.0,0.0,0.0,0.0,0.0,0.0,0.0,0.0,0.0,0.0,0.0,0.0,0.0,0.0,0.0,0.0,0.0,0.0,0.0,0.0,0.0,0.0,0.0,0.0,0.0,0.0,0.0,0.0,0.0,0.0,0.0,0.0,0.0,0.0,0.0,0.0,0.0,0.0,0.0,0.0,0.0,0.0,0.0,0.0,0.0,0.0,0.0,0.0,0.0,0.0,0.0,0.0,0.0,0.0,0.0,0.0,0.0,0.0,0.0,0.0,0.0,0.0,0.0,0.0,0.0,0.0,0.0,0.0,0.0,0.0,2.6567,2.7904,3.0123,3.0852,3.119,3.119,2.9668,2.8146,2.6793,2.3782,0.0,0.0,0.0,0.0,0.0,0.0,0.0,0.0,0.0,0.0,0.0,0.0,0.0,0.0,0.0,0.0,0.0,0.0,0.0,0.0,0.0,0.0,0.0,0.0,0.0,0.0,0.0,0.0,0.0,0.0,0.0,0.0,0.0,0.0,0.0,0.0,0.0,0.0,0.0,0.0,0.0,0.0,0.0,0.0,0.0,0.0,0.0,0.0,0.0,0.0,0.0,0.0,0.0,0.0,0.0,0.0,0.0,0.0,0.0,0.0,0.0,0.0,0.0,0.0,0.0,0.0,0.0,0.0,0.0,0.0,0.0,0.0,0.0,0.0,0.0,0.0,0.0,0.0,0.0,0.0,0.0,0.0,0.0,0.0,0.0,0.0,0.0,0.0,0.0,0.0,0.0,0.0,0.0,0.0,0.0,0.0,0.0,0.0,0.0,0.0,0.0,0.0,2.6829,2.8857,3.0915,3.1157,3.119,3.119,2.9142,2.7553,2.6759,2.3289,0.0,0.0,0.0,0.0,0.0,0.0,0.0,0.0,0.0,0.0,0.0,0.0,0.0,0.0,0.0,0.0,0.0,0.0,0.0,0.0,0.0,0.0,0.0,0.0,0.0,0.0,0.0,0.0,0.0,0.0,0.0,0.0,0.0,0.0,0.0,0.0,0.0,0.0,0.0,0.0,0.0,0.0,0.0,0.0,0.0,0.0,0.0,0.0,0.0,0.0,0.0,0.0,0.0,0.0,0.0,0.0,0.0,0.0,0.0,0.0,0.0,0.0,0.0,0.0,0.0,0.0,0.0,0.0,0.0,0.0,0.0,0.0,0.0,0.0,0.0,0.0,0.0,0.0,0.0,0.0,0.0,0.0,0.0,0.0,0.0,0.0,0.0,0.0,0.0,0.0,0.0,0.0,0.0,0.0,0.0,0.0,0.0,0.0,0.0,0.0,0.0,0.0,2.6704,2.8774,0.0,3.0958,3.119,3.119,2.9567,2.801,2.6759,0.0,0.0,0.0,0.0,0.0,0.0,0.0,0.0,0.0,0.0,0.0,0.0,0.0,0.0,0.0,0.0,0.0,0.0,0.0,0.0,0.0,0.0,0.0,0.0,0.0,0.0,0.0,0.0,0.0,0.0,0.0,0.0,0.0,0.0,0.0,0.0,0.0,0.0,0.0,0.0,0.0,0.0,0.0,0.0,0.0,0.0,0.0,0.0,0.0,0.0,0.0,0.0,0.0,0.0,0.0,0.0,0.0,0.0,0.0,0.0,0.0,0.0,0.0,0.0,0.0,0.0,0.0,0.0,0.0,0.0,0.0,0.0,0.0,0.0,0.0,0.0,0.0,0.0,0.0,0.0,0.0,0.0,0.0,0.0,0.0,0.0,0.0,0.0,0.0,0.0,0.0,0.0,0.0,0.0,0.0,0.0,0.0,0.0,0.0,0.0,0.0,0.0,2.414,2.6876,2.9005,0.0,3.1059,3.1427,3.1224,2.96,2.7977,2.6454,0.0,0.0,0.0,0.0,0.0,0.0,0.0,0.0,0.0,0.0,0.0,0.0,0.0,0.0,0.0,0.0,0.0,0.0,0.0,0.0,0.0,0.0,0.0,0.0,0.0,0.0,0.0,0.0,0.0,0.0,0.0,0.0,0.0,0.0,0.0,0.0,0.0,0.0,0.0,0.0,0.0,0.0,0.0,0.0,0.0,0.0,0.0,0.0,0.0,0.0,0.0,0.0,0.0,0.0,0.0,0.0,0.0,0.0,0.0,0.0,0.0,0.0,0.0,0.0,0.0,0.0,0.0,0.0,0.0,0.0,0.0,0.0,0.0,0.0,0.0,0.0,0.0,0.0,0.0,0.0,0.0,0.0,0.0,0.0,0.0,0.0,0.0,0.0,0.0,0.0,0.0,0.0,0.0,0.0,0.0,0.0,0.0,0.0,0.0,0.0,0.0,0.0,2.4193,2.7412,2.9717,3.0246,3.1495,3.2022,3.1258,2.9108,2.7181,0.0,0.0,0.0,0.0,0.0,0.0,0.0,0.0,0.0,0.0,0.0,0.0,0.0,0.0,0.0,0.0,0.0,0.0,0.0,0.0,0.0,0.0,0.0,0.0,0.0,0.0,0.0,0.0,0.0,0.0,0.0,0.0,0.0,0.0,0.0,0.0,0.0,0.0,0.0,0.0,0.0,0.0,0.0,0.0,0.0,0.0,0.0,0.0,0.0,0.0,0.0,0.0,0.0,0.0,0.0,0.0,0.0,0.0,0.0,0.0,0.0,0.0,0.0,0.0,0.0,0.0,0.0,0.0,0.0,0.0,0.0,0.0,0.0,0.0,0.0,0.0,0.0,0.0,0.0,0.0,0.0,0.0,0.0,0.0,0.0,0.0,0.0,0.0,0.0,0.0,0.0,0.0,0.0,0.0,0.0,0.0,0.0,0.0,0.0,0.0,0.0,0.0,0.0,2.4299,2.745,2.9935,3.1024,3.1418,3.1683,3.1948,2.9905,2.7977,2.6454,0.0,0.0,0.0,0.0,0.0,0.0,0.0,0.0,0.0,0.0,0.0,0.0,0.0,0.0,0.0,0.0,0.0,0.0,0.0,0.0,0.0,0.0,0.0,0.0,0.0,0.0,0.0,0.0,0.0,0.0,0.0,0.0,0.0,0.0,0.0,0.0,0.0,0.0,0.0,0.0,0.0,0.0,0.0,0.0,0.0,0.0,0.0,0.0,0.0,0.0,0.0,0.0,0.0,0.0,0.0,0.0,0.0,0.0,0.0,0.0,0.0,0.0,0.0,0.0,0.0,0.0,0.0,0.0,0.0,0.0,0.0,0.0,0.0,0.0,0.0,0.0,0.0,0.0,0.0,0.0,0.0,0.0,0.0,0.0,0.0,0.0,0.0,0.0,0.0,0.0,0.0,0.0,0.0,0.0,0.0,0.0,0.0,0.0,0.0,0.0,0.0,0.0,2.4365,2.7721,3.0335,3.1374,3.1648,3.189,3.2286,3.0262,2.8231,2.6387,0.0,0.0,0.0,0.0,0.0,0.0,0.0,0.0,0.0,0.0,0.0,0.0,0.0,0.0,0.0,0.0,0.0,0.0,0.0,0.0,0.0,0.0,0.0,0.0,0.0,0.0,0.0,0.0,0.0,0.0,0.0,0.0,0.0,0.0,0.0,0.0,0.0,0.0,0.0,0.0,0.0,0.0,0.0,0.0,0.0,0.0,0.0,0.0,0.0,0.0,0.0,0.0,0.0,0.0,0.0,0.0,0.0,0.0,0.0,0.0,0.0,0.0,0.0,0.0,0.0,0.0,0.0,0.0,0.0,0.0,0.0,0.0,0.0,0.0,0.0,0.0,0.0,0.0,0.0,0.0,0.0,0.0,0.0,0.0,0.0,0.0,0.0,0.0,0.0,0.0,0.0,0.0,0.0,0.0,0.0,0.0,0.0,0.0,0.0,0.0,0.0,0.0,2.4425,2.8094,3.0785,3.15,3.2099,3.2398,3.2319,3.0393,2.8213,2.5947,0.0,0.0,0.0,0.0,0.0,0.0,0.0,0.0,0.0,0.0,0.0,0.0,0.0,0.0,0.0,0.0,0.0,0.0,0.0,0.0,0.0,0.0,0.0,0.0,0.0,0.0,0.0,0.0,0.0,0.0,0.0,0.0,0.0,0.0,0.0,0.0,0.0,0.0,0.0,0.0,0.0,0.0,0.0,0.0,0.0,0.0,0.0,0.0,0.0,0.0,0.0,0.0,0.0,0.0,0.0,0.0,0.0,0.0,0.0,0.0,2.487,0.0,0.0,0.0,0.0,0.0,0.0,0.0,0.0,0.0,0.0,0.0,0.0,0.0,0.0,0.0,0.0,0.0,0.0,0.0,0.0,0.0,0.0,0.0,0.0,0.0,0.0,0.0,0.0,0.0,0.0,0.0,0.0,0.0,0.0,0.0,0.0,0.0,0.0,0.0,0.0,0.0,2.5053,2.7981,3.0464,3.2173,3.2419,3.2449,3.2375,3.1368,2.977,2.7486,2.4925,0.0,0.0,0.0,0.0,0.0,0.0,0.0,0.0,0.0,0.0,0.0,0.0,0.0,0.0,0.0,0.0,0.0,0.0,0.0,0.0,0.0,0.0,0.0,0.0,0.0,0.0,0.0,0.0,0.0,0.0,0.0,0.0,0.0,0.0,0.0,0.0,0.0,0.0,0.0,0.0,0.0,0.0,0.0,0.0,0.0,0.0,0.0,0.0,0.0,0.0,0.0,0.0,0.0,0.0,0.0,0.0,0.0,0.0,0.0,0.0,2.6633,0.0,0.0,0.0,0.0,0.0,0.0,0.0,0.0,0.0,0.0,0.0,0.0,0.0,0.0,0.0,0.0,0.0,0.0,0.0,0.0,0.0,0.0,0.0,0.0,0.0,0.0,0.0,0.0,0.0,0.0,0.0,0.0,0.0,0.0,0.0,0.0,0.0,0.0,0.0,0.0,2.5315,2.7919,3.0374,3.2392,3.253,3.2611,3.2896,3.1855,3.0548,2.9007,2.618,0.0,0.0,0.0,0.0,0.0,0.0,0.0,0.0,0.0,0.0,0.0,0.0,0.0,0.0,0.0,0.0,0.0,0.0,0.0,0.0,0.0,0.0,0.0,0.0,0.0,0.0,0.0,0.0,0.0,0.0,0.0,0.0,0.0,0.0,0.0,0.0,0.0,0.0,0.0,0.0,0.0,0.0,0.0,0.0,0.0,0.0,0.0,0.0,0.0,0.0,0.0,0.0,0.0,3.2821,3.2864,3.1559,3.2298,3.2404,3.1896,2.9608,2.9707,3.1219,2.8139,0.0,0.0,0.0,0.0,0.0,0.0,0.0,0.0,0.0,0.0,0.0,0.0,0.0,0.0,0.0,0.0,0.0,0.0,0.0,0.0,0.0,0.0,0.0,0.0,2.9056,2.9172,2.5129,0.0,0.0,0.0,0.0,0.0,0.0,0.0,0.0,0.0,0.0,0.0,2.5674,2.8158,3.044,3.2232,3.2604,3.2876,3.3303,3.2381,3.136,3.0345,2.7824,2.539,0.0,0.0,0.0,0.0,0.0,0.0,0.0,0.0,0.0,0.0,0.0,0.0,0.0,0.0,0.0,0.0,0.0,0.0,0.0,0.0,0.0,0.0,0.0,0.0,0.0,0.0,0.0,0.0,0.0,0.0,0.0,0.0,2.4335,2.5016,0.0,0.0,0.0,0.0,0.0,0.0,0.0,0.0,0.0,0.0,0.0,0.0,0.0,3.1212,3.1988,3.4921,3.5621,3.4174,3.6641,3.6855,3.5223,3.5311,3.5668,3.6056,3.4794,0.0,3.1274,3.0563,0.0,0.0,0.0,0.0,0.0,0.0,0.0,0.0,0.0,0.0,0.0,0.0,0.0,0.0,0.0,0.0,0.0,0.0,0.0,0.0,0.0,0.0,3.3425,3.2736,3.2796,3.2497,0.0,2.7735,2.5078,2.3876,2.2832,0.0,0.0,0.0,0.0,0.0,0.0,0.0,2.7016,2.9116,3.07,3.1564,3.2748,3.3239,3.2681,3.3504,3.3186,3.119,3.0074,2.8484,2.6218,2.3579,0.0,0.0,0.0,0.0,0.0,0.0,0.0,0.0,0.0,0.0,0.0,0.0,0.0,0.0,0.0,0.0,0.0,0.0,0.0,0.0,0.0,0.0,0.0,0.0,0.0,0.0,0.0,0.0,0.0,2.4256,2.5806,2.6105,2.6199,2.5688,0.0,0.0,0.0,0.0,0.0,0.0,0.0,0.0,0.0,3.3425,3.4023,3.4839,3.5945,3.8014,3.8538,3.7491,3.8619,3.8745,3.7946,3.6688,3.6308,3.6507,3.5444,3.429,3.3152,3.2864,3.1954,3.0685,0.0,0.0,0.0,0.0,2.9347,2.9462,3.2109,3.2587,3.1988,3.1839,0.0,0.0,0.0,0.0,0.0,0.0,0.0,0.0,0.0,0.0,3.4891,3.4203,3.4622,3.4801,3.3484,3.1539,2.9259,0.0,2.6233,2.5385,2.2366,0.0,0.0,0.0,0.0,2.5974,2.7889,2.9535,3.0761,3.1421,3.2756,3.347,3.3157,3.3978,3.3897,3.251,3.136,2.9905,2.8062,2.5913,2.4139,0.0,0.0,0.0,0.0,0.0,0.0,0.0,0.0,0.0,0.0,0.0,0.0,0.0,0.0,0.0,0.0,0.0,0.0,0.0,0.0,0.0,0.0,0.0,0.0,0.0,0.0,0.0,0.0,2.6335,2.7788,2.7867,2.854,2.8255,0.0,0.0,0.0,0.0,0.0,0.0,3.2676,3.3693,3.5121,3.6996,3.7198,3.7638,3.8428,3.9615,4.0021,3.965,3.9991,4.0174,4.0104,3.8254,3.7316,3.6964,3.6013,3.5325,3.4866,3.4536,3.4148,3.364,3.3124,3.2582,3.2245,3.3536,3.3595,3.3515,3.6462,3.6956,3.6118,3.5489,3.4352,3.2886,3.0761,0.0,0.0,0.0,0.0,3.1574,3.3333,3.5011,3.6118,3.5642,3.6271,3.6596,3.5312,3.4592,3.3185,0.0,2.9382,2.8587,2.467,0.0,0.0,0.0,0.0,2.8188,2.9705,3.0897,3.1716,3.2006,3.2989,3.3598,3.3598,3.4169,3.4285,3.3706,3.2476,3.1089,2.9619,2.8096,2.6434,2.4584,0.0,0.0,0.0,0.0,0.0,0.0,0.0,0.0,0.0,0.0,0.0,0.0,0.0,0.0,0.0,0.0,0.0,0.0,0.0,0.0,0.0,0.0,0.0,0.0,0.0,0.0,0.0,0.0,0.0,3.1271,3.2407,0.0,0.0,0.0,0.0,3.2108,3.3455,3.4803,3.6178,3.8033,3.8907,3.8601,3.9168,3.8956,3.7965,3.9139,3.979,3.9917,4.1052,4.1623,4.1685,4.0924,4.0006,3.8932,3.822,3.6968,3.5449,3.5271,3.549,3.5963,3.6315,3.6347,3.6354,3.7639,3.7699,3.743,3.9499,3.9349,3.8452,3.9649,3.7913,3.522,3.4444,3.3275,0.0,0.0,3.4201,3.5517,3.6836,3.7704,3.8242,3.8212,3.8242,3.7943,3.6656,3.6357,3.5519,0.0,3.13,3.012,2.9017,0.0,2.7765,2.8706,2.9794,3.1213,3.3212,3.404,3.4265,3.3671,3.3588,3.3598,3.3598,3.4186,3.4536,3.445,3.3728,3.2645,3.1157,2.9687,2.813,2.6589,2.4406,0.0,0.0,0.0,0.0,0.0,0.0,0.0,0.0,0.0,0.0,0.0,0.0,0.0,0.0,0.0,0.0,0.0,0.0,0.0,0.0,0.0,0.0,0.0,0.0,0.0,0.0,0.0,0.0,3.3365,3.4592,0.0,3.3246,3.3455,3.4083,3.5011,3.6686,3.7753,3.7893,3.9314,3.9865,3.9369,3.9899,3.9865,3.9112,4.0259,4.0928,4.1073,4.0692,4.0928,4.1726,4.0657,3.958,3.8415,3.8993,3.8433,3.7157,3.7514,3.7541,3.7468,3.8285,3.9011,3.9715,4.0157,4.0157,4.0068,4.0786,4.0726,4.0247,3.9888,3.896,3.7823,3.6716,3.6028,3.5789,3.6447,3.6985,3.7464,3.7913,3.8542,3.8841,3.7973,3.7764,3.7524,3.6656,3.6148,3.5579,3.4622,3.3694,3.2436,3.0383,3.0453,3.0772,3.0798,3.1845,3.3208,3.4868,3.524,3.5134,3.4419,3.4324,3.4285,3.426,3.4471,3.4379,3.382,3.3558,3.2747,3.1258,3.0243,2.8991,2.7418,2.6184,2.3996,0.0,0.0,0.0,0.0,0.0,0.0,0.0,0.0,0.0,0.0,0.0,0.0,0.0,0.0,0.0,0.0,0.0,0.0,0.0,0.0,0.0,0.0,0.0,0.0,0.0,0.0,3.4891,3.5162,3.6716,3.7285,3.5971,3.6626,3.7352,3.7794,3.9239,3.9829,3.9329,4.0265,4.0485,3.9753,4.0069,3.9921,3.9232,4.0129,4.0871,4.1412,4.0733,4.1288,4.2912,4.1883,4.0965,4.0256,4.0889,4.0435,3.9298,3.9728,3.9912,3.9999,4.0196,4.09,4.1782,4.1953,4.1893,4.1752,4.1752,4.1752,4.1572,4.0427,4.0068,3.9888,3.8751,3.8422,3.8452,3.8691,3.8751,3.8751,3.8751,3.908,3.914,3.8003,3.7734,3.7494,3.6656,3.6148,3.5759,3.5549,3.513,3.4173,3.2198,3.2587,3.3155,3.3039,3.3991,3.5225,3.667,3.6867,3.6594,3.5902,3.5364,3.5031,3.4963,3.4493,3.4091,3.3786,3.3288,3.2476,3.1258,3.048,2.9379,2.7824,2.659,2.4538,2.167,0.0,0.0,0.0,0.0,0.0,0.0,0.0,0.0,0.0,0.0,0.0,0.0,0.0,0.0,0.0,0.0,0.0,0.0,0.0,0.0,0.0,0.0,0.0,3.154,3.4978,3.7255,3.6716,3.8931,3.9978,3.8691,3.9768,4.0533,4.0584,4.1133,4.1156,4.0519,4.1123,4.0974,3.9807,3.9786,3.9236,3.8065,3.8617,3.9546,4.0821,4.1327,4.293,4.5343,4.471,4.4496,4.4556,4.3921,4.2975,4.1844,4.1862,4.2564,4.3517,4.2176,4.1994,4.253,4.312,4.294,4.244,4.244,4.244,4.2321,4.1662,4.1452,4.1332,4.0636,4.0427,4.0277,3.9649,3.9439,3.9439,3.9439,3.9373,3.926,3.8571,3.8392,3.8063,3.6806,3.6507,3.6297,3.5669,3.5519,3.528,3.4653,3.4533,3.4785,3.5519,3.6311,0.0,3.8728,3.8982,3.8782,3.8103,3.6653,3.577,3.5729,3.4362,3.3792,3.445,3.3072,3.1955,3.1224,3.048,2.9379,2.7858,2.5676,2.3935,2.2678,0.0,0.0,0.0,0.0,0.0,0.0,0.0,0.0,0.0,0.0,0.0,0.0,0.0,0.0,0.0,0.0,0.0,0.0,0.0,0.0,0.0,3.2168,3.4741,3.4442,3.6537,3.8781,4.0583,4.1422,4.2081,4.2641,4.303,4.285,4.1948,4.2467,4.1996,4.0081,4.0547,4.0316,3.9216,3.9499,3.9576,3.9245,3.9396,4.0134,4.1353,4.1512,4.2447,4.4069,4.4807,4.463,4.3864,4.4567,4.4163,4.3045,4.35,4.3869,4.4064,4.281,4.2901,4.3748,4.3409,4.32,4.306,4.306,4.306,4.297,4.2351,4.2141,4.2021,4.1362,4.1115,4.0965,4.0307,4.0127,4.0008,3.9559,3.9373,3.9343,3.917,3.8751,3.8302,3.7943,3.7135,3.6447,3.6237,3.5818,3.5459,3.525,3.522,3.5478,3.623,3.7008,0.0,3.8767,3.9443,3.953,3.8816,3.7918,3.7119,3.6558,3.5143,3.4124,3.3719,3.2307,3.1393,3.119,3.048,2.9668,2.8687,2.6979,2.548,0.0,0.0,0.0,0.0,0.0,0.0,0.0,0.0,0.0,0.0,0.0,0.0,0.0,0.0,0.0,0.0,0.0,0.0,0.0,0.0,0.0,0.0,3.519,3.7644,3.8631,3.9738,4.1025,4.2581,4.324,4.3898,4.4646,4.4736,4.4091,4.2543,4.2822,4.2086,3.9884,4.0022,3.9928,3.9271,3.9521,3.9697,3.9697,4.0211,4.0895,4.1591,4.2133,4.3074,4.4303,4.507,4.5298,4.5115,4.5869,4.5779,4.5132,4.5461,4.561,0.0,0.0,0.0,0.0,0.0,4.3529,4.329,4.329,4.329,4.323,4.288,4.2761,4.2641,4.2021,4.1841,4.1692,4.0995,4.0606,4.0307,3.9918,3.9619,3.9373,3.9373,3.911,3.8751,3.8452,3.7793,3.7135,3.6596,3.6178,0.0,3.5549,3.5519,3.575,3.6508,3.6994,3.7703,3.8772,3.9315,3.9546,3.9454,3.8841,3.8229,3.7763,3.6041,0.0,0.0,0.0,3.136,3.0751,3.004,0.0,0.0,0.0,0.0,0.0,0.0,0.0,0.0,2.5517,2.5457,0.0,0.0,0.0,0.0,0.0,0.0,0.0,0.0,0.0,0.0,0.0,0.0,0.0,0.0,0.0,0.0,3.7913,3.9978,4.2901,4.3499,4.3618,4.3618,4.4706,4.5454,4.5514,4.5388,4.4558,4.274,4.2469,4.1619,3.9826,0.0,0.0,0.0,0.0,3.98,3.9929,4.1019,4.164,4.1838,4.3122,4.4303,4.5389,4.5553,4.6211,4.7309,4.7309,4.7309,4.7309,4.7309,4.7309,4.7189,4.5903,4.5364,4.5214,4.4646,4.4047,4.3499,4.3439,0.0,0.0,4.3319,4.329,4.32,4.2641,4.25,4.2381,4.1722,4.1055,4.0576,4.0427,3.9978,3.9499,3.9439,3.9373,3.926,3.8631,3.8452,3.8063,3.6926,3.6596,3.6297,3.5729,3.5549,3.5718,3.6384,3.6538,3.7083,3.8465,3.8799,3.9183,3.9901,0.0,0.0,3.9005,3.7077,3.5769,3.56,3.3592,3.1799,3.0412,2.9803,2.945,2.9382,3.0006,3.0311,3.0243,3.0954,3.1326,3.1278,2.8733,2.8169,0.0,0.0,0.0,0.0,0.0,0.0,0.0,0.0,0.0,0.0,0.0,0.0,0.0,0.0,0.0,3.7015,4.0127,4.2572,4.3269,4.4736,4.5711,4.5711,4.592,4.6322,4.686,4.5962,4.48,4.3405,4.2334,4.1165,3.9775,3.9697,3.9697,3.9697,3.9697,4.016,4.1219,4.1468,4.2133,4.317,0.0,0.0,4.5434,4.6462,4.7062,4.7309,4.7309,4.7309,4.7309,4.7309,4.7309,4.7219,4.6441,4.5783,4.5274,4.5155,4.5035,4.4855,4.4317,4.4137,4.4047,4.3469,4.329,4.326,4.314,4.315,0.0,4.2381,4.2111,4.1782,4.0666,4.0307,4.0068,3.9559,3.9373,3.9343,3.926,3.8781,3.8332,3.8063,3.7195,3.6447,3.6327,3.5848,3.5554,3.5686,3.6228,3.6691,3.7024,3.8129,3.8962,3.9129,3.9613,3.9673,3.9039,3.8058,3.6918,3.5667,3.41,3.278,3.1921,3.2307,3.2273,3.1684,3.1819,3.1562,3.0987,3.1752,3.209,3.2056,3.093,3.0537,0.0,0.0,0.0,0.0,0.0,0.0,0.0,0.0,0.0,0.0,0.0,3.2527,3.4173,0.0,3.8482,4.0061,4.2004,4.3648,4.4706,4.5693,4.6279,4.6279,4.6621,4.695,4.7279,4.6166,4.4886,4.3598,4.2301,4.1019,3.98,3.9697,3.9697,3.9697,3.9697,4.0313,4.1591,4.223,4.317,4.4442,4.5734,4.6344,4.6344,4.7019,4.7309,4.7309,4.7309,4.7309,4.7309,4.7309,4.7309,4.7279,4.695,4.6411,4.5813,4.5813,4.5603,4.5244,4.4915,4.4586,4.4257,4.3888,4.3559,4.329,4.329,4.329,4.323,4.294,4.265,4.2261,4.1602,4.0876,4.0307,3.9978,3.9612,3.9373,3.9373,3.914,3.8811,3.8452,3.7883,3.7225,3.6596,3.6207,3.5878,3.5549,3.5814,3.6196,3.6538,3.7261,3.7901,3.8302,3.9049,3.9339,3.8972,3.8639,3.7821,3.6299,3.552,3.4742,3.3964,3.4303,3.4336,3.3964,3.4358,3.4358,3.402,3.4742,3.5081,3.5081,3.4709,3.4134,0.0,0.0,0.0,0.0,0.0,0.0,0.0,0.0,3.0492,3.2437,3.4352,3.6118,3.7704,3.92,4.0838,4.2961,4.3618,4.4426,4.604,4.6399,4.6416,4.6129,4.6604,4.7019,4.7266,4.5689,4.4349,4.3551,4.2084,4.0794,3.9749,3.9697,3.9697,3.9697,3.9697,4.0313,4.1591,4.2593,4.3882,4.5389,4.6432,4.7062,4.7309,4.7309,4.7309,4.7309,4.7309,4.7309,4.7309,4.7309,4.7309,4.7309,4.7309,4.698,4.6459,4.6459,4.6172,4.5663,4.5544,4.5155,4.4676,4.4407,4.3917,4.3469,4.3319,4.329,4.329,4.329,4.294,4.256,4.244,4.1602,4.0726,4.0457,4.0008,3.9589,3.9439,3.9373,3.926,3.8691,3.8482,3.8063,3.7045,3.6656,3.6267,3.5609,3.5519,3.5686,3.6291,3.6508,3.6843,3.7499,3.8386,3.8962,3.9129,3.9076,3.8464,3.7303,3.71,3.6705,3.6073,3.6039,3.6039,3.6039,3.6671,3.7032,3.7032,3.7618,3.7922,3.7922,3.8058,3.7381,2.9056,2.7859,2.8004,2.9654,2.9654,3.0492,0.0,0.0,3.528,3.7225,3.8751,3.9798,4.0038,4.1624,4.2961,4.323,4.4784,4.604,4.6249,4.683,4.6769,4.5618,4.5541,4.6077,4.7222,4.4116,4.2447,4.3456,4.1269,3.9826,3.9697,3.9697,3.9697,3.9697,3.9697,4.0313,4.1591,4.1739,4.3026,4.5389,4.5553,4.6211,4.7309,4.7309,4.7309,4.7309,4.7309,4.7309,4.7309,4.7309,4.7309,4.7309,4.7309,4.7249,4.7189,4.7189,4.716,4.701,4.6411,4.613,4.5903,4.4706,4.4257,4.4107,4.3469,4.329,4.329,4.329,4.323,4.309,4.256,4.2291,4.1901,4.0666,4.0337,4.0127,3.9559,3.9373,3.9409,3.932,3.8811,3.8332,3.8212,3.7225,3.6267,3.5609,3.5519,3.5522,3.5619,3.6196,3.663,3.6722,3.8015,3.9209,3.9901,3.9386,3.8937,3.8768,3.8125,3.7753,3.7652,3.7652,3.7652,3.7652,3.7753,3.7787,3.7787,3.7855,3.7922,3.7922,3.8565,3.843,3.3006,3.2137,3.2018,3.3574,3.4053,3.4921,3.7913,3.8153,3.8242,3.9798,4.0913,4.1572,4.1572,4.2821,4.3775,0.0,4.4368,4.5054,4.4731,4.4629,4.4436,4.3906,4.3505,4.3743,4.4938,4.3646,4.2593,4.2398,4.0693,3.9697,3.9697,3.9697,3.9697,3.9697,3.9697,4.0313,4.1591,4.235,4.3598,4.5389,4.6166,4.677,4.7309,4.7309,4.7309,4.7309,4.7309,4.7309,4.7309,4.7309,4.7309,4.7309,4.7309,4.7309,4.7309,4.7309,4.7309,4.7279,4.698,4.6651,4.619,4.5663,4.4945,4.4257,4.3988,4.3589,4.329,4.329,4.329,4.323,4.3,4.2641,4.2261,4.1722,4.0965,4.0337,4.0038,3.9679,3.9373,3.9373,3.92,3.8871,3.8452,3.7943,3.7255,3.6237,3.5759,3.5651,3.6071,3.6038,3.629,3.7174,3.8274,3.9236,4.0003,3.9842,3.9639,3.9639,3.9368,3.9174,3.9174,3.9174,3.9174,3.9174,3.9174,3.9174,3.9174,3.9174,3.9174,3.9174,3.9503,3.9445,3.4658,3.4531,3.4761,3.5644,3.681,3.8085,3.921,3.9847,4.0487,4.1482,4.2201,4.2641,4.2641,4.3539,4.4086,4.3502,4.3991,4.4219,4.3563,4.3306,4.2952,4.2436,4.2407,4.2379,4.2254,4.2494,4.2382,4.164,4.0415,3.9697,3.9697,3.9697,3.9697,3.9697,3.9697,4.0134,4.1069,4.1985,4.3074,4.4349,4.5644,4.6432,4.677,4.7149,4.7309,4.7309,4.7309,4.7309,4.7309,4.7309,4.7309,4.7309,4.7309,4.7309,4.7309,4.7309,4.7309,4.7309,4.7309,4.698,4.6561,4.6339,4.5622,4.4796,4.4436,4.3947,4.3529,4.3349,4.329,4.329,4.329,4.3,4.262,4.244,4.1662,4.0846,4.0487,4.0038,3.9649,3.9469,3.9373,3.926,3.8751,3.8512,3.8093,3.7135,3.6297,3.5993,3.6508,3.6321,3.6631,3.7962,3.858,3.9236,4.0003,4.0113,4.0113,4.0113,4.0113,4.0113,4.0113,4.0113,4.0113,4.0113,4.0113,4.0113,4.0113,4.0113,4.0113,4.0113,4.0113,4.0113,3.2468,3.3321,3.4626,3.426,3.6437,3.8812,3.9474,4.1008,4.2321,4.2351,4.2851,4.326,4.326,4.3828,4.4086,4.3502,4.3991,4.4219,4.3563,4.3998,4.3674,4.1763,4.3141,4.2849,0.0,3.9991,4.0961,4.1565,4.0415,3.9697,3.9697,3.9697,3.9697,3.9697,3.9697,3.9749,3.9749,3.98,4.0465,4.1739,4.3026,4.4256,4.5508,4.6726,4.7309,4.7309,4.7309,4.7309,4.7309,4.7309,4.7309,4.7309,4.7309,4.7309,4.7309,4.7309,4.7309,4.7309,4.7309,4.7309,4.716,4.6488,4.6249,4.6022,4.4706,4.4317,4.4137,4.3469,4.329,4.329,4.329,4.329,4.315,4.256,4.2381,4.1991,4.0666,4.0397,4.0187,3.9559,3.9373,3.9373,3.9343,3.8841,3.8392,3.8332,3.7255,3.6507,3.6569,3.7263,3.8019,3.8799,3.8881,3.9236,4.0003,4.0113,4.0113,4.0113,4.0113,4.0113,4.0113,4.0113,4.0113,4.0113,4.0113,4.0113,4.0113,4.0113,4.0113,4.0113,4.0113,4.0113,3.4134,3.4707,3.5232,3.6341,3.7756,3.9211,4.0605,4.0837,4.106,4.2158,4.1942,4.1624,4.1987,4.2581,4.2729,4.1659,4.2021,4.2158,4.1138,4.0871,4.0233,3.8787,3.9841,0.0,0.0,0.0,0.0,3.9825,3.9424,3.9295,3.9672,3.9697,3.9697,3.9697,3.9697,3.9697,3.9697,4.0567,4.1169,4.164,4.374,4.5434,4.6682,4.7106,4.7309,4.7309,4.7309,4.7309,4.7309,4.7309,4.7309,4.7309,4.7309,4.7309,4.7309,4.7309,4.7309,4.7309,4.7309,4.7309,4.7279,4.704,4.6681,4.619,4.5741,4.5035,4.4257,4.4047,4.3618,4.329,4.329,4.329,4.323,4.306,4.2671,4.2291,4.1841,4.1025,4.0337,4.0127,3.9709,3.9373,3.9373,3.923,3.8901,3.8452,3.8194,3.7685,3.6723,3.8218,3.9209,3.8935,3.9368,3.9825,4.0087,4.0113,4.0113,4.0113,4.0113,4.0113,4.0113,4.0113,4.0113,4.0113,4.0113,4.0113,4.0113,4.0113,4.0113,4.0113,4.0113,4.0113,3.4925,3.5317,3.5413,3.6716,3.7849,3.8913,4.0077,4.0251,4.0491,4.1546,4.1106,4.0637,4.0972,4.1175,4.1008,4.0015,4.0381,4.046,3.955,3.9297,3.8881,3.7887,3.8608,3.8515,0.0,0.0,0.0,3.8969,3.8919,3.912,3.9672,3.9697,3.9697,3.9697,3.9697,3.9697,3.9697,4.0516,4.1169,4.1591,4.3266,4.4978,4.6638,4.6638,4.6887,4.7309,4.7309,4.7309,4.7309,4.7309,4.7309,4.7309,4.7309,4.7309,4.7309,4.7309,4.7309,4.7309,4.7309,4.7309,4.7309,4.7309,4.701,4.6621,4.6339,4.5681,4.4975,4.4736,4.4197,4.3648,4.3648,4.3469,4.329,4.329,4.3,4.2641,4.244,4.1722,4.1025,4.0786,4.0217,3.9768,3.9768,3.9589,3.92,3.8482,3.8791,3.8683,3.7526,3.8743,3.9584,3.9342,3.9799,4.0113,4.0113,4.0113,4.0113,4.0113,4.0113,4.0113,4.0113,4.0113,4.0113,4.0113,4.0113,4.0113,4.0113,4.0113,4.0113,4.0113,4.0113,4.0113,3.4788,3.5208,3.5271,3.5486,3.681,3.8017,3.8126,3.9317,4.0445,4.0493,4.0323,4.0173,0.0,0.0,3.9148,3.8658,3.9086,3.9355,3.8968,3.9429,3.9554,0.0,0.0,0.0,0.0,0.0,0.0,3.8844,0.0,3.9069,3.9672,3.9697,3.9697,3.9697,3.9697,3.9697,3.9697,3.9697,4.0364,4.1591,4.164,4.2978,4.5298,4.5434,4.6121,4.7222,4.7266,4.7309,4.7309,4.7309,4.7309,4.7309,4.7309,4.7309,4.7309,4.7309,4.7309,4.7309,4.7309,4.7309,4.7309,4.7309,4.7309,4.7189,4.6518,4.6309,4.6202,4.5544,4.4885,4.4347,4.4317,4.3798,4.3319,4.329,4.329,4.311,4.259,4.241,4.2201,4.1602,4.0876,4.0397,4.0397,3.9858,3.92,3.8542,3.9055,3.9366,3.8922,3.8902,3.9242,4.0071,4.0113,4.0113,4.0113,4.0113,4.0113,4.0113,4.0113,4.0113,4.0113,4.0113,4.0113,4.0113,4.0113,4.0113,4.0113,4.0113,4.0113,4.0113,4.0113,4.0113,3.5262,3.5634,3.5552,3.6074,3.6514,3.716,3.8411,3.8326,3.8196,3.8852,3.8245,3.731,0.0,0.0,0.0,3.6669,3.8206,0.0,3.8968,3.9399,0.0,3.8331,0.0,3.8617,3.7311,3.767,0.0,0.0,3.8467,3.8668,3.9647,3.9697,3.9697,3.9697,3.9697,3.9697,3.9697,3.9697,4.0364,4.1591,4.2544,4.3361,4.4069,4.5958,4.6462,4.5913,4.6887,4.7309,4.7309,4.7309,4.7309,4.7309,4.7309,4.7309,4.7309,4.7309,4.7309,4.7309,4.7309,4.7309,4.7309,4.7309,4.7309,4.7279,4.71,4.6711,4.6249,4.6112,4.5574,4.4915,4.4436,4.4197,4.3917,4.3409,4.329,4.326,4.312,4.2701,4.2351,4.2171,4.1175,4.0397,4.0397,3.9858,3.9313,3.917,3.8898,3.8923,3.9559,3.965,3.9978,4.0822,4.0451,4.0113,4.0113,4.0113,4.0113,4.0113,4.0113,4.0113,4.0113,4.0113,4.0113,4.0113,4.0113,4.0113,4.0113,4.0113,4.0113,4.0113,4.0113,4.0113,3.6027,3.6205,3.5981,3.6329,3.6182,3.6218,3.709,3.6715,3.6239,3.6338,3.578,3.4974,3.384,3.4596,3.5334,0.0,0.0,0.0,3.8463,3.8768,3.8818,0.0,3.8668,0.0,3.7638,3.8065,3.8517,0.0,3.8567,3.8768,3.9647,3.9697,3.9697,3.9697,3.9697,3.9697,3.9697,3.9697,4.0364,4.1591,4.1739,4.2689,4.4349,4.5252,4.5824,4.6255,0.0,4.7309,4.7309,4.7309,4.7309,4.7309,4.7309,4.7309,4.7309,4.7309,4.7309,4.7309,4.7309,4.7309,4.7309,4.7309,4.7309,4.7309,4.7309,4.704,4.6741,4.6741,4.6262,4.5663,4.5304,4.4766,4.4227,4.3798,4.3499,4.329,4.329,4.303,4.2701,4.244,4.1811,4.1085,4.0487,4.0098,3.9738,3.9433,3.908,3.9187,4.0131,4.0053,4.0245,4.1133,4.0832,4.0451,4.0146,4.0113,4.0113,4.0113,4.0113,4.0113,4.0113,4.0113,4.0113,4.0113,4.0113,4.0113,4.0113,4.0113,4.0113,4.0113,4.0113,4.0113,3.6768,3.6698,3.6405,3.6405,3.6024,3.5658,3.5365,3.517,3.4742,3.3619,3.3243,3.2856,3.2138,3.2537,3.3243,3.3992,0.0,3.6944,3.8054,3.8312,3.8515,3.8969,3.902,3.8768,3.8291,3.8693,3.902,3.902,3.902,3.9195,3.9672,3.9697,3.9697,3.9697,3.9697,3.9697,3.9697,3.9697,4.0262,4.1369,4.0541,4.1739,4.4627,4.421,4.5024,4.6814,4.7149,4.7309,4.7309,4.7309,4.7309,4.7309,4.7309,4.7309,4.7309,4.7309,4.7309,4.7309,4.7309,4.7309,4.7309,4.7309,4.7309,4.7309,4.7309,4.7309,4.7309,4.7309,4.689,4.6399,4.6309,4.5454,4.4526,4.4347,4.3868,4.3409,4.3319,4.329,4.314,4.265,4.244,4.2021,4.0846,4.0516,4.0217,3.9649,3.9433,3.9702,4.0588,4.0292,4.0375,4.1251,4.1354,4.1068,4.0451,4.0383,4.0383,4.0383,4.0316,4.0248,4.0248,4.0146,4.0113,4.0113,4.0113,4.0113,4.0113,4.0113,4.0113,4.0113,4.0113,4.0113,3.6611,3.6471,3.6405,3.6405,3.6601,3.6665,3.5939,3.527,0.0,0.0,3.1424,3.0672,2.9505,3.1514,3.3659,3.4469,3.7013,3.9046,3.9438,3.9864,3.9992,0.0,3.9546,3.9521,3.9421,3.9496,0.0,0.0,3.9546,3.9597,3.9697,3.9697,3.9697,3.9697,3.9697,3.9697,3.9697,3.9697,3.98,4.0032,4.1936,4.2084,4.0844,4.484,4.5734,4.4256,4.6388,0.0,4.7309,4.7309,4.7309,4.7309,4.7309,4.7309,4.7309,4.7309,4.7309,4.7309,4.7309,4.7309,4.7309,4.7309,4.7309,4.7309,4.7309,4.7309,4.7309,4.7309,4.7219,4.701,4.6429,4.6142,4.5651,4.4586,4.4227,4.3947,4.3409,4.329,4.326,4.314,4.2731,4.2321,4.2081,4.1115,4.0367,4.0247,3.9768,3.9702,4.0588,4.0702,4.1042,4.1927,4.2104,4.2049,4.1914,4.1941,4.1941,4.1941,4.1339,4.1001,4.1001,4.0392,4.0113,4.0113,4.0113,4.0113,4.0113,4.0113,4.0113,4.0113,4.0113,4.0113,3.7352,3.6849,3.6405,3.6405,3.6276,3.5854,3.4666,0.0,0.0,0.0,2.8936,2.8278,2.7679,2.9243,0.0,3.2916,3.4558,3.6286,3.81,3.8489,3.8795,3.9247,3.9521,3.9697,0.0,3.9697,3.9697,3.9697,3.9697,3.9697,3.9697,3.9697,3.9697,3.9697,3.9697,3.9697,3.9697,3.9697,4.0032,4.0693,4.1269,4.1591,4.1739,4.421,4.5024,4.4581,4.6506,4.7309,4.7309,4.7309,4.7309,4.7309,4.7309,4.7309,4.7309,4.7309,4.7309,4.7309,4.7309,4.7309,4.7309,4.7309,4.7309,4.7309,4.7309,4.7309,4.7309,4.7309,4.7309,4.7249,4.692,4.6591,4.613,4.5514,4.4825,4.4137,4.3439,4.329,4.329,4.329,4.309,4.2761,4.244,4.1871,4.1294,4.0965,4.0337,4.0215,4.111,4.1365,4.1656,4.2147,4.2624,4.2726,4.232,4.2286,4.2286,4.2286,4.1982,4.1779,4.1779,4.1407,4.1238,4.1238,4.0865,4.0663,4.0663,4.0282,4.0316,4.0663,4.0663,4.0865,3.7927,3.714,3.638,3.6254,3.5922,3.5136,3.3236,3.1758,0.0,2.788,2.6746,2.6213,2.6363,2.7208,2.88,0.0,3.2337,3.3669,3.6731,3.7289,3.7788,0.0,3.9346,0.0,3.9697,3.9697,0.0,3.9697,3.9697,3.9697,3.9697,3.9697,3.9697,3.9697,3.9697,3.9697,3.9697,3.9697,4.0211,4.1169,4.0465,4.1019,4.2689,4.3266,4.4069,4.507,4.6344,4.7062,4.7309,4.7309,4.7309,4.7309,4.7309,4.7106,4.6931,4.7222,4.7106,4.6931,4.7222,4.7309,4.7309,4.7309,4.7309,4.7309,4.7309,4.7309,4.7309,4.7309,4.7309,4.7309,4.7309,4.692,4.6501,4.6309,4.5304,4.4167,4.3618,4.3379,4.329,4.329,4.329,4.314,4.2641,4.2664,4.2546,4.1965,4.1485,4.1398,4.1918,4.2296,4.2487,4.244,4.3193,4.3436,4.2828,4.2794,4.2794,4.2794,4.2625,4.2523,4.2523,4.2388,4.2286,4.2286,4.1745,4.1441,4.1441,4.0832,4.0865,4.1441,4.1441,4.1745,3.7467,3.681,3.6279,3.5708,3.6158,3.5978,3.289,0.0,2.9814,2.723,2.5674,2.4963,2.5585,2.6738,0.0,0.0,3.3477,3.5078,3.7332,3.8569,3.9146,3.8943,0.0,0.0,3.9697,3.9697,3.9697,3.9697,3.9697,3.9697,3.9697,3.9697,3.9697,3.9697,3.9697,3.9697,3.9697,3.9697,3.9749,3.9878,4.0945,4.0945,4.0134,4.2447,4.3551,4.374,4.5024,4.6211,0.0,4.7309,4.7309,4.7309,4.7309,4.6594,4.5734,4.6887,4.6594,4.5734,4.6931,4.7309,4.7309,4.7309,4.7309,4.7309,4.7309,4.7309,4.7309,4.7309,4.7309,4.7309,4.7309,4.7249,4.707,4.6429,4.5304,4.4287,4.4227,4.3708,4.329,4.329,4.329,4.326,4.323,4.3442,4.3654,4.3592,4.3721,4.3641,4.3035,4.3651,4.392,4.329,4.3963,4.4479,4.4412,4.4412,4.4412,4.4412,4.3707,4.3274,4.3274,4.2658,4.2286,4.2286,4.2219,4.2185,4.2185,4.2117,4.2117,4.2185,4.2185,4.2219,3.807,3.7325,3.6279,3.5633,3.5913,3.5471,3.2282,3.0737,2.9205,2.6542,2.4926,2.4186,2.4874,2.5412,2.6698,2.9519,3.0075,3.1188,3.4158,3.5062,3.5933,3.7474,3.8258,0.0,0.0,0.0,3.9697,3.9697,3.9697,3.9697,3.9697,3.9697,3.9697,3.9697,3.9697,3.9697,3.9697,3.9697,3.9697,3.9697,4.0211,4.016,3.9749,4.1541,4.2786,4.3551,4.484,4.6121,0.0,4.6462,4.6594,4.7149,4.5598,4.5644,4.6506,4.6255,4.6299,4.6638,4.7106,4.7309,4.7309,4.7309,4.7309,4.7309,4.7309,4.7309,4.7309,4.7309,4.7309,4.7309,4.7309,4.7309,4.713,4.6429,4.5861,4.5263,4.4496,4.4107,4.3768,4.3379,4.329,4.329,4.329,4.3915,4.4378,4.4378,4.4622,4.4876,4.5114,4.5108,4.4986,4.4771,4.4653,4.4615,4.4615,4.4615,4.4615,4.4615,4.4282,4.4113,4.4113,4.3842,4.3701,4.3701,4.32,4.2963,4.2963,4.2523,4.2523,4.2963,4.2963,4.3234,3.7745,3.7245,3.6213,3.5653,3.5668,3.5045,3.2089,3.0323,2.8577,2.6123,2.4537,2.3759,2.4216,2.4485,2.5284,2.7453,2.7674,2.8648,3.1715,3.2508,3.352,0.0,0.0,3.786,0.0,3.9981,4.0134,3.9749,3.9697,3.9697,3.9697,3.9697,3.9697,3.9697,3.9697,3.9697,3.9697,3.9697,3.9697,3.9697,3.9697,3.9697,3.9749,4.0642,4.1739,4.3026,4.4256,4.5553,0.0,4.6166,4.6255,4.655,4.4794,4.4674,4.5553,4.5024,4.5161,4.5734,4.6506,4.6726,4.677,4.7149,4.7309,4.7309,4.7309,4.7309,4.7309,4.7309,4.7309,4.7309,4.7309,4.7309,4.7189,4.6741,4.6429,4.601,4.5125,4.4586,4.4167,4.3678,4.3439,4.329,4.329,4.4159,4.4812,4.4812,4.5187,4.5751,4.6421,4.609,4.5841,4.6022,4.5332,4.4769,4.4621,4.4615,4.4615,4.4615,4.4615,4.4615,4.4615,4.4615,4.4615,4.4615,4.4045,4.3775,4.3775,4.3234,4.3124,4.3373,4.363,4.4045,3.5971,3.6234,3.62,3.5637,3.5601,3.5032,3.2454,3.0192,2.8038,2.6033,2.4537,2.361,2.361,2.4156,2.5053,2.6393,2.7562,2.8987,3.1055,3.2177,3.3086,0.0,0.0,3.6493,3.8873,4.0636,4.1069,3.98,3.9697,0.0,3.9697,3.9697,3.9697,3.9697,3.9697,3.9697,3.9697,3.9697,3.9697,3.9697,3.9697,3.9697,3.9697,3.9697,4.0415,4.169,4.2978,4.4256,0.0,4.677,4.655,4.5389,4.5389,4.3882,4.1789,4.3074,4.2738,4.2035,4.4535,4.5389,4.5644,4.6887,4.7309,4.7309,4.7309,4.7309,4.7309,4.7309,4.7309,4.7309,4.7309,4.7309,4.7309,4.7309,4.68,4.6279,4.6249,4.5244,4.4317,4.4317,4.3738,4.329,4.329,4.4159,4.4812,4.4812,4.5597,4.6265,4.6487,4.6486,4.6542,4.6764,4.5963,4.518,4.4632,4.4615,4.4615,4.4615,4.4615,4.4615,4.4615,4.4615,4.4615,4.4615,4.4615,4.4581,4.4581,4.4581,4.415,4.332,4.4179,4.4615,3.4389,3.4903,3.4995,3.3542,3.3761,3.3534,3.0594,2.9228,2.7919,2.5412,2.4186,2.361,2.361,2.3789,2.4594,2.675,2.7357,2.8393,0.0,0.0,0.0,3.5853,3.8227,3.9628,0.0,0.0,4.0134,3.9749,3.9697,3.9697,3.9697,4.0567,4.0969,4.0969,4.0969,4.1419,4.2301,4.1419,4.0969,4.0969,4.0134,3.9697,3.9697,3.9697,4.0415,4.164,4.293,4.374,4.4116,4.4535,4.4442,4.3929,4.2181,4.2084,4.2834,4.235,4.2496,4.3122,4.484,4.5389,4.5598,4.6887,4.7309,4.7309,4.7309,4.7309,4.7309,4.7309,4.7309,4.7309,4.7309,4.7309,4.7309,4.7309,4.716,4.686,4.6369,4.595,4.5424,4.4496,4.4137,4.3828,4.3379,4.4159,4.4812,4.4812,4.5597,4.6459,4.7144,4.6678,4.6384,4.6575,4.6317,4.5943,4.5409,4.4741,4.4453,4.4592,4.4615,4.4615,4.4615,4.4615,4.4615,4.4615,4.4615,4.4615,4.4615,4.4006,4.3259,4.2426,4.329,4.371,3.272,3.3565,3.3909,3.2993,3.3027,3.26,3.0103,2.8655,2.723,2.5053,2.4066,2.361,2.361,2.3614,2.4305,2.6312,2.682,2.7795,0.0,0.0,0.0,3.5843,0.0,0.0,0.0,3.988,4.0211,3.9749,3.9697,3.9697,3.9697,4.0895,4.1838,4.2301,4.2301,4.2689,4.3504,4.223,4.1591,4.1591,4.0313,3.9697,3.9697,3.9697,4.0134,4.0945,4.223,4.2786,0.0,4.3313,4.3218,4.2641,4.1019,4.1069,4.1985,4.1169,4.169,4.2978,4.4256,4.5024,4.5598,4.6887,4.7309,4.7309,4.7309,4.7309,4.7309,4.7309,4.7309,4.7309,4.7309,4.7309,4.7309,4.7309,4.7309,4.7189,4.677,4.6501,4.604,4.5244,4.4855,4.4466,4.3768,4.4204,4.4511,4.4266,4.4743,4.5457,4.6416,4.6028,4.5978,4.6848,4.6585,4.642,4.6499,4.5738,4.528,4.5404,4.5162,4.4993,4.4993,4.475,4.4615,4.4615,4.4615,4.4615,4.4615,4.338,4.2707,4.2489,4.2395,4.2676,0.0,3.204,3.2737,3.3259,3.2773,3.1809,3.0462,2.8278,0.0,2.4814,2.4007,2.364,2.3729,2.3707,2.4194,2.564,2.6301,0.0,0.0,3.0937,0.0,0.0,3.7612,0.0,3.8213,4.0148,4.0995,3.98,3.9697,3.9697,3.9697,4.0969,4.2252,4.3456,4.3693,4.3787,4.3787,4.2496,4.1838,4.1739,4.0465,3.98,3.9697,3.9697,3.9697,0.0,4.1019,4.1541,4.1541,4.2834,4.2593,4.1468,4.1468,4.0743,3.9697,3.9697,4.0516,4.1789,4.3074,4.4303,4.5598,4.6887,4.7309,4.7309,4.7309,4.7309,4.7309,4.7309,4.7309,4.7309,4.7309,4.7309,4.7309,4.7309,4.7309,4.7309,4.7309,4.683,4.6339,4.6279,4.5813,4.5155,4.4496,4.4347,4.4107,4.3439,4.3319,4.3654,4.4662,4.4737,4.541,4.7205,4.6662,4.6608,4.7667,4.7173,4.6794,4.6786,4.6143,4.5771,4.5771,4.5094,4.475,4.4682,4.4649,4.4587,4.4497,4.2831,4.2395,4.3078,4.1492,4.1688,2.7369,0.0,2.9415,2.8527,2.8538,2.8423,0.0,2.6273,2.5465,2.4118,2.3699,2.3909,2.4956,2.4253,2.465,2.8085,2.8674,2.9105,3.0304,3.4094,0.0,3.7222,4.0336,4.1641,3.9525,3.9829,4.0032,3.9749,3.9697,3.9697,3.9697,4.1838,4.317,4.3504,4.5389,4.6388,4.6388,4.5161,4.4022,4.3026,4.1739,4.0642,3.9697,3.9697,3.9697,3.98,4.1019,4.1019,4.0262,4.1492,4.1319,4.0185,4.0185,3.9981,3.9697,3.9697,4.0516,4.1789,4.3074,4.4303,4.5598,4.6887,4.7309,4.7309,4.7309,4.7309,4.7309,4.7309,4.7309,4.7309,4.7309,4.7309,4.7309,4.7309,4.7309,4.7309,4.7309,4.7189,4.692,4.6369,4.616,4.5873,4.5185,4.4646,4.4257,4.4107,4.3618,4.3654,4.4662,4.412,4.4128,4.5337,4.5889,4.632,4.6572,4.6585,4.6658,4.679,4.6616,4.6549,4.6549,4.638,4.6007,4.5466,4.4886,4.427,4.3591,4.252,4.1756,4.1329,4.142,4.2082,2.5016,2.6871,2.8487,2.8068,2.8034,2.7794,2.6752,2.5794,2.4844,2.3819,2.361,2.3909,2.4933,2.454,2.5011,2.7969,2.8685,0.0,0.0,0.0,3.7838,3.8009,4.0218,4.1219,0.0,3.9697,3.9697,3.9697,3.9697,3.9697,3.9697,4.2133,4.3504,4.3504,4.5958,4.7309,4.7309,4.6032,4.507,4.4349,4.2496,4.1219,4.0541,3.9981,3.9697,3.9749,4.0415,4.0364,3.9749,4.0465,4.0313,3.9697,3.9697,3.9697,3.9697,3.9697,4.0895,4.2544,4.3266,4.472,4.6388,4.7062,4.7309,4.7309,4.7309,4.7309,4.7309,4.7309,4.7309,4.7309,4.7309,4.7309,4.7309,4.7309,4.7309,4.7309,4.7309,4.7309,4.7189,4.683,4.677,4.6561,4.5873,4.5484,4.5125,4.4825,4.4197,4.3978,4.45,4.3826,4.3693,4.4699,4.5634,4.6384,4.6799,4.7341,4.768,4.7804,4.7496,4.7293,4.7293,4.6989,4.6616,4.621,4.5805,4.5366,4.492,4.3588,4.2742,4.2239,4.1806,4.2248,2.3969,2.6273,2.8611,2.8681,2.8469,2.8072,2.7309,0.0,0.0,0.0,0.0,0.0,2.5053,2.5048,0.0,0.0,0.0,0.0,3.3434,3.5791,3.7416,3.8087,3.9247,0.0,3.9749,3.9697,3.9697,3.9697,3.9697,3.9697,3.9697,4.2133,4.3504,4.3504,4.5958,4.7309,4.7309,4.6211,4.5508,4.507,4.293,4.169,4.1269,4.016,3.9697,3.9697,0.0,0.0,3.9697,3.9697,3.9697,3.9697,3.9697,3.9697,3.9697,3.9697,4.1319,4.3551,4.3929,4.5508,4.7309,4.7309,4.7309,4.7309,4.7309,4.7309,4.7309,4.7309,4.7309,4.7309,4.7309,4.7309,4.7309,4.7309,4.7309,4.7309,4.7309,4.7309,4.7309,4.7309,4.7309,4.713,4.6561,4.6381,4.6142,4.5544,4.4885,4.4466,4.4466,4.3898,4.3765,4.4626,4.5624,4.6523,4.7306,4.8353,4.9018,4.9018,4.8409,4.8041,4.8041,4.7361,4.6955,4.6955,4.6853,4.6727,4.6574,4.4919,4.4024,4.3854,4.2273,4.245,2.5674,2.735,2.7939,2.513,2.5688,2.6574,2.5276,2.5217,2.5435,0.0,0.0,0.0,0.0,2.6793,2.7088,0.0,0.0,3.3268,0.0,0.0,3.8266,3.8717,0.0,4.0895,3.98,3.9697,3.9697,3.9697,3.9697,3.9697,3.9697,4.2133,4.3504,4.3504,4.5958,4.7309,4.7309,4.7106,4.5913,4.3787,4.3409,4.2084,3.9981,3.98,3.9697,3.9697,0.0,3.9697,3.9697,3.9697,3.9697,3.9697,3.9697,3.9697,3.9697,3.9697,4.1319,4.3834,4.5958,4.6975,4.7309,4.7309,4.7309,4.7309,4.7309,4.7309,4.7309,4.7309,4.7309,4.7309,4.7309,4.7309,4.7309,4.7309,4.7309,4.7309,4.7309,4.7309,4.7309,4.7309,4.7309,4.7279,4.716,4.6681,4.6249,4.613,4.5574,4.5155,4.5155,4.4556,4.4208,4.4339,4.5466,4.6244,4.6384,4.7998,4.9018,4.9018,4.8883,4.8849,4.8849,4.8139,4.7733,4.7733,4.7124,4.6424,4.5621,4.4625,4.3717,4.2909,4.2455,4.2811,2.4717,2.6213,2.714,2.5528,2.6931,2.8423,2.7351,2.6876,2.6871,0.0,0.0,0.0,0.0,0.0,2.9979,3.2968,0.0,3.4111,3.5571,3.6893,3.7983,0.0,0.0,4.0364,3.9749,3.9697,3.9697,3.9697,3.9697,3.9697,3.9697,4.2133,4.3504,4.3504,4.5958,4.7309,4.7309,4.7309,4.6344,4.4489,4.3834,4.2544,4.0693,4.0032,3.9697,3.9697,0.0,3.9697,3.9697,3.9697,3.9697,3.9697,3.9697,3.9697,3.9878,4.1269,4.2496,4.3882,4.6388,4.7309,4.7309,4.7309,4.7309,4.7309,4.7309,4.7309,4.7309,4.7309,4.7309,4.7309,4.7309,4.7309,4.7309,4.7309,4.7309,4.7309,4.7309,4.7309,4.7309,4.7309,4.7309,4.7309,4.7309,4.704,4.686,4.686,4.6292,4.5843,4.5843,4.5274,4.5071,4.5645,4.6316,4.6962,4.7487,4.8458,4.9018,4.9018,4.9018,4.9018,4.9018,4.868,4.8511,4.8511,4.8173,4.7538,4.6617,4.569,4.4756,4.3809,4.3166,4.3433,2.4418,2.5527,2.6617,2.6862,2.8488,2.9999,2.9842,2.9015,2.8693,3.022,2.9592,0.0,0.0,3.2108,0.0,3.3717,3.4522,3.52,3.5651,3.6684,3.7739,3.8793,3.9346,3.9697,3.9697,3.9697,3.9697,3.9697,3.9697,3.9697,3.9697,4.2133,4.3504,4.3504,4.5958,4.7309,4.7309,4.7309,4.6506,4.4932,4.3975,4.2689,4.1119,4.0134,3.9697,3.9697,3.9697,3.9878,4.0134,3.9826,3.9878,4.0134,3.9826,3.9697,4.0032,4.2544,4.3504,4.3882,4.6388,4.7309,4.7309,4.7309,4.7309,4.7309,4.7309,4.7309,4.7309,4.7309,4.7309,4.7309,4.7309,4.7309,4.7309,4.7309,4.7309,4.7309,4.7309,4.7309,4.7309,4.7309,4.7309,4.7309,4.7309,4.7309,4.7309,4.7309,4.7074,4.6828,4.6531,4.6142,4.6194,4.7004,4.734,4.7852,4.8961,4.9181,4.9187,4.9018,4.9018,4.9018,4.9018,4.9018,4.9018,4.9018,4.9018,4.845,4.7273,4.6558,4.5597,4.4434,4.3654,4.3693,2.6806,2.6924,2.6753,2.788,2.846,2.9166,3.086,3.0749,3.0851,3.2796,3.2647,3.2377,0.0,3.531,3.5977,3.2853,3.5838,3.8021,3.6535,0.0,3.8165,3.8844,3.9346,3.9697,3.9697,3.9697,3.9697,3.9697,3.9697,3.9697,3.9697,4.2133,4.3504,4.3504,4.5958,4.7309,4.7309,4.7309,4.6077,4.3646,4.3551,4.223,3.9826,3.9749,3.9697,3.9697,3.9697,4.0364,4.1369,4.016,4.0415,4.1369,4.0185,3.9697,4.0032,4.2544,4.3504,4.3882,4.6388,4.7309,4.7309,4.7309,4.7309,4.7309,4.7309,4.7309,4.7309,4.7309,4.7309,4.7309,4.7309,4.7309,4.7309,4.7309,4.7309,4.7309,4.7309,4.7309,4.7309,4.7309,4.7309,4.7309,4.7309,4.7309,4.7309,4.7309,4.8054,4.8285,4.7349,4.7444,4.7645,4.7756,4.8035,4.8722,4.9912,5.0002,4.9729,4.9052,4.9018,4.9018,4.9018,4.9018,4.9018,4.9018,4.9018,4.8129,4.6279,4.6244,4.5269,4.3409,4.3329,4.3329,2.5525,2.6436,2.7384,2.8272,2.9466,3.0682,3.1671,3.2132,3.3036,3.5429,3.51,3.4403,3.4413,0.0,3.5569,3.4439,3.5669,3.6793,3.6877,3.7236,3.7839,3.8818,3.9095,3.932,3.9672,4.0415,4.0541,3.9749,4.0415,4.0895,4.0895,4.2544,4.3882,4.4627,4.6388,4.7309,4.7309,4.7309,4.6032,4.3504,4.3504,4.2181,3.9697,3.9697,3.9697,3.9749,4.0567,4.0693,4.0465,4.0743,4.0693,4.0364,3.9878,3.9697,3.9929,4.164,4.2834,4.374,4.5508,4.6638,4.7309,4.7309,4.7309,4.7309,4.7309,4.7309,4.7309,4.7309,4.7309,4.7309,4.7309,4.7309,4.7309,4.7309,4.7309,4.7309,4.7309,4.7309,4.7309,4.7309,4.7309,4.7309,4.7309,4.7309,4.7309,4.7309,4.7593,4.7946,4.821,4.7817,4.8224,5.0133,5.0621,5.0522,4.9926,4.9984,4.9486,4.796,4.8588,4.9018,4.9018,4.9018,4.9018,4.9018,4.845,4.7473,4.6208,4.5597,4.4631,4.329,4.329,4.329,2.4963,2.5896,2.7187,2.8316,2.9907,3.1515,3.2913,3.3883,3.519,3.7823,3.7494,3.6505,3.5751,0.0,0.0,0.0,3.5978,3.6451,3.6905,3.7086,3.7462,3.8241,3.8816,3.9318,3.9701,4.0867,4.1232,4.035,4.1086,4.1544,4.1544,4.2783,4.385,4.4739,4.6225,4.698,4.698,4.7189,4.6032,4.3504,4.3504,4.2181,3.9697,3.9697,3.9697,3.9749,4.0592,4.0995,4.0895,4.0995,4.0516,3.9697,3.9697,3.9697,3.9826,4.1119,4.2398,4.3693,4.4978,4.6211,4.7309,4.7309,4.7309,4.7309,4.7309,4.7309,4.7309,4.7309,4.7309,4.7309,4.7309,4.7309,4.7309,4.7309,4.7309,4.7309,4.7309,4.7309,4.7309,4.7309,4.7309,4.7309,4.7309,4.7309,4.7309,4.7309,4.7581,4.7904,4.8293,4.7988,4.8718,5.1155,5.1883,5.1731,5.0623,5.0393,4.9559,4.7793,4.8431,4.878,4.8545,4.8829,4.9018,4.9018,4.8353,4.744,4.6208,4.5561,4.4555,4.329,4.329,4.329,2.5764,2.558,2.6042,2.8122,2.9544,3.1327,3.4731,3.6028,3.7255,3.9858,3.9888,3.8911,3.7331,3.7929,0.0,3.5858,3.6929,3.7678,3.6593,3.6883,3.7235,3.7235,3.8726,3.9781,3.9828,4.0854,4.1516,4.1516,4.1516,4.1516,4.1516,4.2685,4.3415,4.3415,4.5309,4.6279,4.6279,4.698,4.6003,4.3504,4.3504,4.2181,3.9697,3.9697,3.9697,3.9697,3.9697,4.1169,4.3313,4.0743,3.9697,3.9697,3.9697,3.9697,3.9826,4.1119,4.2398,4.3693,4.4932,4.6211,4.7309,4.7309,4.7309,4.7309,4.7309,4.7309,4.7309,4.7309,4.7309,4.7309,4.7309,4.7309,4.7309,4.7309,4.7309,4.7309,4.7309,4.7309,4.7309,4.7309,4.7309,4.7309,4.7309,4.7309,4.7309,4.7309,4.8157,4.846,4.7409,4.8168,4.9215,5.0281,5.1303,5.2014,5.2268,5.139,5.0208,4.8791,4.8693,4.8363,4.7605,4.8513,4.8984,4.9018,4.8984,4.8096,4.6208,4.6173,4.5196,4.329,4.329,4.329,2.5202,2.6277,2.8017,2.957,3.199,3.4486,3.638,3.7345,3.8452,4.0636,4.0576,3.9631,3.7999,3.7611,0.0,3.5732,3.5934,3.6575,3.7488,3.7024,3.7373,3.9406,3.9342,3.9681,4.0892,4.2105,4.2463,4.1562,4.2329,4.2846,4.2846,4.3197,4.3791,4.4702,4.5317,4.5603,4.5603,4.6262,4.5317,4.2821,4.3235,4.2181,3.9697,3.9697,3.9697,3.9749,4.0642,4.1468,4.2133,4.1369,4.0516,3.9697,3.9697,3.9697,3.9749,4.0134,4.164,4.3551,4.3929,4.5479,4.7309,4.7309,4.7309,4.7309,4.7309,4.7309,4.7309,4.7309,4.7309,4.7309,4.7309,4.7309,4.7309,4.7309,4.7309,4.7309,4.7309,4.7309,4.7309,4.7309,4.7309,4.7309,4.7309,4.7309,4.7309,4.7309,4.7538,4.7666,4.7352,4.9456,5.0855,5.0435,5.1303,5.193,5.2016,5.1272,5.032,4.9248,4.933,4.8856,4.7638,4.7868,4.8321,4.9018,4.8353,4.7406,4.6208,4.5525,4.4586,4.329,4.329,4.329,2.6189,2.756,2.9415,3.124,3.3604,3.6118,3.8452,3.929,0.0,0.0,4.1624,4.0904,3.9929,3.9057,0.0,3.762,3.7394,3.7603,3.8684,3.8225,3.8421,4.0206,4.0145,4.0415,4.1439,4.2625,4.3037,4.2281,4.2952,4.3361,4.3361,4.3361,4.3696,4.4485,4.4766,4.4915,4.4915,4.5574,4.4907,4.2873,4.3283,4.2283,4.0031,3.9828,3.9697,3.98,4.1019,4.1319,4.0895,4.1419,4.0844,3.9697,3.9697,3.9697,3.9697,3.9697,4.1319,4.3504,4.3504,4.5161,4.7309,4.7309,4.7309,4.7309,4.7309,4.7309,4.7309,4.7309,4.7309,4.7309,4.7309,4.7309,4.7309,4.7309,4.7309,4.7309,4.7309,4.7309,4.7309,4.7309,4.7309,4.7309,4.7309,4.7309,4.7309,4.7309,4.7309,4.7452,4.7819,4.9891,5.108,5.0435,5.1303,5.2065,5.2522,5.174,5.0883,5.0046,4.9733,4.9265,4.8495,4.8462,4.8895,4.9866,4.932,4.8596,4.7607,4.6675,4.5701,4.4716,4.4278,4.4067,2.7919,2.9026,3.034,3.3006,3.4771,3.6806,4.0457,4.1294,4.1683,4.3021,0.0,4.247,4.241,4.1477,4.0682,4.0625,4.0224,3.9956,4.0015,4.0,4.0,4.0216,4.1042,4.1629,4.1711,4.267,4.329,4.329,4.329,4.329,4.329,4.329,4.329,4.329,4.3858,4.4227,4.4227,4.4885,4.4571,4.3286,4.3343,4.2457,4.0667,4.0082,3.975,3.98,4.1019,4.0895,3.98,4.1069,4.0844,3.9697,3.9697,3.9697,3.9697,3.9697,4.1319,4.3504,4.3504,4.5161,4.7309,4.7309,4.7309,4.7309,4.7309,4.7309,4.7309,4.7309,4.7309,4.7309,4.7309,4.7309,4.7309,4.7309,4.7309,4.7309,4.7309,4.7309,4.7309,4.7309,4.7309,4.7309,4.7309,4.7309,4.7352,4.7409,4.7409,4.7764,4.8677,4.9813,5.0512,5.0397,5.1303,5.2348,5.3416,5.2522,5.1661,5.1177,5.0184,4.9742,4.9977,4.9709,5.0089,5.1185,5.1185,5.0726,4.9816,4.8796,4.7838,4.699,4.5941,4.544,2.6901,2.8637,3.1061,3.4262,3.6836,3.8931,4.0307,4.0606,4.1115,4.2931,4.32,4.297,4.25,4.1829,4.1213,4.0682,4.0224,4.0189,4.1127,4.0447,4.0532,4.2345,4.1988,4.1947,4.286,4.317,4.329,4.329,4.329,4.329,4.329,4.329,4.329,4.329,4.3439,4.3499,4.3499,4.4197,4.3891,4.2611,4.3142,4.2681,4.1276,4.0689,4.013,3.98,4.1019,4.0895,3.98,4.1069,4.0844,3.9697,3.9697,3.9697,3.9697,3.9697,4.1319,4.3504,4.3504,4.5161,4.7309,4.7309,4.7309,4.7309,4.7309,4.7309,4.7309,4.7309,4.7309,4.7309,4.7309,4.7309,4.7309,4.7309,4.7309,4.7309,4.7309,4.7309,4.7309,4.7309,4.7309,4.7309,4.7309,4.7309,4.7581,4.8377,4.847,4.8553,4.88,5.0403,5.1266,5.0474,5.1303,5.2348,5.3416,5.2522,5.221,5.2909,5.1974,5.1375,5.146,4.9628,4.9433,5.1185,5.1185,5.0726,4.9816,4.8796,4.8211,4.8063,4.7029,4.6551,2.75,2.9714,0.0,3.5968,0.0,3.9589,4.0247,4.0397,4.0786,4.2132,4.2402,4.2402,4.241,4.2149,4.1957,4.1887,4.1703,4.174,4.2345,4.1906,4.1947,4.317,4.278,4.2629,4.325,4.329,4.329,4.329,4.329,4.329,4.329,4.329,4.329,4.329,4.329,4.329,4.329,4.3648,4.3486,4.2843,4.3165,4.2867,4.1892,4.1039,4.0251,3.9749,4.0415,4.0313,3.9749,4.0415,4.0313,3.9697,3.9697,3.9697,3.9697,3.9697,4.1319,4.3504,4.3504,4.5161,4.7309,4.7309,4.7309,4.7309,4.7309,4.7309,4.7309,4.7309,4.7309,4.7309,4.7309,4.7309,4.7309,4.7309,4.7309,4.7309,4.7309,4.7309,4.7309,4.7309,4.7309,4.7309,4.7309,4.7679,4.8377,4.9416,4.9575,4.9734,5.0211,5.1229,5.1704,5.1155,5.2062,5.2904,5.345,5.2973,5.2904,5.345,5.2522,5.2101,5.2627,5.0477,4.9794,5.0801,5.0836,5.0836,5.0803,4.9794,4.9571,5.0054,4.9012,4.831,2.7919,3.0761,3.3574,3.7285,3.8721,0.0,4.0068,4.0217,4.0397,4.0935,4.1235,4.1602,4.2141,4.2231,4.241,4.2871,4.309,4.311,4.311,4.323,4.329,4.329,4.329,4.329,4.329,4.329,4.329,4.329,4.329,4.329,4.329,4.329,4.329,4.329,4.329,4.329,4.329,4.329,4.329,4.329,4.329,4.2872,4.2067,4.1082,4.0337,3.9829,3.9649,3.9597,3.9697,3.9697,3.9697,3.9697,3.9697,3.9697,3.9697,3.9697,4.1319,4.3504,4.3504,4.5161,4.7309,4.7309,4.7309,4.7309,4.7309,4.7309,4.7309,4.7309,4.7309,4.7309,4.7309,4.7309,4.7309,4.7309,4.7309,4.7309,4.7309,4.7309,4.7309,4.7309,4.7309,4.7309,4.7309,4.8157,4.9094,5.0009,5.0435,5.0817,5.1303,5.1671,5.1849,5.1667,5.2592,5.3314,5.345,5.3518,5.3518,5.3518,5.2662,5.2487,5.3179,5.141,5.032,5.0126,5.032,5.0817,5.1667,5.0817,5.0817,5.1631,5.0779,4.9813,2.5674,0.0,3.4053,0.0,3.8033,3.8721,0.0,0.0,3.9589,0.0,4.0576,4.1452,4.1542,4.1504,4.1572,4.1624,4.2171,4.253,4.253,4.297,4.329,4.329,4.329,4.329,4.329,4.329,4.329,4.329,4.329,4.329,4.329,4.329,4.329,4.329,4.329,4.329,4.329,4.329,4.329,4.329,4.329,4.2461,4.0947,4.0728,4.0614,4.0438,3.9448,3.9245,3.9697,3.9697,3.9697,3.9697,3.9697,3.9697,3.9697,3.9697,4.1319,4.3504,4.3504,4.5161,4.7309,4.7309,4.7309,4.7309,4.7309,4.7309,4.7309,4.7309,4.7309,4.7309,4.7309,4.7309,4.7309,4.7309,4.7309,4.7309,4.7309,4.7309,4.7309,4.7309,4.7309,4.7309,4.7309,4.8157,4.8851,4.8973,5.0518,5.1117,4.9456,5.0784,5.1594,5.0703,5.1521,5.2487,5.3416,5.3518,5.3518,5.3518,5.3382,5.2939,5.217,5.1005,4.997,4.9013,4.9931,5.0474,5.0589,5.0474,5.0474,5.0589,5.0435,4.9813,2.729,3.0881,3.4113,0.0,3.7614,3.8033,3.8691,3.8841,3.896,3.9313,3.9888,4.0397,4.0756,4.0816,4.0935,4.1324,4.1662,4.1841,4.1841,4.2372,4.2791,4.2791,4.312,4.329,4.329,4.329,4.329,4.329,4.329,4.329,4.329,4.329,4.329,4.329,4.329,4.329,4.329,4.329,4.329,4.329,4.329,4.2573,4.1155,4.0535,3.9849,3.9133,3.8969,3.9019,3.927,3.9572,3.9697,3.9697,3.9697,3.9697,3.9697,3.9697,4.1319,4.3504,4.3504,4.5161,4.7309,4.7309,4.7309,4.7309,4.7309,4.7309,4.7309,4.7309,4.7309,4.7309,4.7309,4.7309,4.7309,4.7309,4.7309,4.7309,4.7309,4.7309,4.7309,4.7309,4.7309,4.7309,4.7309,4.8157,4.88,4.88,5.0087,5.0741,4.9813,5.0512,5.1117,5.1229,5.1667,5.2348,5.3416,5.3518,5.3518,5.3518,5.3518,5.3314,5.2835,5.1262,5.0165,4.9694,4.9004,4.8922,4.9496,4.9496,4.9813,5.0397,5.0397,4.9813,0.0,0.0,3.2706,3.5669,3.6686,3.7135,0.0,0.0,3.8332,0.0,3.917,3.9349,4.0038,4.0157,4.0307,4.0816,4.1025,4.1145,4.1145,4.1722,4.2141,4.2141,4.2671,4.309,4.309,4.32,4.329,4.329,4.329,4.329,4.329,4.329,4.329,4.329,4.329,4.329,4.329,4.329,4.329,4.329,4.329,4.267,4.1545,4.0404,3.9221,3.8026,3.8491,3.8793,3.8969,3.9471,3.9697,3.9697,3.9697,3.9697,3.9749,4.0083,4.1591,4.3551,4.3882,4.5434,4.7309,4.7309,4.7309,4.7309,4.7309,4.7309,4.7309,4.7309,4.7309,4.7309,4.7309,4.7309,4.7309,4.7309,4.7309,4.7309,4.7309,4.7309,4.7309,4.7309,4.7309,4.7309,4.7309,4.8157,4.8718,4.846,4.9536,5.0204,4.9655,4.9813,5.0397,5.1414,5.1488,5.2062,5.3382,5.3518,5.3518,5.3518,5.3518,5.3518,5.3518,5.174,5.0665,5.0397,4.8625,4.7904,4.8418,4.8677,4.9054,4.9647,4.9852,4.9416,0.0,2.6841,0.0,3.2736,3.4651,3.5938,0.0,0.0,3.7644,3.8302,3.8452,3.8661,3.9349,3.9433,3.9433,3.9529,4.0038,4.0457,4.0457,4.1025,4.1482,4.1482,4.2051,4.244,4.244,4.297,4.329,4.329,4.329,4.329,4.329,4.329,4.329,4.329,4.329,4.329,4.329,4.329,4.329,4.329,4.329,4.267,4.1545,4.0404,3.921,3.8083,3.8049,3.8366,3.8969,3.9471,3.9697,3.9697,3.9697,3.9697,3.9826,4.1069,4.235,4.3693,4.4886,4.6166,4.7309,4.7309,4.7309,4.7309,4.7309,4.7309,4.7309,4.7309,4.7309,4.7309,4.7309,4.7309,4.7309,4.7309,4.7309,4.7309,4.7309,4.7309,4.7309,4.7309,4.7309,4.7309,4.7309,4.8157,4.847,4.7538,4.9085,4.9655,4.7722,4.8293,4.9296,5.0358,5.0474,5.1299,5.3348,5.3518,5.3518,5.3518,5.3518,5.3518,5.3518,5.2418,5.1377,5.0397,4.9296,4.8293,4.7366,4.8335,4.8335,4.7495,4.846,4.8335,0.0,0.0,0.0,3.034,3.2287,3.3933,3.522,3.6178,3.6985,3.7644,3.7764,3.7973,3.8631,3.911,3.9373,3.9373,3.9619,3.9768,3.9768,4.0337,4.0756,4.0756,4.1324,4.1782,4.1782,4.2312,4.2701,4.2701,4.309,4.329,4.329,4.329,4.329,4.329,4.329,4.329,4.329,4.329,4.329,4.329,4.329,4.267,4.1587,4.1169,3.9944,3.8115,3.8439,3.8469,3.8366,3.8919,3.9855,4.0945,4.0945,4.1419,4.2181,4.2641,4.3646,4.4794,4.5252,4.6211,4.7309,4.7309,4.7309,4.7309,4.7309,4.7309,4.7309,4.7309,4.7309,4.7309,4.7309,4.7309,4.7309,4.7309,4.7309,4.7309,4.7309,4.7309,4.7309,4.7309,4.7309,4.7309,4.7309,4.7624,4.7904,4.821,4.8335,4.8377,4.8293,4.803,4.8501,5.0204,5.0397,5.1262,5.3314,5.3518,5.3518,5.3518,5.3518,5.3518,5.3518,5.2487,5.174,5.1377,4.9694,4.8293,4.7309,4.7636,4.7636,4.7309,4.7679,4.7636,2.2413,0.0,0.0,0.0,3.0073,3.1539,3.4233,3.4981,3.5519,3.6836,3.7105,3.7315,3.7943,3.8601,3.914,3.9343,3.9373,3.9373,3.9373,3.9798,4.0068,4.0068,4.0666,4.1055,4.1055,4.1692,4.2081,4.2081,4.2641,0.0,4.3,4.317,4.329,4.329,4.329,4.329,4.329,4.329,4.329,4.329,4.329,4.29,4.2152,4.1753,4.076,3.9271,3.9231,3.8997,3.8677,3.929,4.0598,4.223,4.223,4.2738,4.3551,4.3975,4.4674,4.5434,4.5869,4.6594,4.7309,4.7309,4.7309,4.7309,4.7309,4.7309,4.7309,4.7309,4.7309,4.7369,4.7578,4.7788,4.7967,4.7967,4.7967,4.7967,4.7967,4.7608,4.7309,4.7309,4.7309,4.7309,4.7309,4.7489,4.7869,4.8504,4.8235,4.82,4.8882,4.8386,4.8785,5.0866,5.1101,5.1977,5.4056,5.4262,5.4262,5.4262,5.4262,5.4126,5.389,5.317,5.2365,5.1414,5.0048,4.8636,4.7309,4.7309,4.7309,4.7309,4.7309,4.7309,0.0,0.0,0.0,0.0,0.0,0.0,3.4053,0.0,3.3155,3.5818,3.6357,3.6567,3.7255,3.7913,3.8571,3.926,3.9343,3.9373,3.9373,3.9373,3.9373,3.9373,3.9978,4.0367,4.0367,4.0965,4.1354,4.1354,4.1991,4.2381,4.2312,4.2901,4.322,4.325,4.329,4.329,4.329,4.329,4.329,4.329,4.329,4.329,4.325,4.2152,4.1629,4.1545,4.0447,3.9996,4.0065,4.06,4.1908,4.3551,4.3551,4.3598,4.374,4.5024,4.5434,4.5644,4.6887,4.7309,4.7309,4.7309,4.7309,4.7309,4.7309,4.7309,4.7309,4.7339,4.7339,4.7489,4.8147,4.882,4.9299,4.9299,4.9299,4.9299,4.9299,4.8267,4.7369,4.7369,4.7369,4.7369,4.7369,4.7908,4.8371,4.8371,4.888,4.9299,4.9344,4.9344,5.014,5.2276,5.2517,5.3415,5.5506,5.5681,5.5681,5.5681,5.5681,5.5343,5.4599,5.46,5.3288,5.0467,5.0429,4.9407,4.7352,4.7309,4.7309,4.7309,4.7309,4.7309,2.0838,0.0,0.0,0.0,0.0,0.0,0.0,0.0,3.0432,3.3066,3.3604,3.4262,3.6357,3.6896,3.7225,3.7853,3.8781,3.9373,3.9373,3.9373,3.9373,3.9373,3.9589,3.9679,3.9679,4.0277,4.0666,0.0,4.1294,4.1356,4.0558,4.1131,4.1686,4.2041,4.286,4.329,4.329,4.329,4.329,4.329,4.329,4.329,4.329,4.2981,4.2386,4.1587,4.1253,4.1667,4.2519,4.1737,4.2796,4.4886,4.4886,4.5434,4.6299,4.6638,4.677,4.6814,4.7149,4.7309,4.7309,4.7309,4.7309,4.7309,4.7309,4.7309,4.7399,4.7878,4.8027,4.8177,4.888,4.9179,4.9299,4.9299,4.9299,4.9299,4.9299,4.903,4.876,4.876,4.876,4.876,4.876,4.891,4.9267,4.9996,4.9216,4.8996,5.0253,4.9984,5.0423,5.2292,5.3188,5.4208,5.5577,5.5681,5.5681,5.5681,5.5681,5.5263,5.4206,5.4957,5.4053,5.1165,5.1172,5.0279,4.8377,4.7636,4.7309,4.7309,4.7309,4.7309,2.1844,0.0,0.0,0.0,0.0,0.0,2.7919,2.8397,2.9086,0.0,3.3155,3.3814,3.5402,3.6118,3.6596,3.6956,3.7883,3.8661,3.896,3.923,3.9373,3.9373,3.9373,3.9373,3.9373,3.9372,3.9319,3.9319,3.9536,3.9692,3.9765,4.018,4.0833,4.1906,4.2595,4.306,4.329,4.329,4.329,4.329,4.329,4.329,4.329,4.329,4.2941,4.2275,4.1794,4.2631,4.4235,4.3006,4.3926,4.6211,4.6211,4.6638,4.7309,4.7309,4.7309,4.7309,4.7309,4.7309,4.7309,4.7309,4.7309,4.7309,4.7309,4.7309,4.7429,4.8087,4.8686,4.9194,4.9553,4.9883,5.0092,5.0092,5.0092,5.0092,5.0092,5.0092,4.9912,4.9419,4.9299,4.9299,4.9299,4.9494,4.987,5.0479,4.9929,4.984,5.0845,5.0673,5.1215,5.3186,5.3937,5.4947,5.6489,5.663,5.663,5.663,5.663,5.6176,5.5225,5.5335,5.434,5.1901,5.1144,5.0147,4.88,4.7807,4.7309,4.7309,4.7309,4.7309,2.3631,2.3969,0.0,0.0,2.4739,0.0,2.9298,2.8846,2.8393,0.0,3.3246,3.3815,3.4024,3.513,3.6028,3.5938,3.6656,3.7464,3.8182,3.8811,3.923,3.929,3.932,3.9313,3.9373,3.8546,3.7994,3.7994,3.7557,3.7962,3.9571,3.9679,4.0431,4.2067,4.2273,4.2641,4.317,4.326,4.329,4.329,4.329,4.329,4.329,4.329,4.329,4.325,4.2234,4.3131,4.5191,4.4192,4.5198,4.7309,4.7309,4.7309,4.7309,4.7309,4.7309,4.7309,4.7309,4.7309,4.7309,4.7309,4.7309,4.7309,4.7309,4.7309,4.7459,4.8177,4.9344,5.0315,5.0315,5.0734,5.1229,5.1229,5.1229,5.1229,5.1229,5.1229,5.087,4.9703,4.9539,4.9539,4.9539,4.9972,5.0315,5.0315,5.0734,5.1139,5.1199,5.1233,5.2153,5.4379,5.4713,5.5611,5.7735,5.7881,5.7881,5.7881,5.7881,5.7504,5.6575,5.5696,5.4268,5.2281,5.0539,4.9387,4.8893,4.7837,4.7352,4.7452,4.7352,4.7309,2.6087,2.6004,2.6004,2.5202,0.0,0.0,2.3939,2.4837,2.6213,0.0,2.8098,2.9412,3.1001,3.2377,3.3125,3.2557,3.4412,3.6267,3.7434,3.7704,3.8003,3.8512,3.8601,3.8811,3.9379,3.9228,3.909,3.909,3.8223,3.8045,3.887,3.8966,3.9372,4.0126,4.1616,4.247,4.259,4.306,4.329,4.329,4.329,4.329,4.329,4.329,4.329,4.329,4.3061,4.3845,4.5304,4.5066,4.5913,4.7309,4.7309,4.7309,4.7309,4.7309,4.7309,4.7309,4.7309,4.7309,4.7309,4.7309,4.7309,4.7309,4.7309,4.7309,4.7549,4.8745,5.0002,5.102,5.102,5.1109,5.1229,5.1229,5.1229,5.1229,5.1229,5.1229,5.1139,5.09,5.084,5.084,5.084,5.096,5.102,5.102,5.0644,5.0584,5.1139,5.1561,5.2499,5.4399,5.5377,5.6432,5.7808,5.7881,5.7881,5.7881,5.7881,5.7043,5.5134,5.5621,5.43,5.0727,4.9279,4.8931,4.9605,4.8049,4.7722,4.847,4.7679,4.7309,2.7859,2.759,2.75,2.7171,0.0,0.0,0.0,2.5136,2.5561,2.726,2.7859,2.8577,3.0193,3.1061,3.1509,3.1511,3.3215,3.4741,3.537,3.6596,3.7524,3.7853,3.7913,3.8033,3.8392,3.8197,3.8018,3.7823,3.7291,3.7356,3.8198,3.8265,3.8822,3.9953,4.1237,4.2081,4.241,4.3,4.329,4.329,4.329,4.329,4.329,4.329,4.329,4.325,4.267,4.356,4.5263,4.4689,4.5585,4.7309,4.7309,4.7309,4.7309,4.7309,4.7309,4.7309,4.7309,4.7309,4.7309,4.7309,4.7309,4.7309,4.7309,4.7758,4.8476,4.9464,5.0451,5.1229,5.1229,5.1229,5.1229,5.1229,5.1229,5.1229,5.1229,5.1229,5.1229,5.1229,5.1229,5.1229,5.1229,5.1229,5.1229,5.1229,5.0883,5.0794,5.1169,5.1379,5.2308,5.4389,5.5084,5.6087,5.7772,5.7881,5.7881,5.7881,5.7881,5.7147,5.549,5.5377,5.3777,5.0288,4.9583,4.9857,5.1159,4.923,4.8486,4.88,4.863,4.8291,0.0,0.0,0.0,0.0,0.0,2.72,0.0,0.0,0.0,0.0,0.0,0.0,0.0,0.0,0.0,0.0,0.0,0.0,0.0,3.4711,0.0,3.6806,3.7075,3.7225,3.7225,3.6793,3.6552,3.6624,3.6406,3.6807,3.804,3.8107,3.8743,4.0151,4.0846,4.1542,4.2201,4.2821,4.317,4.329,4.329,4.329,4.329,4.3061,4.3061,4.325,4.207,4.3006,4.5221,4.432,4.5285,4.7309,4.7309,4.7309,4.7309,4.7309,4.7309,4.7309,4.7309,4.7309,4.7309,4.7309,4.7309,4.7339,4.7459,4.8327,4.9449,5.0016,5.0674,5.1229,5.1229,5.1229,5.1229,5.1229,5.1229,5.1229,5.1229,5.1229,5.1229,5.1229,5.1229,5.1229,5.1229,5.1229,5.1229,5.1229,5.1229,5.1229,5.1229,5.1386,5.2305,5.4379,5.4796,5.573,5.7735,5.7881,5.7881,5.7881,5.7881,5.7297,5.5968,5.4847,5.3146,5.0758,5.0789,5.1456,5.2669,5.082,4.9806,4.9499,4.9634,4.9261,0.0,0.0,0.0,0.0,3.1091,0.0,0.0,0.0,2.6686,2.4687,0.0,0.0,0.0,0.0,0.0,0.0,0.0,0.0,2.9235,3.0883,3.2826,3.4623,3.5878,3.6596,3.6596,3.6018,3.6335,3.8014,3.7094,3.7278,3.9139,3.9228,3.9294,3.9493,4.0157,4.0816,4.1542,4.2171,4.2761,4.329,4.329,4.329,4.325,4.2234,4.2345,4.325,4.207,4.3006,4.5304,4.515,4.5955,4.7309,4.7309,4.7309,4.7309,4.7309,4.7309,4.7309,4.7309,4.7309,4.7309,4.7309,4.7309,4.7429,4.7997,4.8686,4.9449,5.0016,5.0674,5.1229,5.1229,5.1229,5.1229,5.1229,5.1229,5.1229,5.1229,5.1229,5.1229,5.1229,5.1229,5.1229,5.1229,5.1229,5.1229,5.1229,5.1229,5.1229,5.1229,5.2109,5.3209,5.4463,5.5417,5.6547,5.7808,5.7881,5.7881,5.7881,5.7881,5.6963,5.4879,5.3699,5.2958,5.2586,5.2975,5.3254,5.3396,5.2554,5.2099,5.2052,5.0205,4.9269,0.0,0.0,0.0,0.0,0.0,0.0,2.6836,0.0,2.6213,0.0,0.0,0.0,0.0,0.0,0.0,0.0,2.7465,0.0,0.0,0.0,3.1001,0.0,0.0,0.0,3.5252,3.507,3.5729,3.7674,3.6626,3.6776,3.8721,3.8811,3.902,3.9373,4.0068,4.0726,4.1422,4.2081,4.2671,4.329,4.329,4.329,4.329,4.282,4.286,4.325,4.282,4.3642,4.5233,4.4503,4.5427,4.7222,4.6506,4.6638,4.7309,4.7309,4.7309,4.7309,4.7309,4.7309,4.7309,4.7309,4.7549,4.7997,4.87,4.9314,4.9972,5.0584,5.0973,5.1229,5.1229,5.1229,5.1229,5.1229,5.1229,5.1229,5.1229,5.1229,5.1229,5.1229,5.1229,5.1229,5.1229,5.1229,5.1229,5.1229,5.1229,5.1229,5.1229,5.22,5.3309,5.4463,5.5538,5.6663,5.7808,5.7881,5.7881,5.7881,5.6696,5.5571,5.463,5.2856,5.2215,5.29,5.2445,5.2859,5.4099,5.2535,5.2076,5.269,5.1387,5.0425,3.4143,0.0,0.0,0.0,0.0,0.0,0.0,0.0,0.0,0.0,0.0,0.0,0.0,0.0,0.0,0.0,0.0,2.7405,0.0,2.7645,0.0,0.0,0.0,0.0,0.0,3.3755,3.4352,3.6716,3.5519,3.5699,3.8003,3.8302,3.8631,3.911,3.9798,4.0546,4.1422,4.1901,4.2521,4.329,4.329,4.329,4.329,4.2659,4.2699,4.325,4.2836,4.3431,4.4773,4.4368,4.5229,4.6726,4.6166,4.6506,4.7309,4.7309,4.7309,4.7309,4.7309,4.7429,4.7578,4.7578,4.8027,4.8686,4.9344,4.9853,5.0315,5.0973,5.1229,5.1229,5.1229,5.1229,5.1229,5.1229,5.1229,5.1229,5.1229,5.1229,5.1229,5.1229,5.1229,5.1229,5.1229,5.1229,5.1229,5.1229,5.1229,5.1229,5.1229,5.22,5.3209,5.4041,5.5377,5.6547,5.7372,5.7701,5.7881,5.7881,5.581,5.4589,5.4589,5.3033,5.235,5.29,5.2395,5.2767,5.4126,5.2485,5.1926,5.244,5.186,5.1227,0.0,0.0,0.0,3.2497,0.0,0.0,0.0,0.0,2.8517,0.0,0.0,0.0,0.0,0.0,0.0,0.0,0.0,0.0,0.0,0.0,0.0,0.0,0.0,0.0,0.0,3.1779,3.2018,0.0,3.3724,3.4023,3.7255,3.8033,3.8392,3.8422,3.908,4.0068,4.1422,4.1414,4.2073,4.329,4.329,4.329,4.321,4.1029,4.1239,4.32,4.1582,4.1871,4.3603,4.5454,4.5887,4.5598,4.677,4.7266,4.7309,4.7309,4.7309,4.7309,4.7309,4.7728,4.8267,4.8267,4.8686,4.9344,5.0002,5.0166,5.0315,5.0973,5.1229,5.1229,5.1229,5.1229,5.1229,5.1229,5.1229,5.1229,5.1229,5.1229,5.1229,5.1229,5.1229,5.1229,5.1229,5.1229,5.1229,5.1229,5.1229,5.1229,5.1229,5.22,5.29,5.2945,5.4888,5.6204,5.6243,5.726,5.7881,5.7881,5.581,5.4589,5.4589,5.4547,5.3999,5.29,5.3956,5.3999,5.2945,5.2856,5.2305,5.1246,5.1246,5.1169,0.0,0.0,3.8542,3.5008,0.0,0.0,0.0,0.0,0.0,0.0,0.0,0.0,0.0,0.0,0.0,0.0,0.0,0.0,0.0,0.0,0.0,0.0,0.0,0.0,0.0,0.0,0.0,3.3425,3.2886,3.3444,3.5687,3.7035,3.7634,3.7477,3.8727,4.0038,4.1422,4.1422,4.2043,4.329,4.329,4.329,4.325,4.174,4.142,4.2099,4.115,4.1324,4.2368,4.3376,4.4407,4.5434,4.5869,4.655,4.7309,4.7309,4.7309,4.7369,4.7818,4.8087,4.8356,4.885,4.9374,4.9942,5.0136,5.0495,5.0883,5.1169,5.1229,5.1229,5.1229,5.1229,5.1229,5.1229,5.1229,5.1229,5.1229,5.1229,5.1229,5.1229,5.1229,5.1229,5.1229,5.1229,5.1229,5.1229,5.1229,5.1229,5.1229,5.22,5.29,5.29,5.4888,5.6204,5.6204,5.726,5.7881,5.7881,5.6509,5.5658,5.5658,5.4221,5.3656,5.4041,5.29,5.253,5.29,5.2154,5.1588,5.1229,5.1229,5.1229,3.8871,3.9559,0.0,3.6896,3.5848,0.0,3.112,0.0,3.1988,0.0,0.0,0.0,0.0,0.0,0.0,0.0,0.0,0.0,0.0,2.34,0.0,0.0,0.0,0.0,0.0,0.0,3.0494,3.2377,3.1869,3.2466,0.0,3.6471,3.7307,3.7155,3.8608,4.0038,4.1422,4.1422,4.2043,4.329,4.329,4.329,4.325,4.1699,4.1325,4.1835,4.0841,4.0748,4.142,4.2907,4.4011,4.484,4.5734,4.6594,4.7309,4.7309,4.7459,4.7758,4.8416,4.8775,4.9045,4.9464,5.0062,5.0554,5.0554,5.0853,5.1229,5.1229,5.1229,5.1229,5.1229,5.1229,5.1229,5.1229,5.1229,5.1229,5.1229,5.1229,5.1229,5.1229,5.1229,5.1229,5.1229,5.1229,5.1229,5.1229,5.1229,5.1229,5.1229,5.1835,5.2305,5.2305,5.4305,5.5968,5.6739,5.6773,5.7072,5.7845,5.6087,5.5215,5.5578,5.3839,5.3077,5.3352,5.1926,5.1542,5.226,5.1542,5.1386,5.1819,5.1386,5.1433]}]]